<?xml version="1.0" encoding="UTF-8" standalone="no" ?>
<gpx xmlns="http://www.topografix.com/GPX/1/1" xmlns:xsi="http://www.w3.org/2001/XMLSchema-instance" xsi:schemaLocation="http://www.topografix.com/GPX/1/1 http://www.topografix.com/GPX/1/1/gpx.xsd" version="1.1" creator="VisuGPX - https://www.visugpx.com">
  <metadata>
    <name>Vélo bleu - Circuit 33</name>
    <desc><![CDATA[Petit patrimoine sur ce circuit :
- Lavoirs de Arc-en-Barrois, Ternat, Leffonds
- Chapelle de l'Hospice à Arc-en-Barrois, Chapelle St-Pierre au Val Bruant
- Maison-Dieu de Mormant à Leffonds]]></desc>
  </metadata>
  <trk>
    <name><![CDATA[66 puis 33]]></name>
    <trkseg>
      <trkpt lat="48.02225" lon="5.05967">
        <ele>343.4</ele>
        <time>2025-03-12T08:40:00.000Z</time>
      </trkpt>
      <trkpt lat="48.02225" lon="5.05966">
        <ele>343.4</ele>
        <time>2025-03-12T08:40:00.000Z</time>
      </trkpt>
      <trkpt lat="48.02237" lon="5.05957">
        <ele>343.4</ele>
        <time>2025-03-12T08:40:00.002Z</time>
      </trkpt>
      <trkpt lat="48.02239" lon="5.05953">
        <ele>343.39</ele>
        <time>2025-03-12T08:40:00.005Z</time>
      </trkpt>
      <trkpt lat="48.02235" lon="5.05951">
        <ele>343.38</ele>
        <time>2025-03-12T08:40:00.008Z</time>
      </trkpt>
      <trkpt lat="48.02232" lon="5.05954">
        <ele>343.42</ele>
        <time>2025-03-12T08:40:00.012Z</time>
      </trkpt>
      <trkpt lat="48.02224" lon="5.05951">
        <ele>343.44</ele>
        <time>2025-03-12T08:40:00.017Z</time>
      </trkpt>
      <trkpt lat="48.02223" lon="5.0595">
        <ele>343.49</ele>
        <time>2025-03-12T08:40:00.023Z</time>
      </trkpt>
      <trkpt lat="48.02214" lon="5.05946">
        <ele>343.54</ele>
        <time>2025-03-12T08:40:00.030Z</time>
      </trkpt>
      <trkpt lat="48.02199" lon="5.05935">
        <ele>343.6</ele>
        <time>2025-03-12T08:40:00.040Z</time>
      </trkpt>
      <trkpt lat="48.0218" lon="5.05904">
        <ele>343.64</ele>
        <time>2025-03-12T08:40:00.054Z</time>
      </trkpt>
      <trkpt lat="48.02166" lon="5.05883">
        <ele>343.72</ele>
        <time>2025-03-12T08:40:00.071Z</time>
      </trkpt>
      <trkpt lat="48.02153" lon="5.05863">
        <ele>343.83</ele>
        <time>2025-03-12T08:40:00.092Z</time>
      </trkpt>
      <trkpt lat="48.0214" lon="5.05846">
        <ele>343.95</ele>
        <time>2025-03-12T08:40:00.115Z</time>
      </trkpt>
      <trkpt lat="48.02128" lon="5.05829">
        <ele>344.09</ele>
        <time>2025-03-12T08:40:00.141Z</time>
      </trkpt>
      <trkpt lat="48.02113" lon="5.05812">
        <ele>344.3</ele>
        <time>2025-03-12T08:40:00.170Z</time>
      </trkpt>
      <trkpt lat="48.02098" lon="5.05795">
        <ele>344.54</ele>
        <time>2025-03-12T08:40:00.202Z</time>
      </trkpt>
      <trkpt lat="48.0208" lon="5.05783">
        <ele>344.77</ele>
        <time>2025-03-12T08:40:00.237Z</time>
      </trkpt>
      <trkpt lat="48.02063" lon="5.0577">
        <ele>344.99</ele>
        <time>2025-03-12T08:40:00.275Z</time>
      </trkpt>
      <trkpt lat="48.02046" lon="5.05765">
        <ele>345.21</ele>
        <time>2025-03-12T08:40:00.316Z</time>
      </trkpt>
      <trkpt lat="48.0203" lon="5.0576">
        <ele>345.47</ele>
        <time>2025-03-12T08:40:00.360Z</time>
      </trkpt>
      <trkpt lat="48.02006" lon="5.05756">
        <ele>345.78</ele>
        <time>2025-03-12T08:40:00.407Z</time>
      </trkpt>
      <trkpt lat="48.01983" lon="5.05751">
        <ele>346.14</ele>
        <time>2025-03-12T08:40:00.458Z</time>
      </trkpt>
      <trkpt lat="48.01963" lon="5.05745">
        <ele>346.44</ele>
        <time>2025-03-12T08:40:00.512Z</time>
      </trkpt>
      <trkpt lat="48.01943" lon="5.05739">
        <ele>346.74</ele>
        <time>2025-03-12T08:40:00.570Z</time>
      </trkpt>
      <trkpt lat="48.01922" lon="5.0573">
        <ele>347.02</ele>
        <time>2025-03-12T08:40:00.631Z</time>
      </trkpt>
      <trkpt lat="48.01901" lon="5.0572">
        <ele>347.23</ele>
        <time>2025-03-12T08:40:00.696Z</time>
      </trkpt>
      <trkpt lat="48.01886" lon="5.05709">
        <ele>347.4</ele>
        <time>2025-03-12T08:40:00.763Z</time>
      </trkpt>
      <trkpt lat="48.0187" lon="5.05698">
        <ele>347.52</ele>
        <time>2025-03-12T08:40:00.833Z</time>
      </trkpt>
      <trkpt lat="48.01847" lon="5.05681">
        <ele>347.64</ele>
        <time>2025-03-12T08:40:00.907Z</time>
      </trkpt>
      <trkpt lat="48.01843" lon="5.05678">
        <ele>347.72</ele>
        <time>2025-03-12T08:40:00.982Z</time>
      </trkpt>
      <trkpt lat="48.01822" lon="5.05674">
        <ele>347.82</ele>
        <time>2025-03-12T08:40:01.060Z</time>
      </trkpt>
      <trkpt lat="48.01812" lon="5.05676">
        <ele>347.89</ele>
        <time>2025-03-12T08:40:01.140Z</time>
      </trkpt>
      <trkpt lat="48.0179" lon="5.05684">
        <ele>347.96</ele>
        <time>2025-03-12T08:40:01.224Z</time>
      </trkpt>
      <trkpt lat="48.0176" lon="5.05699">
        <ele>347.94</ele>
        <time>2025-03-12T08:40:01.313Z</time>
      </trkpt>
      <trkpt lat="48.01734" lon="5.05713">
        <ele>347.76</ele>
        <time>2025-03-12T08:40:01.406Z</time>
      </trkpt>
      <trkpt lat="48.01708" lon="5.05727">
        <ele>347.43</ele>
        <time>2025-03-12T08:40:01.504Z</time>
      </trkpt>
      <trkpt lat="48.01684" lon="5.0574">
        <ele>347.3</ele>
        <time>2025-03-12T08:40:01.606Z</time>
      </trkpt>
      <trkpt lat="48.01659" lon="5.05753">
        <ele>347.21</ele>
        <time>2025-03-12T08:40:01.712Z</time>
      </trkpt>
      <trkpt lat="48.01634" lon="5.05765">
        <ele>347.16</ele>
        <time>2025-03-12T08:40:01.822Z</time>
      </trkpt>
      <trkpt lat="48.01608" lon="5.05777">
        <ele>347.14</ele>
        <time>2025-03-12T08:40:01.936Z</time>
      </trkpt>
      <trkpt lat="48.01578" lon="5.05779">
        <ele>347.08</ele>
        <time>2025-03-12T08:40:02.055Z</time>
      </trkpt>
      <trkpt lat="48.01548" lon="5.05781">
        <ele>347.09</ele>
        <time>2025-03-12T08:40:02.179Z</time>
      </trkpt>
      <trkpt lat="48.01541" lon="5.05782">
        <ele>347.06</ele>
        <time>2025-03-12T08:40:02.304Z</time>
      </trkpt>
      <trkpt lat="48.01513" lon="5.05784">
        <ele>347.02</ele>
        <time>2025-03-12T08:40:02.434Z</time>
      </trkpt>
      <trkpt lat="48.01484" lon="5.05786">
        <ele>346.96</ele>
        <time>2025-03-12T08:40:02.568Z</time>
      </trkpt>
      <trkpt lat="48.01455" lon="5.05788">
        <ele>346.94</ele>
        <time>2025-03-12T08:40:02.707Z</time>
      </trkpt>
      <trkpt lat="48.01425" lon="5.05791">
        <ele>346.92</ele>
        <time>2025-03-12T08:40:02.851Z</time>
      </trkpt>
      <trkpt lat="48.0141" lon="5.05792">
        <ele>346.9</ele>
        <time>2025-03-12T08:40:02.997Z</time>
      </trkpt>
      <trkpt lat="48.01382" lon="5.05794">
        <ele>346.91</ele>
        <time>2025-03-12T08:40:03.148Z</time>
      </trkpt>
      <trkpt lat="48.01355" lon="5.05796">
        <ele>347.01</ele>
        <time>2025-03-12T08:40:03.303Z</time>
      </trkpt>
      <trkpt lat="48.01324" lon="5.05798">
        <ele>347.1</ele>
        <time>2025-03-12T08:40:03.463Z</time>
      </trkpt>
      <trkpt lat="48.01295" lon="5.058">
        <ele>347.2</ele>
        <time>2025-03-12T08:40:03.628Z</time>
      </trkpt>
      <trkpt lat="48.01265" lon="5.05803">
        <ele>347.38</ele>
        <time>2025-03-12T08:40:03.797Z</time>
      </trkpt>
      <trkpt lat="48.01265" lon="5.05803">
        <ele>347.53</ele>
        <time>2025-03-12T08:40:03.966Z</time>
      </trkpt>
      <trkpt lat="48.01243" lon="5.05804">
        <ele>347.69</ele>
        <time>2025-03-12T08:40:04.139Z</time>
      </trkpt>
      <trkpt lat="48.01221" lon="5.05806">
        <ele>347.9</ele>
        <time>2025-03-12T08:40:04.315Z</time>
      </trkpt>
      <trkpt lat="48.012" lon="5.05808">
        <ele>348.12</ele>
        <time>2025-03-12T08:40:04.495Z</time>
      </trkpt>
      <trkpt lat="48.01192" lon="5.05808">
        <ele>348.34</ele>
        <time>2025-03-12T08:40:04.676Z</time>
      </trkpt>
      <trkpt lat="48.01165" lon="5.0581">
        <ele>348.56</ele>
        <time>2025-03-12T08:40:04.861Z</time>
      </trkpt>
      <trkpt lat="48.01137" lon="5.05812">
        <ele>348.78</ele>
        <time>2025-03-12T08:40:05.051Z</time>
      </trkpt>
      <trkpt lat="48.01107" lon="5.05804">
        <ele>349.02</ele>
        <time>2025-03-12T08:40:05.246Z</time>
      </trkpt>
      <trkpt lat="48.01076" lon="5.05795">
        <ele>349.25</ele>
        <time>2025-03-12T08:40:05.446Z</time>
      </trkpt>
      <trkpt lat="48.01057" lon="5.05789">
        <ele>349.53</ele>
        <time>2025-03-12T08:40:05.649Z</time>
      </trkpt>
      <trkpt lat="48.01039" lon="5.05782">
        <ele>349.85</ele>
        <time>2025-03-12T08:40:05.855Z</time>
      </trkpt>
      <trkpt lat="48.01011" lon="5.05769">
        <ele>350.25</ele>
        <time>2025-03-12T08:40:06.066Z</time>
      </trkpt>
      <trkpt lat="48.00983" lon="5.05755">
        <ele>350.53</ele>
        <time>2025-03-12T08:40:06.281Z</time>
      </trkpt>
      <trkpt lat="48.00964" lon="5.05746">
        <ele>350.72</ele>
        <time>2025-03-12T08:40:06.500Z</time>
      </trkpt>
      <trkpt lat="48.00943" lon="5.05736">
        <ele>350.96</ele>
        <time>2025-03-12T08:40:06.722Z</time>
      </trkpt>
      <trkpt lat="48.00922" lon="5.05726">
        <ele>351.21</ele>
        <time>2025-03-12T08:40:06.948Z</time>
      </trkpt>
      <trkpt lat="48.00893" lon="5.05712">
        <ele>351.46</ele>
        <time>2025-03-12T08:40:07.179Z</time>
      </trkpt>
      <trkpt lat="48.00864" lon="5.05698">
        <ele>351.71</ele>
        <time>2025-03-12T08:40:07.414Z</time>
      </trkpt>
      <trkpt lat="48.00851" lon="5.05691">
        <ele>351.96</ele>
        <time>2025-03-12T08:40:07.652Z</time>
      </trkpt>
      <trkpt lat="48.00822" lon="5.05678">
        <ele>352.15</ele>
        <time>2025-03-12T08:40:07.894Z</time>
      </trkpt>
      <trkpt lat="48.00794" lon="5.05664">
        <ele>352.48</ele>
        <time>2025-03-12T08:40:08.141Z</time>
      </trkpt>
      <trkpt lat="48.00773" lon="5.05658">
        <ele>352.79</ele>
        <time>2025-03-12T08:40:08.392Z</time>
      </trkpt>
      <trkpt lat="48.00751" lon="5.05652">
        <ele>353.1</ele>
        <time>2025-03-12T08:40:08.646Z</time>
      </trkpt>
      <trkpt lat="48.0073" lon="5.05647">
        <ele>353.39</ele>
        <time>2025-03-12T08:40:08.904Z</time>
      </trkpt>
      <trkpt lat="48.00706" lon="5.05641">
        <ele>353.66</ele>
        <time>2025-03-12T08:40:09.166Z</time>
      </trkpt>
      <trkpt lat="48.00681" lon="5.05636">
        <ele>353.94</ele>
        <time>2025-03-12T08:40:09.432Z</time>
      </trkpt>
      <trkpt lat="48.00656" lon="5.05631">
        <ele>354.16</ele>
        <time>2025-03-12T08:40:09.702Z</time>
      </trkpt>
      <trkpt lat="48.00631" lon="5.05626">
        <ele>354.4</ele>
        <time>2025-03-12T08:40:09.976Z</time>
      </trkpt>
      <trkpt lat="48.00609" lon="5.05622">
        <ele>354.67</ele>
        <time>2025-03-12T08:40:10.253Z</time>
      </trkpt>
      <trkpt lat="48.00588" lon="5.05617">
        <ele>354.92</ele>
        <time>2025-03-12T08:40:10.534Z</time>
      </trkpt>
      <trkpt lat="48.00568" lon="5.05613">
        <ele>355.15</ele>
        <time>2025-03-12T08:40:10.818Z</time>
      </trkpt>
      <trkpt lat="48.00548" lon="5.05609">
        <ele>355.41</ele>
        <time>2025-03-12T08:40:11.105Z</time>
      </trkpt>
      <trkpt lat="48.00522" lon="5.05604">
        <ele>355.63</ele>
        <time>2025-03-12T08:40:11.396Z</time>
      </trkpt>
      <trkpt lat="48.00495" lon="5.05598">
        <ele>355.89</ele>
        <time>2025-03-12T08:40:11.692Z</time>
      </trkpt>
      <trkpt lat="48.00472" lon="5.05593">
        <ele>356.1</ele>
        <time>2025-03-12T08:40:11.991Z</time>
      </trkpt>
      <trkpt lat="48.00448" lon="5.05589">
        <ele>356.28</ele>
        <time>2025-03-12T08:40:12.294Z</time>
      </trkpt>
      <trkpt lat="48.00421" lon="5.05583">
        <ele>356.53</ele>
        <time>2025-03-12T08:40:12.602Z</time>
      </trkpt>
      <trkpt lat="48.00394" lon="5.05577">
        <ele>356.74</ele>
        <time>2025-03-12T08:40:12.914Z</time>
      </trkpt>
      <trkpt lat="48.00388" lon="5.05576">
        <ele>356.93</ele>
        <time>2025-03-12T08:40:13.227Z</time>
      </trkpt>
      <trkpt lat="48.00359" lon="5.0557">
        <ele>357.12</ele>
        <time>2025-03-12T08:40:13.545Z</time>
      </trkpt>
      <trkpt lat="48.00331" lon="5.05564">
        <ele>357.31</ele>
        <time>2025-03-12T08:40:13.867Z</time>
      </trkpt>
      <trkpt lat="48.00302" lon="5.05558">
        <ele>357.55</ele>
        <time>2025-03-12T08:40:14.194Z</time>
      </trkpt>
      <trkpt lat="48.00273" lon="5.05553">
        <ele>357.74</ele>
        <time>2025-03-12T08:40:14.525Z</time>
      </trkpt>
      <trkpt lat="48.00246" lon="5.05547">
        <ele>357.86</ele>
        <time>2025-03-12T08:40:14.861Z</time>
      </trkpt>
      <trkpt lat="48.00218" lon="5.05541">
        <ele>357.96</ele>
        <time>2025-03-12T08:40:15.201Z</time>
      </trkpt>
      <trkpt lat="48.0019" lon="5.05535">
        <ele>358.1</ele>
        <time>2025-03-12T08:40:15.546Z</time>
      </trkpt>
      <trkpt lat="48.00161" lon="5.0553">
        <ele>358.25</ele>
        <time>2025-03-12T08:40:15.896Z</time>
      </trkpt>
      <trkpt lat="48.00154" lon="5.05528">
        <ele>358.43</ele>
        <time>2025-03-12T08:40:16.247Z</time>
      </trkpt>
      <trkpt lat="48.00126" lon="5.05522">
        <ele>358.6</ele>
        <time>2025-03-12T08:40:16.602Z</time>
      </trkpt>
      <trkpt lat="48.00098" lon="5.05516">
        <ele>358.85</ele>
        <time>2025-03-12T08:40:16.962Z</time>
      </trkpt>
      <trkpt lat="48.00071" lon="5.05511">
        <ele>359.17</ele>
        <time>2025-03-12T08:40:17.326Z</time>
      </trkpt>
      <trkpt lat="48.00044" lon="5.05505">
        <ele>359.45</ele>
        <time>2025-03-12T08:40:17.695Z</time>
      </trkpt>
      <trkpt lat="48.0003" lon="5.05503">
        <ele>359.7</ele>
        <time>2025-03-12T08:40:18.066Z</time>
      </trkpt>
      <trkpt lat="48.00002" lon="5.05497">
        <ele>359.86</ele>
        <time>2025-03-12T08:40:18.441Z</time>
      </trkpt>
      <trkpt lat="47.99974" lon="5.05491">
        <ele>360.17</ele>
        <time>2025-03-12T08:40:18.821Z</time>
      </trkpt>
      <trkpt lat="47.99967" lon="5.0549">
        <ele>360.46</ele>
        <time>2025-03-12T08:40:19.202Z</time>
      </trkpt>
      <trkpt lat="47.99947" lon="5.05484">
        <ele>360.78</ele>
        <time>2025-03-12T08:40:19.586Z</time>
      </trkpt>
      <trkpt lat="47.99926" lon="5.05479">
        <ele>361.11</ele>
        <time>2025-03-12T08:40:19.974Z</time>
      </trkpt>
      <trkpt lat="47.99909" lon="5.05471">
        <ele>361.52</ele>
        <time>2025-03-12T08:40:20.365Z</time>
      </trkpt>
      <trkpt lat="47.99891" lon="5.05462">
        <ele>361.95</ele>
        <time>2025-03-12T08:40:20.758Z</time>
      </trkpt>
      <trkpt lat="47.99884" lon="5.05459">
        <ele>362.32</ele>
        <time>2025-03-12T08:40:21.153Z</time>
      </trkpt>
      <trkpt lat="47.99864" lon="5.05449">
        <ele>362.71</ele>
        <time>2025-03-12T08:40:21.551Z</time>
      </trkpt>
      <trkpt lat="47.99844" lon="5.05439">
        <ele>363.06</ele>
        <time>2025-03-12T08:40:21.952Z</time>
      </trkpt>
      <trkpt lat="47.99824" lon="5.0543">
        <ele>363.28</ele>
        <time>2025-03-12T08:40:22.357Z</time>
      </trkpt>
      <trkpt lat="47.99804" lon="5.0542">
        <ele>363.54</ele>
        <time>2025-03-12T08:40:22.765Z</time>
      </trkpt>
      <trkpt lat="47.99784" lon="5.0541">
        <ele>363.83</ele>
        <time>2025-03-12T08:40:23.176Z</time>
      </trkpt>
      <trkpt lat="47.99764" lon="5.054">
        <ele>364.17</ele>
        <time>2025-03-12T08:40:23.591Z</time>
      </trkpt>
      <trkpt lat="47.99748" lon="5.05392">
        <ele>364.45</ele>
        <time>2025-03-12T08:40:24.009Z</time>
      </trkpt>
      <trkpt lat="47.99731" lon="5.05384">
        <ele>364.72</ele>
        <time>2025-03-12T08:40:24.429Z</time>
      </trkpt>
      <trkpt lat="47.99705" lon="5.05371">
        <ele>364.91</ele>
        <time>2025-03-12T08:40:24.854Z</time>
      </trkpt>
      <trkpt lat="47.99679" lon="5.05358">
        <ele>365.12</ele>
        <time>2025-03-12T08:40:25.283Z</time>
      </trkpt>
      <trkpt lat="47.99666" lon="5.05351">
        <ele>365.38</ele>
        <time>2025-03-12T08:40:25.714Z</time>
      </trkpt>
      <trkpt lat="47.99646" lon="5.0534">
        <ele>365.64</ele>
        <time>2025-03-12T08:40:26.149Z</time>
      </trkpt>
      <trkpt lat="47.99625" lon="5.05329">
        <ele>365.92</ele>
        <time>2025-03-12T08:40:26.587Z</time>
      </trkpt>
      <trkpt lat="47.99604" lon="5.05317">
        <ele>366.17</ele>
        <time>2025-03-12T08:40:27.029Z</time>
      </trkpt>
      <trkpt lat="47.99578" lon="5.05303">
        <ele>366.46</ele>
        <time>2025-03-12T08:40:27.475Z</time>
      </trkpt>
      <trkpt lat="47.99553" lon="5.05288">
        <ele>366.74</ele>
        <time>2025-03-12T08:40:27.926Z</time>
      </trkpt>
      <trkpt lat="47.99528" lon="5.05274">
        <ele>367.01</ele>
        <time>2025-03-12T08:40:28.381Z</time>
      </trkpt>
      <trkpt lat="47.99503" lon="5.0526">
        <ele>367.31</ele>
        <time>2025-03-12T08:40:28.840Z</time>
      </trkpt>
      <trkpt lat="47.99479" lon="5.05247">
        <ele>367.66</ele>
        <time>2025-03-12T08:40:29.303Z</time>
      </trkpt>
      <trkpt lat="47.99455" lon="5.05234">
        <ele>367.99</ele>
        <time>2025-03-12T08:40:29.771Z</time>
      </trkpt>
      <trkpt lat="47.99436" lon="5.05223">
        <ele>368.35</ele>
        <time>2025-03-12T08:40:30.242Z</time>
      </trkpt>
      <trkpt lat="47.99416" lon="5.05212">
        <ele>368.69</ele>
        <time>2025-03-12T08:40:30.716Z</time>
      </trkpt>
      <trkpt lat="47.9941" lon="5.05209">
        <ele>369.03</ele>
        <time>2025-03-12T08:40:31.191Z</time>
      </trkpt>
      <trkpt lat="47.99393" lon="5.05199">
        <ele>369.4</ele>
        <time>2025-03-12T08:40:31.669Z</time>
      </trkpt>
      <trkpt lat="47.99375" lon="5.05189">
        <ele>369.78</ele>
        <time>2025-03-12T08:40:32.150Z</time>
      </trkpt>
      <trkpt lat="47.99358" lon="5.0518">
        <ele>370.18</ele>
        <time>2025-03-12T08:40:32.634Z</time>
      </trkpt>
      <trkpt lat="47.99343" lon="5.05171">
        <ele>370.54</ele>
        <time>2025-03-12T08:40:33.121Z</time>
      </trkpt>
      <trkpt lat="47.99328" lon="5.05163">
        <ele>370.86</ele>
        <time>2025-03-12T08:40:33.610Z</time>
      </trkpt>
      <trkpt lat="47.99308" lon="5.05152">
        <ele>371.16</ele>
        <time>2025-03-12T08:40:34.103Z</time>
      </trkpt>
      <trkpt lat="47.99303" lon="5.05149">
        <ele>371.41</ele>
        <time>2025-03-12T08:40:34.596Z</time>
      </trkpt>
      <trkpt lat="47.99294" lon="5.05144">
        <ele>371.64</ele>
        <time>2025-03-12T08:40:35.091Z</time>
      </trkpt>
      <trkpt lat="47.99289" lon="5.05141">
        <ele>371.84</ele>
        <time>2025-03-12T08:40:35.587Z</time>
      </trkpt>
      <trkpt lat="47.99284" lon="5.05139">
        <ele>372.01</ele>
        <time>2025-03-12T08:40:36.084Z</time>
      </trkpt>
      <trkpt lat="47.99263" lon="5.05127">
        <ele>372.16</ele>
        <time>2025-03-12T08:40:36.584Z</time>
      </trkpt>
      <trkpt lat="47.99241" lon="5.05115">
        <ele>372.31</ele>
        <time>2025-03-12T08:40:37.088Z</time>
      </trkpt>
      <trkpt lat="47.99236" lon="5.05112">
        <ele>372.39</ele>
        <time>2025-03-12T08:40:37.593Z</time>
      </trkpt>
      <trkpt lat="47.9922" lon="5.05103">
        <ele>372.46</ele>
        <time>2025-03-12T08:40:38.101Z</time>
      </trkpt>
      <trkpt lat="47.992" lon="5.05091">
        <ele>372.49</ele>
        <time>2025-03-12T08:40:38.612Z</time>
      </trkpt>
      <trkpt lat="47.99185" lon="5.05083">
        <ele>372.48</ele>
        <time>2025-03-12T08:40:39.126Z</time>
      </trkpt>
      <trkpt lat="47.9917" lon="5.05075">
        <ele>372.39</ele>
        <time>2025-03-12T08:40:39.642Z</time>
      </trkpt>
      <trkpt lat="47.99146" lon="5.05059">
        <ele>372.24</ele>
        <time>2025-03-12T08:40:40.162Z</time>
      </trkpt>
      <trkpt lat="47.99123" lon="5.05044">
        <ele>372.04</ele>
        <time>2025-03-12T08:40:40.687Z</time>
      </trkpt>
      <trkpt lat="47.99099" lon="5.05025">
        <ele>371.87</ele>
        <time>2025-03-12T08:40:41.216Z</time>
      </trkpt>
      <trkpt lat="47.99074" lon="5.05003">
        <ele>371.73</ele>
        <time>2025-03-12T08:40:41.750Z</time>
      </trkpt>
      <trkpt lat="47.99048" lon="5.04982">
        <ele>371.53</ele>
        <time>2025-03-12T08:40:42.288Z</time>
      </trkpt>
      <trkpt lat="47.99025" lon="5.04961">
        <ele>371.31</ele>
        <time>2025-03-12T08:40:42.830Z</time>
      </trkpt>
      <trkpt lat="47.99003" lon="5.04941">
        <ele>371.04</ele>
        <time>2025-03-12T08:40:43.377Z</time>
      </trkpt>
      <trkpt lat="47.9898" lon="5.04918">
        <ele>370.76</ele>
        <time>2025-03-12T08:40:43.928Z</time>
      </trkpt>
      <trkpt lat="47.98958" lon="5.04895">
        <ele>370.53</ele>
        <time>2025-03-12T08:40:44.483Z</time>
      </trkpt>
      <trkpt lat="47.98934" lon="5.04871">
        <ele>370.32</ele>
        <time>2025-03-12T08:40:45.043Z</time>
      </trkpt>
      <trkpt lat="47.98911" lon="5.04848">
        <ele>370.1</ele>
        <time>2025-03-12T08:40:45.608Z</time>
      </trkpt>
      <trkpt lat="47.98904" lon="5.04841">
        <ele>369.86</ele>
        <time>2025-03-12T08:40:46.174Z</time>
      </trkpt>
      <trkpt lat="47.98887" lon="5.04824">
        <ele>369.6</ele>
        <time>2025-03-12T08:40:46.743Z</time>
      </trkpt>
      <trkpt lat="47.98871" lon="5.04808">
        <ele>369.35</ele>
        <time>2025-03-12T08:40:47.315Z</time>
      </trkpt>
      <trkpt lat="47.9885" lon="5.04787">
        <ele>369.08</ele>
        <time>2025-03-12T08:40:47.891Z</time>
      </trkpt>
      <trkpt lat="47.9883" lon="5.04766">
        <ele>368.81</ele>
        <time>2025-03-12T08:40:48.471Z</time>
      </trkpt>
      <trkpt lat="47.98811" lon="5.04748">
        <ele>368.6</ele>
        <time>2025-03-12T08:40:49.055Z</time>
      </trkpt>
      <trkpt lat="47.98793" lon="5.04729">
        <ele>368.44</ele>
        <time>2025-03-12T08:40:49.642Z</time>
      </trkpt>
      <trkpt lat="47.98774" lon="5.0471">
        <ele>368.31</ele>
        <time>2025-03-12T08:40:50.233Z</time>
      </trkpt>
      <trkpt lat="47.98768" lon="5.04704">
        <ele>368.28</ele>
        <time>2025-03-12T08:40:50.825Z</time>
      </trkpt>
      <trkpt lat="47.98756" lon="5.04692">
        <ele>368.28</ele>
        <time>2025-03-12T08:40:51.419Z</time>
      </trkpt>
      <trkpt lat="47.9873" lon="5.04667">
        <ele>368.33</ele>
        <time>2025-03-12T08:40:52.018Z</time>
      </trkpt>
      <trkpt lat="47.9871" lon="5.04653">
        <ele>368.5</ele>
        <time>2025-03-12T08:40:52.621Z</time>
      </trkpt>
      <trkpt lat="47.98687" lon="5.04636">
        <ele>368.79</ele>
        <time>2025-03-12T08:40:53.228Z</time>
      </trkpt>
      <trkpt lat="47.98663" lon="5.04619">
        <ele>369.18</ele>
        <time>2025-03-12T08:40:53.839Z</time>
      </trkpt>
      <trkpt lat="47.98644" lon="5.04606">
        <ele>369.57</ele>
        <time>2025-03-12T08:40:54.454Z</time>
      </trkpt>
      <trkpt lat="47.98625" lon="5.04592">
        <ele>369.98</ele>
        <time>2025-03-12T08:40:55.072Z</time>
      </trkpt>
      <trkpt lat="47.986" lon="5.04574">
        <ele>370.35</ele>
        <time>2025-03-12T08:40:55.694Z</time>
      </trkpt>
      <trkpt lat="47.98582" lon="5.04562">
        <ele>370.7</ele>
        <time>2025-03-12T08:40:56.320Z</time>
      </trkpt>
      <trkpt lat="47.98564" lon="5.04549">
        <ele>371.02</ele>
        <time>2025-03-12T08:40:56.949Z</time>
      </trkpt>
      <trkpt lat="47.98546" lon="5.04536">
        <ele>371.31</ele>
        <time>2025-03-12T08:40:57.581Z</time>
      </trkpt>
      <trkpt lat="47.98528" lon="5.04523">
        <ele>371.66</ele>
        <time>2025-03-12T08:40:58.216Z</time>
      </trkpt>
      <trkpt lat="47.98508" lon="5.04503">
        <ele>372.12</ele>
        <time>2025-03-12T08:40:58.855Z</time>
      </trkpt>
      <trkpt lat="47.98489" lon="5.04483">
        <ele>372.66</ele>
        <time>2025-03-12T08:40:59.498Z</time>
      </trkpt>
      <trkpt lat="47.98474" lon="5.04465">
        <ele>373.16</ele>
        <time>2025-03-12T08:41:00.144Z</time>
      </trkpt>
      <trkpt lat="47.98469" lon="5.04459">
        <ele>373.54</ele>
        <time>2025-03-12T08:41:00.791Z</time>
      </trkpt>
      <trkpt lat="47.98455" lon="5.04442">
        <ele>373.91</ele>
        <time>2025-03-12T08:41:01.441Z</time>
      </trkpt>
      <trkpt lat="47.98442" lon="5.04425">
        <ele>374.18</ele>
        <time>2025-03-12T08:41:02.094Z</time>
      </trkpt>
      <trkpt lat="47.98436" lon="5.04418">
        <ele>374.4</ele>
        <time>2025-03-12T08:41:02.748Z</time>
      </trkpt>
      <trkpt lat="47.98412" lon="5.04389">
        <ele>374.51</ele>
        <time>2025-03-12T08:41:03.407Z</time>
      </trkpt>
      <trkpt lat="47.98395" lon="5.04367">
        <ele>374.59</ele>
        <time>2025-03-12T08:41:04.069Z</time>
      </trkpt>
      <trkpt lat="47.98378" lon="5.04346">
        <ele>374.66</ele>
        <time>2025-03-12T08:41:04.735Z</time>
      </trkpt>
      <trkpt lat="47.98356" lon="5.04319">
        <ele>374.63</ele>
        <time>2025-03-12T08:41:05.405Z</time>
      </trkpt>
      <trkpt lat="47.98335" lon="5.04293">
        <ele>374.56</ele>
        <time>2025-03-12T08:41:06.080Z</time>
      </trkpt>
      <trkpt lat="47.98313" lon="5.04266">
        <ele>374.57</ele>
        <time>2025-03-12T08:41:06.759Z</time>
      </trkpt>
      <trkpt lat="47.98297" lon="5.04246">
        <ele>374.46</ele>
        <time>2025-03-12T08:41:07.442Z</time>
      </trkpt>
      <trkpt lat="47.98286" lon="5.04232">
        <ele>374.27</ele>
        <time>2025-03-12T08:41:08.127Z</time>
      </trkpt>
      <trkpt lat="47.98274" lon="5.04218">
        <ele>373.98</ele>
        <time>2025-03-12T08:41:08.814Z</time>
      </trkpt>
      <trkpt lat="47.98268" lon="5.0421">
        <ele>373.69</ele>
        <time>2025-03-12T08:41:09.503Z</time>
      </trkpt>
      <trkpt lat="47.98248" lon="5.04185">
        <ele>373.34</ele>
        <time>2025-03-12T08:41:10.196Z</time>
      </trkpt>
      <trkpt lat="47.98227" lon="5.04159">
        <ele>373.02</ele>
        <time>2025-03-12T08:41:10.893Z</time>
      </trkpt>
      <trkpt lat="47.98213" lon="5.04148">
        <ele>372.66</ele>
        <time>2025-03-12T08:41:11.593Z</time>
      </trkpt>
      <trkpt lat="47.9819" lon="5.04133">
        <ele>372.17</ele>
        <time>2025-03-12T08:41:12.297Z</time>
      </trkpt>
      <trkpt lat="47.98176" lon="5.04123">
        <ele>371.69</ele>
        <time>2025-03-12T08:41:13.003Z</time>
      </trkpt>
      <trkpt lat="47.98161" lon="5.04113">
        <ele>371.23</ele>
        <time>2025-03-12T08:41:13.712Z</time>
      </trkpt>
      <trkpt lat="47.98154" lon="5.04108">
        <ele>370.77</ele>
        <time>2025-03-12T08:41:14.422Z</time>
      </trkpt>
      <trkpt lat="47.98126" lon="5.0409">
        <ele>370.31</ele>
        <time>2025-03-12T08:41:15.137Z</time>
      </trkpt>
      <trkpt lat="47.98104" lon="5.04075">
        <ele>369.89</ele>
        <time>2025-03-12T08:41:15.856Z</time>
      </trkpt>
      <trkpt lat="47.98088" lon="5.04064">
        <ele>369.38</ele>
        <time>2025-03-12T08:41:16.578Z</time>
      </trkpt>
      <trkpt lat="47.98072" lon="5.04053">
        <ele>368.82</ele>
        <time>2025-03-12T08:41:17.303Z</time>
      </trkpt>
      <trkpt lat="47.98048" lon="5.04037">
        <ele>368.23</ele>
        <time>2025-03-12T08:41:18.032Z</time>
      </trkpt>
      <trkpt lat="47.9804" lon="5.04032">
        <ele>367.64</ele>
        <time>2025-03-12T08:41:18.762Z</time>
      </trkpt>
      <trkpt lat="47.98019" lon="5.04023">
        <ele>366.93</ele>
        <time>2025-03-12T08:41:19.496Z</time>
      </trkpt>
      <trkpt lat="47.97996" lon="5.04014">
        <ele>366.23</ele>
        <time>2025-03-12T08:41:20.233Z</time>
      </trkpt>
      <trkpt lat="47.97968" lon="5.04004">
        <ele>365.5</ele>
        <time>2025-03-12T08:41:20.975Z</time>
      </trkpt>
      <trkpt lat="47.9794" lon="5.03994">
        <ele>364.73</ele>
        <time>2025-03-12T08:41:21.722Z</time>
      </trkpt>
      <trkpt lat="47.97918" lon="5.03981">
        <ele>364</ele>
        <time>2025-03-12T08:41:22.473Z</time>
      </trkpt>
      <trkpt lat="47.97895" lon="5.03969">
        <ele>363.27</ele>
        <time>2025-03-12T08:41:23.227Z</time>
      </trkpt>
      <trkpt lat="47.9787" lon="5.03945">
        <ele>362.46</ele>
        <time>2025-03-12T08:41:23.986Z</time>
      </trkpt>
      <trkpt lat="47.97845" lon="5.03922">
        <ele>361.58</ele>
        <time>2025-03-12T08:41:24.750Z</time>
      </trkpt>
      <trkpt lat="47.97828" lon="5.03897">
        <ele>360.73</ele>
        <time>2025-03-12T08:41:25.518Z</time>
      </trkpt>
      <trkpt lat="47.97811" lon="5.03873">
        <ele>359.77</ele>
        <time>2025-03-12T08:41:26.289Z</time>
      </trkpt>
      <trkpt lat="47.97792" lon="5.03837">
        <ele>358.79</ele>
        <time>2025-03-12T08:41:27.065Z</time>
      </trkpt>
      <trkpt lat="47.97772" lon="5.03802">
        <ele>357.8</ele>
        <time>2025-03-12T08:41:27.846Z</time>
      </trkpt>
      <trkpt lat="47.9776" lon="5.03779">
        <ele>356.76</ele>
        <time>2025-03-12T08:41:28.630Z</time>
      </trkpt>
      <trkpt lat="47.97747" lon="5.03756">
        <ele>355.69</ele>
        <time>2025-03-12T08:41:29.418Z</time>
      </trkpt>
      <trkpt lat="47.97734" lon="5.03732">
        <ele>354.59</ele>
        <time>2025-03-12T08:41:30.209Z</time>
      </trkpt>
      <trkpt lat="47.97721" lon="5.03708">
        <ele>353.36</ele>
        <time>2025-03-12T08:41:31.003Z</time>
      </trkpt>
      <trkpt lat="47.97708" lon="5.03683">
        <ele>352.07</ele>
        <time>2025-03-12T08:41:31.801Z</time>
      </trkpt>
      <trkpt lat="47.97694" lon="5.03659">
        <ele>350.73</ele>
        <time>2025-03-12T08:41:32.602Z</time>
      </trkpt>
      <trkpt lat="47.97687" lon="5.03646">
        <ele>349.37</ele>
        <time>2025-03-12T08:41:33.405Z</time>
      </trkpt>
      <trkpt lat="47.97672" lon="5.03618">
        <ele>347.94</ele>
        <time>2025-03-12T08:41:34.212Z</time>
      </trkpt>
      <trkpt lat="47.97657" lon="5.0359">
        <ele>346.42</ele>
        <time>2025-03-12T08:41:35.023Z</time>
      </trkpt>
      <trkpt lat="47.97642" lon="5.03563">
        <ele>344.86</ele>
        <time>2025-03-12T08:41:35.837Z</time>
      </trkpt>
      <trkpt lat="47.97634" lon="5.03549">
        <ele>343.28</ele>
        <time>2025-03-12T08:41:36.653Z</time>
      </trkpt>
      <trkpt lat="47.97619" lon="5.0352">
        <ele>341.62</ele>
        <time>2025-03-12T08:41:37.473Z</time>
      </trkpt>
      <trkpt lat="47.97603" lon="5.03492">
        <ele>339.87</ele>
        <time>2025-03-12T08:41:38.297Z</time>
      </trkpt>
      <trkpt lat="47.97581" lon="5.03461">
        <ele>338.2</ele>
        <time>2025-03-12T08:41:39.126Z</time>
      </trkpt>
      <trkpt lat="47.97558" lon="5.03431">
        <ele>336.6</ele>
        <time>2025-03-12T08:41:39.960Z</time>
      </trkpt>
      <trkpt lat="47.97537" lon="5.03401">
        <ele>334.93</ele>
        <time>2025-03-12T08:41:40.799Z</time>
      </trkpt>
      <trkpt lat="47.97515" lon="5.03371">
        <ele>333.31</ele>
        <time>2025-03-12T08:41:41.642Z</time>
      </trkpt>
      <trkpt lat="47.97499" lon="5.03334">
        <ele>331.6</ele>
        <time>2025-03-12T08:41:42.490Z</time>
      </trkpt>
      <trkpt lat="47.97483" lon="5.03296">
        <ele>329.99</ele>
        <time>2025-03-12T08:41:43.343Z</time>
      </trkpt>
      <trkpt lat="47.97467" lon="5.03259">
        <ele>328.52</ele>
        <time>2025-03-12T08:41:44.201Z</time>
      </trkpt>
      <trkpt lat="47.97451" lon="5.03221">
        <ele>327.06</ele>
        <time>2025-03-12T08:41:45.064Z</time>
      </trkpt>
      <trkpt lat="47.97442" lon="5.03199">
        <ele>325.73</ele>
        <time>2025-03-12T08:41:45.929Z</time>
      </trkpt>
      <trkpt lat="47.97432" lon="5.03177">
        <ele>324.47</ele>
        <time>2025-03-12T08:41:46.797Z</time>
      </trkpt>
      <trkpt lat="47.97415" lon="5.03143">
        <ele>323.27</ele>
        <time>2025-03-12T08:41:47.670Z</time>
      </trkpt>
      <trkpt lat="47.97398" lon="5.0311">
        <ele>322.22</ele>
        <time>2025-03-12T08:41:48.547Z</time>
      </trkpt>
      <trkpt lat="47.9738" lon="5.03086">
        <ele>321.34</ele>
        <time>2025-03-12T08:41:49.428Z</time>
      </trkpt>
      <trkpt lat="47.97361" lon="5.03061">
        <ele>320.62</ele>
        <time>2025-03-12T08:41:50.313Z</time>
      </trkpt>
      <trkpt lat="47.97345" lon="5.03047">
        <ele>320.07</ele>
        <time>2025-03-12T08:41:51.201Z</time>
      </trkpt>
      <trkpt lat="47.97328" lon="5.03032">
        <ele>319.8</ele>
        <time>2025-03-12T08:41:52.092Z</time>
      </trkpt>
      <trkpt lat="47.97304" lon="5.0302">
        <ele>319.8</ele>
        <time>2025-03-12T08:41:52.987Z</time>
      </trkpt>
      <trkpt lat="47.97279" lon="5.03007">
        <ele>319.97</ele>
        <time>2025-03-12T08:41:53.887Z</time>
      </trkpt>
      <trkpt lat="47.97249" lon="5.02998">
        <ele>320.24</ele>
        <time>2025-03-12T08:41:54.791Z</time>
      </trkpt>
      <trkpt lat="47.97231" lon="5.02993">
        <ele>320.55</ele>
        <time>2025-03-12T08:41:55.698Z</time>
      </trkpt>
      <trkpt lat="47.97212" lon="5.02987">
        <ele>320.97</ele>
        <time>2025-03-12T08:41:56.608Z</time>
      </trkpt>
      <trkpt lat="47.97195" lon="5.02983">
        <ele>321.48</ele>
        <time>2025-03-12T08:41:57.521Z</time>
      </trkpt>
      <trkpt lat="47.97178" lon="5.02979">
        <ele>322.08</ele>
        <time>2025-03-12T08:41:58.437Z</time>
      </trkpt>
      <trkpt lat="47.9716" lon="5.02982">
        <ele>322.74</ele>
        <time>2025-03-12T08:41:59.356Z</time>
      </trkpt>
      <trkpt lat="47.97141" lon="5.02984">
        <ele>323.54</ele>
        <time>2025-03-12T08:42:00.278Z</time>
      </trkpt>
      <trkpt lat="47.9711" lon="5.02988">
        <ele>324.48</ele>
        <time>2025-03-12T08:42:01.205Z</time>
      </trkpt>
      <trkpt lat="47.97106" lon="5.02989">
        <ele>325.4</ele>
        <time>2025-03-12T08:42:02.133Z</time>
      </trkpt>
      <trkpt lat="47.97088" lon="5.02991">
        <ele>326.4</ele>
        <time>2025-03-12T08:42:03.063Z</time>
      </trkpt>
      <trkpt lat="47.9707" lon="5.02993">
        <ele>327.41</ele>
        <time>2025-03-12T08:42:03.996Z</time>
      </trkpt>
      <trkpt lat="47.9704" lon="5.02983">
        <ele>328.56</ele>
        <time>2025-03-12T08:42:04.934Z</time>
      </trkpt>
      <trkpt lat="47.97015" lon="5.02975">
        <ele>329.71</ele>
        <time>2025-03-12T08:42:05.876Z</time>
      </trkpt>
      <trkpt lat="47.96995" lon="5.02968">
        <ele>330.86</ele>
        <time>2025-03-12T08:42:06.822Z</time>
      </trkpt>
      <trkpt lat="47.9698" lon="5.0296">
        <ele>332.04</ele>
        <time>2025-03-12T08:42:07.770Z</time>
      </trkpt>
      <trkpt lat="47.96959" lon="5.02942">
        <ele>333.19</ele>
        <time>2025-03-12T08:42:08.722Z</time>
      </trkpt>
      <trkpt lat="47.96937" lon="5.02923">
        <ele>334.37</ele>
        <time>2025-03-12T08:42:09.678Z</time>
      </trkpt>
      <trkpt lat="47.96917" lon="5.02907">
        <ele>335.56</ele>
        <time>2025-03-12T08:42:10.638Z</time>
      </trkpt>
      <trkpt lat="47.96898" lon="5.02891">
        <ele>336.77</ele>
        <time>2025-03-12T08:42:11.601Z</time>
      </trkpt>
      <trkpt lat="47.96876" lon="5.02873">
        <ele>337.95</ele>
        <time>2025-03-12T08:42:12.568Z</time>
      </trkpt>
      <trkpt lat="47.96856" lon="5.0286">
        <ele>339.1</ele>
        <time>2025-03-12T08:42:13.539Z</time>
      </trkpt>
      <trkpt lat="47.96836" lon="5.02847">
        <ele>340.24</ele>
        <time>2025-03-12T08:42:14.513Z</time>
      </trkpt>
      <trkpt lat="47.9681" lon="5.02831">
        <ele>341.4</ele>
        <time>2025-03-12T08:42:15.492Z</time>
      </trkpt>
      <trkpt lat="47.96783" lon="5.02813">
        <ele>342.53</ele>
        <time>2025-03-12T08:42:16.476Z</time>
      </trkpt>
      <trkpt lat="47.96763" lon="5.02801">
        <ele>343.62</ele>
        <time>2025-03-12T08:42:17.463Z</time>
      </trkpt>
      <trkpt lat="47.96738" lon="5.02784">
        <ele>344.69</ele>
        <time>2025-03-12T08:42:18.454Z</time>
      </trkpt>
      <trkpt lat="47.96712" lon="5.02767">
        <ele>345.77</ele>
        <time>2025-03-12T08:42:19.450Z</time>
      </trkpt>
      <trkpt lat="47.96686" lon="5.02751">
        <ele>346.81</ele>
        <time>2025-03-12T08:42:20.450Z</time>
      </trkpt>
      <trkpt lat="47.96657" lon="5.02732">
        <ele>347.82</ele>
        <time>2025-03-12T08:42:21.455Z</time>
      </trkpt>
      <trkpt lat="47.96641" lon="5.02716">
        <ele>348.71</ele>
        <time>2025-03-12T08:42:22.464Z</time>
      </trkpt>
      <trkpt lat="47.96625" lon="5.027">
        <ele>349.54</ele>
        <time>2025-03-12T08:42:23.476Z</time>
      </trkpt>
      <trkpt lat="47.96611" lon="5.02684">
        <ele>350.29</ele>
        <time>2025-03-12T08:42:24.490Z</time>
      </trkpt>
      <trkpt lat="47.96597" lon="5.02669">
        <ele>350.96</ele>
        <time>2025-03-12T08:42:25.507Z</time>
      </trkpt>
      <trkpt lat="47.9658" lon="5.0265">
        <ele>351.57</ele>
        <time>2025-03-12T08:42:26.528Z</time>
      </trkpt>
      <trkpt lat="47.96563" lon="5.02631">
        <ele>352.18</ele>
        <time>2025-03-12T08:42:27.552Z</time>
      </trkpt>
      <trkpt lat="47.96547" lon="5.02614">
        <ele>352.77</ele>
        <time>2025-03-12T08:42:28.579Z</time>
      </trkpt>
      <trkpt lat="47.96531" lon="5.02597">
        <ele>353.26</ele>
        <time>2025-03-12T08:42:29.609Z</time>
      </trkpt>
      <trkpt lat="47.96514" lon="5.02578">
        <ele>353.68</ele>
        <time>2025-03-12T08:42:30.643Z</time>
      </trkpt>
      <trkpt lat="47.96497" lon="5.02559">
        <ele>354.05</ele>
        <time>2025-03-12T08:42:31.680Z</time>
      </trkpt>
      <trkpt lat="47.96479" lon="5.0254">
        <ele>354.35</ele>
        <time>2025-03-12T08:42:32.721Z</time>
      </trkpt>
      <trkpt lat="47.96462" lon="5.0252">
        <ele>354.57</ele>
        <time>2025-03-12T08:42:33.765Z</time>
      </trkpt>
      <trkpt lat="47.96439" lon="5.02495">
        <ele>354.77</ele>
        <time>2025-03-12T08:42:34.814Z</time>
      </trkpt>
      <trkpt lat="47.96416" lon="5.0247">
        <ele>354.95</ele>
        <time>2025-03-12T08:42:35.867Z</time>
      </trkpt>
      <trkpt lat="47.96395" lon="5.0245">
        <ele>355.09</ele>
        <time>2025-03-12T08:42:36.924Z</time>
      </trkpt>
      <trkpt lat="47.96374" lon="5.02429">
        <ele>355.14</ele>
        <time>2025-03-12T08:42:37.985Z</time>
      </trkpt>
      <trkpt lat="47.96354" lon="5.02412">
        <ele>355.14</ele>
        <time>2025-03-12T08:42:39.050Z</time>
      </trkpt>
      <trkpt lat="47.96334" lon="5.02395">
        <ele>355.12</ele>
        <time>2025-03-12T08:42:40.119Z</time>
      </trkpt>
      <trkpt lat="47.96313" lon="5.02383">
        <ele>355.07</ele>
        <time>2025-03-12T08:42:41.191Z</time>
      </trkpt>
      <trkpt lat="47.96292" lon="5.0237">
        <ele>354.96</ele>
        <time>2025-03-12T08:42:42.267Z</time>
      </trkpt>
      <trkpt lat="47.96269" lon="5.0236">
        <ele>354.76</ele>
        <time>2025-03-12T08:42:43.347Z</time>
      </trkpt>
      <trkpt lat="47.96247" lon="5.02351">
        <ele>354.5</ele>
        <time>2025-03-12T08:42:44.431Z</time>
      </trkpt>
      <trkpt lat="47.9622" lon="5.02344">
        <ele>354.2</ele>
        <time>2025-03-12T08:42:45.519Z</time>
      </trkpt>
      <trkpt lat="47.96193" lon="5.02336">
        <ele>353.87</ele>
        <time>2025-03-12T08:42:46.611Z</time>
      </trkpt>
      <trkpt lat="47.96164" lon="5.02329">
        <ele>353.49</ele>
        <time>2025-03-12T08:42:47.708Z</time>
      </trkpt>
      <trkpt lat="47.96136" lon="5.02322">
        <ele>353.02</ele>
        <time>2025-03-12T08:42:48.810Z</time>
      </trkpt>
      <trkpt lat="47.96121" lon="5.02318">
        <ele>352.53</ele>
        <time>2025-03-12T08:42:49.914Z</time>
      </trkpt>
      <trkpt lat="47.96097" lon="5.02307">
        <ele>351.95</ele>
        <time>2025-03-12T08:42:51.022Z</time>
      </trkpt>
      <trkpt lat="47.96074" lon="5.02296">
        <ele>351.37</ele>
        <time>2025-03-12T08:42:52.134Z</time>
      </trkpt>
      <trkpt lat="47.9605" lon="5.02281">
        <ele>350.76</ele>
        <time>2025-03-12T08:42:53.250Z</time>
      </trkpt>
      <trkpt lat="47.96026" lon="5.02266">
        <ele>350.11</ele>
        <time>2025-03-12T08:42:54.370Z</time>
      </trkpt>
      <trkpt lat="47.96026" lon="5.02266">
        <ele>349.47</ele>
        <time>2025-03-12T08:42:55.490Z</time>
      </trkpt>
      <trkpt lat="47.96002" lon="5.02246">
        <ele>348.76</ele>
        <time>2025-03-12T08:42:56.615Z</time>
      </trkpt>
      <trkpt lat="47.95979" lon="5.02225">
        <ele>348.03</ele>
        <time>2025-03-12T08:42:57.744Z</time>
      </trkpt>
      <trkpt lat="47.95971" lon="5.02216">
        <ele>347.29</ele>
        <time>2025-03-12T08:42:58.874Z</time>
      </trkpt>
      <trkpt lat="47.95948" lon="5.02189">
        <ele>346.49</ele>
        <time>2025-03-12T08:43:00.009Z</time>
      </trkpt>
      <trkpt lat="47.95925" lon="5.02162">
        <ele>345.63</ele>
        <time>2025-03-12T08:43:01.149Z</time>
      </trkpt>
      <trkpt lat="47.95909" lon="5.02142">
        <ele>344.76</ele>
        <time>2025-03-12T08:43:02.292Z</time>
      </trkpt>
      <trkpt lat="47.95893" lon="5.02121">
        <ele>343.85</ele>
        <time>2025-03-12T08:43:03.439Z</time>
      </trkpt>
      <trkpt lat="47.95878" lon="5.02101">
        <ele>342.9</ele>
        <time>2025-03-12T08:43:04.589Z</time>
      </trkpt>
      <trkpt lat="47.95862" lon="5.0208">
        <ele>341.89</ele>
        <time>2025-03-12T08:43:05.742Z</time>
      </trkpt>
      <trkpt lat="47.95854" lon="5.02068">
        <ele>340.89</ele>
        <time>2025-03-12T08:43:06.897Z</time>
      </trkpt>
      <trkpt lat="47.95838" lon="5.02046">
        <ele>339.89</ele>
        <time>2025-03-12T08:43:08.056Z</time>
      </trkpt>
      <trkpt lat="47.95823" lon="5.02023">
        <ele>338.85</ele>
        <time>2025-03-12T08:43:09.218Z</time>
      </trkpt>
      <trkpt lat="47.95807" lon="5.02001">
        <ele>337.74</ele>
        <time>2025-03-12T08:43:10.384Z</time>
      </trkpt>
      <trkpt lat="47.95799" lon="5.0199">
        <ele>336.61</ele>
        <time>2025-03-12T08:43:11.551Z</time>
      </trkpt>
      <trkpt lat="47.95779" lon="5.01961">
        <ele>335.38</ele>
        <time>2025-03-12T08:43:12.723Z</time>
      </trkpt>
      <trkpt lat="47.95759" lon="5.01933">
        <ele>334.09</ele>
        <time>2025-03-12T08:43:13.899Z</time>
      </trkpt>
      <trkpt lat="47.95747" lon="5.01916">
        <ele>332.88</ele>
        <time>2025-03-12T08:43:15.078Z</time>
      </trkpt>
      <trkpt lat="47.95735" lon="5.01899">
        <ele>331.62</ele>
        <time>2025-03-12T08:43:16.259Z</time>
      </trkpt>
      <trkpt lat="47.95719" lon="5.01876">
        <ele>330.23</ele>
        <time>2025-03-12T08:43:17.444Z</time>
      </trkpt>
      <trkpt lat="47.95703" lon="5.01853">
        <ele>328.76</ele>
        <time>2025-03-12T08:43:18.633Z</time>
      </trkpt>
      <trkpt lat="47.95687" lon="5.0183">
        <ele>327.28</ele>
        <time>2025-03-12T08:43:19.825Z</time>
      </trkpt>
      <trkpt lat="47.95679" lon="5.01819">
        <ele>325.82</ele>
        <time>2025-03-12T08:43:21.019Z</time>
      </trkpt>
      <trkpt lat="47.95658" lon="5.01794">
        <ele>324.3</ele>
        <time>2025-03-12T08:43:22.217Z</time>
      </trkpt>
      <trkpt lat="47.95636" lon="5.0177">
        <ele>322.71</ele>
        <time>2025-03-12T08:43:23.420Z</time>
      </trkpt>
      <trkpt lat="47.95612" lon="5.01751">
        <ele>321.04</ele>
        <time>2025-03-12T08:43:24.627Z</time>
      </trkpt>
      <trkpt lat="47.95589" lon="5.01733">
        <ele>319.41</ele>
        <time>2025-03-12T08:43:25.838Z</time>
      </trkpt>
      <trkpt lat="47.95568" lon="5.01724">
        <ele>317.8</ele>
        <time>2025-03-12T08:43:27.053Z</time>
      </trkpt>
      <trkpt lat="47.95548" lon="5.01715">
        <ele>316.16</ele>
        <time>2025-03-12T08:43:28.271Z</time>
      </trkpt>
      <trkpt lat="47.95521" lon="5.01709">
        <ele>314.44</ele>
        <time>2025-03-12T08:43:29.493Z</time>
      </trkpt>
      <trkpt lat="47.95494" lon="5.01702">
        <ele>312.71</ele>
        <time>2025-03-12T08:43:30.720Z</time>
      </trkpt>
      <trkpt lat="47.95478" lon="5.01698">
        <ele>311.03</ele>
        <time>2025-03-12T08:43:31.949Z</time>
      </trkpt>
      <trkpt lat="47.95461" lon="5.01694">
        <ele>309.34</ele>
        <time>2025-03-12T08:43:33.181Z</time>
      </trkpt>
      <trkpt lat="47.95434" lon="5.01687">
        <ele>307.59</ele>
        <time>2025-03-12T08:43:34.417Z</time>
      </trkpt>
      <trkpt lat="47.95407" lon="5.01681">
        <ele>305.83</ele>
        <time>2025-03-12T08:43:35.658Z</time>
      </trkpt>
      <trkpt lat="47.95385" lon="5.01674">
        <ele>304.16</ele>
        <time>2025-03-12T08:43:36.902Z</time>
      </trkpt>
      <trkpt lat="47.95364" lon="5.01666">
        <ele>302.5</ele>
        <time>2025-03-12T08:43:38.150Z</time>
      </trkpt>
      <trkpt lat="47.95339" lon="5.01651">
        <ele>300.88</ele>
        <time>2025-03-12T08:43:39.402Z</time>
      </trkpt>
      <trkpt lat="47.95314" lon="5.01635">
        <ele>299.26</ele>
        <time>2025-03-12T08:43:40.659Z</time>
      </trkpt>
      <trkpt lat="47.95303" lon="5.01627">
        <ele>297.7</ele>
        <time>2025-03-12T08:43:41.917Z</time>
      </trkpt>
      <trkpt lat="47.95285" lon="5.01611">
        <ele>296.14</ele>
        <time>2025-03-12T08:43:43.179Z</time>
      </trkpt>
      <trkpt lat="47.95267" lon="5.01595">
        <ele>294.6</ele>
        <time>2025-03-12T08:43:44.444Z</time>
      </trkpt>
      <trkpt lat="47.95248" lon="5.01579">
        <ele>293.1</ele>
        <time>2025-03-12T08:43:45.713Z</time>
      </trkpt>
      <trkpt lat="47.95222" lon="5.01553">
        <ele>291.63</ele>
        <time>2025-03-12T08:43:46.987Z</time>
      </trkpt>
      <trkpt lat="47.95196" lon="5.01527">
        <ele>290.18</ele>
        <time>2025-03-12T08:43:48.266Z</time>
      </trkpt>
      <trkpt lat="47.95188" lon="5.01519">
        <ele>288.85</ele>
        <time>2025-03-12T08:43:49.546Z</time>
      </trkpt>
      <trkpt lat="47.95165" lon="5.01496">
        <ele>287.54</ele>
        <time>2025-03-12T08:43:50.831Z</time>
      </trkpt>
      <trkpt lat="47.95142" lon="5.01472">
        <ele>286.3</ele>
        <time>2025-03-12T08:43:52.120Z</time>
      </trkpt>
      <trkpt lat="47.95123" lon="5.01459">
        <ele>285.15</ele>
        <time>2025-03-12T08:43:53.412Z</time>
      </trkpt>
      <trkpt lat="47.95105" lon="5.01445">
        <ele>284.06</ele>
        <time>2025-03-12T08:43:54.708Z</time>
      </trkpt>
      <trkpt lat="47.95077" lon="5.01428">
        <ele>283.01</ele>
        <time>2025-03-12T08:43:56.009Z</time>
      </trkpt>
      <trkpt lat="47.95048" lon="5.01411">
        <ele>282.07</ele>
        <time>2025-03-12T08:43:57.315Z</time>
      </trkpt>
      <trkpt lat="47.9504" lon="5.01406">
        <ele>281.26</ele>
        <time>2025-03-12T08:43:58.622Z</time>
      </trkpt>
      <trkpt lat="47.95018" lon="5.01394">
        <ele>280.47</ele>
        <time>2025-03-12T08:43:59.933Z</time>
      </trkpt>
      <trkpt lat="47.94997" lon="5.01381">
        <ele>279.75</ele>
        <time>2025-03-12T08:44:01.247Z</time>
      </trkpt>
      <trkpt lat="47.94976" lon="5.01368">
        <ele>279.14</ele>
        <time>2025-03-12T08:44:02.565Z</time>
      </trkpt>
      <trkpt lat="47.94955" lon="5.01356">
        <ele>278.63</ele>
        <time>2025-03-12T08:44:03.887Z</time>
      </trkpt>
      <trkpt lat="47.94949" lon="5.01352">
        <ele>278.23</ele>
        <time>2025-03-12T08:44:05.210Z</time>
      </trkpt>
      <trkpt lat="47.94931" lon="5.01347">
        <ele>277.9</ele>
        <time>2025-03-12T08:44:06.536Z</time>
      </trkpt>
      <trkpt lat="47.94911" lon="5.01346">
        <ele>277.64</ele>
        <time>2025-03-12T08:44:07.865Z</time>
      </trkpt>
      <trkpt lat="47.94892" lon="5.01345">
        <ele>277.49</ele>
        <time>2025-03-12T08:44:09.197Z</time>
      </trkpt>
      <trkpt lat="47.94872" lon="5.01345">
        <ele>277.45</ele>
        <time>2025-03-12T08:44:10.532Z</time>
      </trkpt>
      <trkpt lat="47.94851" lon="5.01344">
        <ele>277.52</ele>
        <time>2025-03-12T08:44:11.870Z</time>
      </trkpt>
      <trkpt lat="47.94822" lon="5.01342">
        <ele>277.64</ele>
        <time>2025-03-12T08:44:13.213Z</time>
      </trkpt>
      <trkpt lat="47.94815" lon="5.01342">
        <ele>277.77</ele>
        <time>2025-03-12T08:44:14.557Z</time>
      </trkpt>
      <trkpt lat="47.94815" lon="5.01342">
        <ele>277.93</ele>
        <time>2025-03-12T08:44:15.901Z</time>
      </trkpt>
      <trkpt lat="47.94824" lon="5.01342">
        <ele>278.13</ele>
        <time>2025-03-12T08:44:17.247Z</time>
      </trkpt>
      <trkpt lat="47.94826" lon="5.01343">
        <ele>278.38</ele>
        <time>2025-03-12T08:44:18.593Z</time>
      </trkpt>
      <trkpt lat="47.94821" lon="5.01342">
        <ele>278.67</ele>
        <time>2025-03-12T08:44:19.940Z</time>
      </trkpt>
      <trkpt lat="47.94809" lon="5.01342">
        <ele>279</ele>
        <time>2025-03-12T08:44:21.289Z</time>
      </trkpt>
      <trkpt lat="47.948" lon="5.01341">
        <ele>279.35</ele>
        <time>2025-03-12T08:44:22.639Z</time>
      </trkpt>
      <trkpt lat="47.94798" lon="5.01341">
        <ele>279.69</ele>
        <time>2025-03-12T08:44:23.989Z</time>
      </trkpt>
      <trkpt lat="47.948" lon="5.0135">
        <ele>280.06</ele>
        <time>2025-03-12T08:44:25.340Z</time>
      </trkpt>
      <trkpt lat="47.94804" lon="5.01372">
        <ele>280.43</ele>
        <time>2025-03-12T08:44:26.694Z</time>
      </trkpt>
      <trkpt lat="47.94804" lon="5.01375">
        <ele>280.79</ele>
        <time>2025-03-12T08:44:28.048Z</time>
      </trkpt>
      <trkpt lat="47.94805" lon="5.01379">
        <ele>281.15</ele>
        <time>2025-03-12T08:44:29.403Z</time>
      </trkpt>
      <trkpt lat="47.94783" lon="5.01371">
        <ele>281.47</ele>
        <time>2025-03-12T08:44:30.761Z</time>
      </trkpt>
      <trkpt lat="47.94764" lon="5.01369">
        <ele>281.82</ele>
        <time>2025-03-12T08:44:32.122Z</time>
      </trkpt>
      <trkpt lat="47.94747" lon="5.01367">
        <ele>282.11</ele>
        <time>2025-03-12T08:44:33.486Z</time>
      </trkpt>
      <trkpt lat="47.94734" lon="5.01372">
        <ele>282.41</ele>
        <time>2025-03-12T08:44:34.852Z</time>
      </trkpt>
      <trkpt lat="47.94723" lon="5.01371">
        <ele>282.72</ele>
        <time>2025-03-12T08:44:36.220Z</time>
      </trkpt>
      <trkpt lat="47.94723" lon="5.01374">
        <ele>282.95</ele>
        <time>2025-03-12T08:44:37.588Z</time>
      </trkpt>
      <trkpt lat="47.94729" lon="5.01372">
        <ele>283.07</ele>
        <time>2025-03-12T08:44:38.957Z</time>
      </trkpt>
      <trkpt lat="47.94733" lon="5.01372">
        <ele>283.17</ele>
        <time>2025-03-12T08:44:40.327Z</time>
      </trkpt>
      <trkpt lat="47.94748" lon="5.01367">
        <ele>283.24</ele>
        <time>2025-03-12T08:44:41.699Z</time>
      </trkpt>
      <trkpt lat="47.94765" lon="5.01369">
        <ele>283.29</ele>
        <time>2025-03-12T08:44:43.074Z</time>
      </trkpt>
      <trkpt lat="47.94782" lon="5.01376">
        <ele>283.29</ele>
        <time>2025-03-12T08:44:44.452Z</time>
      </trkpt>
      <trkpt lat="47.94795" lon="5.01388">
        <ele>283.28</ele>
        <time>2025-03-12T08:44:45.832Z</time>
      </trkpt>
      <trkpt lat="47.94809" lon="5.01395">
        <ele>283.22</ele>
        <time>2025-03-12T08:44:47.215Z</time>
      </trkpt>
      <trkpt lat="47.94814" lon="5.0141">
        <ele>283.15</ele>
        <time>2025-03-12T08:44:48.599Z</time>
      </trkpt>
      <trkpt lat="47.94817" lon="5.0142">
        <ele>283.01</ele>
        <time>2025-03-12T08:44:49.985Z</time>
      </trkpt>
      <trkpt lat="47.94798" lon="5.01427">
        <ele>282.88</ele>
        <time>2025-03-12T08:44:51.374Z</time>
      </trkpt>
      <trkpt lat="47.94799" lon="5.01407">
        <ele>282.48</ele>
        <time>2025-03-12T08:44:52.765Z</time>
      </trkpt>
      <trkpt lat="47.94807" lon="5.01386">
        <ele>282.1</ele>
        <time>2025-03-12T08:44:54.159Z</time>
      </trkpt>
      <trkpt lat="47.94804" lon="5.01375">
        <ele>281.72</ele>
        <time>2025-03-12T08:44:55.554Z</time>
      </trkpt>
      <trkpt lat="47.94803" lon="5.01367">
        <ele>281.34</ele>
        <time>2025-03-12T08:44:56.950Z</time>
      </trkpt>
      <trkpt lat="47.94801" lon="5.01357">
        <ele>280.93</ele>
        <time>2025-03-12T08:44:58.347Z</time>
      </trkpt>
      <trkpt lat="47.94798" lon="5.0134">
        <ele>280.48</ele>
        <time>2025-03-12T08:44:59.746Z</time>
      </trkpt>
      <trkpt lat="47.94797" lon="5.0131">
        <ele>279.95</ele>
        <time>2025-03-12T08:45:01.148Z</time>
      </trkpt>
      <trkpt lat="47.94796" lon="5.01277">
        <ele>279.41</ele>
        <time>2025-03-12T08:45:02.554Z</time>
      </trkpt>
      <trkpt lat="47.94795" lon="5.01269">
        <ele>278.92</ele>
        <time>2025-03-12T08:45:03.960Z</time>
      </trkpt>
      <trkpt lat="47.94796" lon="5.01236">
        <ele>278.39</ele>
        <time>2025-03-12T08:45:05.370Z</time>
      </trkpt>
      <trkpt lat="47.94796" lon="5.01203">
        <ele>277.88</ele>
        <time>2025-03-12T08:45:06.783Z</time>
      </trkpt>
      <trkpt lat="47.94799" lon="5.01171">
        <ele>277.41</ele>
        <time>2025-03-12T08:45:08.200Z</time>
      </trkpt>
      <trkpt lat="47.94802" lon="5.01138">
        <ele>276.88</ele>
        <time>2025-03-12T08:45:09.620Z</time>
      </trkpt>
      <trkpt lat="47.94804" lon="5.01108">
        <ele>276.4</ele>
        <time>2025-03-12T08:45:11.044Z</time>
      </trkpt>
      <trkpt lat="47.94807" lon="5.01078">
        <ele>275.99</ele>
        <time>2025-03-12T08:45:12.471Z</time>
      </trkpt>
      <trkpt lat="47.94808" lon="5.01058">
        <ele>275.61</ele>
        <time>2025-03-12T08:45:13.900Z</time>
      </trkpt>
      <trkpt lat="47.94809" lon="5.01053">
        <ele>275.27</ele>
        <time>2025-03-12T08:45:15.330Z</time>
      </trkpt>
      <trkpt lat="47.94807" lon="5.01051">
        <ele>274.93</ele>
        <time>2025-03-12T08:45:16.760Z</time>
      </trkpt>
      <trkpt lat="47.94797" lon="5.0105">
        <ele>274.61</ele>
        <time>2025-03-12T08:45:18.192Z</time>
      </trkpt>
      <trkpt lat="47.94775" lon="5.01046">
        <ele>274.33</ele>
        <time>2025-03-12T08:45:19.627Z</time>
      </trkpt>
      <trkpt lat="47.94758" lon="5.01044">
        <ele>274.11</ele>
        <time>2025-03-12T08:45:21.065Z</time>
      </trkpt>
      <trkpt lat="47.94742" lon="5.01042">
        <ele>273.94</ele>
        <time>2025-03-12T08:45:22.505Z</time>
      </trkpt>
      <trkpt lat="47.94717" lon="5.01041">
        <ele>273.83</ele>
        <time>2025-03-12T08:45:23.949Z</time>
      </trkpt>
      <trkpt lat="47.94709" lon="5.01041">
        <ele>273.71</ele>
        <time>2025-03-12T08:45:25.395Z</time>
      </trkpt>
      <trkpt lat="47.94707" lon="5.01041">
        <ele>273.61</ele>
        <time>2025-03-12T08:45:26.841Z</time>
      </trkpt>
      <trkpt lat="47.94707" lon="5.01032">
        <ele>273.54</ele>
        <time>2025-03-12T08:45:28.288Z</time>
      </trkpt>
      <trkpt lat="47.94709" lon="5.01011">
        <ele>273.51</ele>
        <time>2025-03-12T08:45:29.737Z</time>
      </trkpt>
      <trkpt lat="47.94707" lon="5.01003">
        <ele>273.52</ele>
        <time>2025-03-12T08:45:31.187Z</time>
      </trkpt>
      <trkpt lat="47.94704" lon="5.01002">
        <ele>273.53</ele>
        <time>2025-03-12T08:45:32.638Z</time>
      </trkpt>
      <trkpt lat="47.94709" lon="5.01003">
        <ele>273.57</ele>
        <time>2025-03-12T08:45:34.089Z</time>
      </trkpt>
      <trkpt lat="47.94699" lon="5.0104">
        <ele>273.58</ele>
        <time>2025-03-12T08:45:35.545Z</time>
      </trkpt>
      <trkpt lat="47.94697" lon="5.0104">
        <ele>273.66</ele>
        <time>2025-03-12T08:45:37.001Z</time>
      </trkpt>
      <trkpt lat="47.94681" lon="5.01038">
        <ele>273.73</ele>
        <time>2025-03-12T08:45:38.460Z</time>
      </trkpt>
      <trkpt lat="47.94655" lon="5.01035">
        <ele>273.88</ele>
        <time>2025-03-12T08:45:39.923Z</time>
      </trkpt>
      <trkpt lat="47.94637" lon="5.01033">
        <ele>274.03</ele>
        <time>2025-03-12T08:45:41.389Z</time>
      </trkpt>
      <trkpt lat="47.94613" lon="5.01024">
        <ele>274.2</ele>
        <time>2025-03-12T08:45:42.859Z</time>
      </trkpt>
      <trkpt lat="47.94597" lon="5.01015">
        <ele>274.37</ele>
        <time>2025-03-12T08:45:44.331Z</time>
      </trkpt>
      <trkpt lat="47.94582" lon="5.01006">
        <ele>274.58</ele>
        <time>2025-03-12T08:45:45.806Z</time>
      </trkpt>
      <trkpt lat="47.94572" lon="5.01003">
        <ele>274.79</ele>
        <time>2025-03-12T08:45:47.283Z</time>
      </trkpt>
      <trkpt lat="47.94554" lon="5.00998">
        <ele>275.01</ele>
        <time>2025-03-12T08:45:48.763Z</time>
      </trkpt>
      <trkpt lat="47.94542" lon="5.00995">
        <ele>275.25</ele>
        <time>2025-03-12T08:45:50.245Z</time>
      </trkpt>
      <trkpt lat="47.94529" lon="5.00992">
        <ele>275.48</ele>
        <time>2025-03-12T08:45:51.729Z</time>
      </trkpt>
      <trkpt lat="47.945" lon="5.00985">
        <ele>275.74</ele>
        <time>2025-03-12T08:45:53.217Z</time>
      </trkpt>
      <trkpt lat="47.94495" lon="5.00984">
        <ele>275.99</ele>
        <time>2025-03-12T08:45:54.706Z</time>
      </trkpt>
      <trkpt lat="47.94487" lon="5.00982">
        <ele>276.24</ele>
        <time>2025-03-12T08:45:56.197Z</time>
      </trkpt>
      <trkpt lat="47.94482" lon="5.00981">
        <ele>276.48</ele>
        <time>2025-03-12T08:45:57.688Z</time>
      </trkpt>
      <trkpt lat="47.94478" lon="5.0098">
        <ele>276.73</ele>
        <time>2025-03-12T08:45:59.180Z</time>
      </trkpt>
      <trkpt lat="47.94469" lon="5.00978">
        <ele>276.96</ele>
        <time>2025-03-12T08:46:00.673Z</time>
      </trkpt>
      <trkpt lat="47.9446" lon="5.00977">
        <ele>277.2</ele>
        <time>2025-03-12T08:46:02.168Z</time>
      </trkpt>
      <trkpt lat="47.94444" lon="5.00975">
        <ele>277.45</ele>
        <time>2025-03-12T08:46:03.665Z</time>
      </trkpt>
      <trkpt lat="47.94427" lon="5.00972">
        <ele>277.7</ele>
        <time>2025-03-12T08:46:05.165Z</time>
      </trkpt>
      <trkpt lat="47.94413" lon="5.00972">
        <ele>277.94</ele>
        <time>2025-03-12T08:46:06.667Z</time>
      </trkpt>
      <trkpt lat="47.94397" lon="5.00972">
        <ele>278.18</ele>
        <time>2025-03-12T08:46:08.172Z</time>
      </trkpt>
      <trkpt lat="47.94368" lon="5.00972">
        <ele>278.42</ele>
        <time>2025-03-12T08:46:09.682Z</time>
      </trkpt>
      <trkpt lat="47.94349" lon="5.00972">
        <ele>278.62</ele>
        <time>2025-03-12T08:46:11.195Z</time>
      </trkpt>
      <trkpt lat="47.9433" lon="5.00972">
        <ele>278.79</ele>
        <time>2025-03-12T08:46:12.711Z</time>
      </trkpt>
      <trkpt lat="47.94307" lon="5.00973">
        <ele>278.93</ele>
        <time>2025-03-12T08:46:14.230Z</time>
      </trkpt>
      <trkpt lat="47.94283" lon="5.00974">
        <ele>279.08</ele>
        <time>2025-03-12T08:46:15.753Z</time>
      </trkpt>
      <trkpt lat="47.94266" lon="5.00976">
        <ele>279.24</ele>
        <time>2025-03-12T08:46:17.279Z</time>
      </trkpt>
      <trkpt lat="47.94249" lon="5.00979">
        <ele>279.4</ele>
        <time>2025-03-12T08:46:18.808Z</time>
      </trkpt>
      <trkpt lat="47.94218" lon="5.00982">
        <ele>279.5</ele>
        <time>2025-03-12T08:46:20.342Z</time>
      </trkpt>
      <trkpt lat="47.942" lon="5.00985">
        <ele>279.54</ele>
        <time>2025-03-12T08:46:21.879Z</time>
      </trkpt>
      <trkpt lat="47.94181" lon="5.00988">
        <ele>279.59</ele>
        <time>2025-03-12T08:46:23.419Z</time>
      </trkpt>
      <trkpt lat="47.94163" lon="5.00992">
        <ele>279.61</ele>
        <time>2025-03-12T08:46:24.961Z</time>
      </trkpt>
      <trkpt lat="47.94145" lon="5.00995">
        <ele>279.64</ele>
        <time>2025-03-12T08:46:26.506Z</time>
      </trkpt>
      <trkpt lat="47.94116" lon="5.01013">
        <ele>279.62</ele>
        <time>2025-03-12T08:46:28.056Z</time>
      </trkpt>
      <trkpt lat="47.941" lon="5.01023">
        <ele>279.61</ele>
        <time>2025-03-12T08:46:29.609Z</time>
      </trkpt>
      <trkpt lat="47.94084" lon="5.01033">
        <ele>279.57</ele>
        <time>2025-03-12T08:46:31.165Z</time>
      </trkpt>
      <trkpt lat="47.94066" lon="5.01051">
        <ele>279.55</ele>
        <time>2025-03-12T08:46:32.724Z</time>
      </trkpt>
      <trkpt lat="47.94048" lon="5.01069">
        <ele>279.66</ele>
        <time>2025-03-12T08:46:34.287Z</time>
      </trkpt>
      <trkpt lat="47.94033" lon="5.01087">
        <ele>279.86</ele>
        <time>2025-03-12T08:46:35.853Z</time>
      </trkpt>
      <trkpt lat="47.94017" lon="5.01105">
        <ele>280.05</ele>
        <time>2025-03-12T08:46:37.422Z</time>
      </trkpt>
      <trkpt lat="47.93999" lon="5.01131">
        <ele>280.16</ele>
        <time>2025-03-12T08:46:38.995Z</time>
      </trkpt>
      <trkpt lat="47.93991" lon="5.01145">
        <ele>280.19</ele>
        <time>2025-03-12T08:46:40.570Z</time>
      </trkpt>
      <trkpt lat="47.93977" lon="5.01169">
        <ele>280.2</ele>
        <time>2025-03-12T08:46:42.149Z</time>
      </trkpt>
      <trkpt lat="47.93963" lon="5.01193">
        <ele>280.21</ele>
        <time>2025-03-12T08:46:43.731Z</time>
      </trkpt>
      <trkpt lat="47.9395" lon="5.01219">
        <ele>280.24</ele>
        <time>2025-03-12T08:46:45.317Z</time>
      </trkpt>
      <trkpt lat="47.93937" lon="5.01245">
        <ele>280.29</ele>
        <time>2025-03-12T08:46:46.906Z</time>
      </trkpt>
      <trkpt lat="47.93924" lon="5.0127">
        <ele>280.37</ele>
        <time>2025-03-12T08:46:48.498Z</time>
      </trkpt>
      <trkpt lat="47.93912" lon="5.01295">
        <ele>280.38</ele>
        <time>2025-03-12T08:46:50.094Z</time>
      </trkpt>
      <trkpt lat="47.93893" lon="5.01332">
        <ele>280.34</ele>
        <time>2025-03-12T08:46:51.695Z</time>
      </trkpt>
      <trkpt lat="47.93878" lon="5.01364">
        <ele>280.35</ele>
        <time>2025-03-12T08:46:53.300Z</time>
      </trkpt>
      <trkpt lat="47.93864" lon="5.01396">
        <ele>280.26</ele>
        <time>2025-03-12T08:46:54.909Z</time>
      </trkpt>
      <trkpt lat="47.9385" lon="5.01424">
        <ele>280.09</ele>
        <time>2025-03-12T08:46:56.522Z</time>
      </trkpt>
      <trkpt lat="47.93837" lon="5.01453">
        <ele>280.05</ele>
        <time>2025-03-12T08:46:58.138Z</time>
      </trkpt>
      <trkpt lat="47.93824" lon="5.0148">
        <ele>280.02</ele>
        <time>2025-03-12T08:46:59.758Z</time>
      </trkpt>
      <trkpt lat="47.93811" lon="5.01507">
        <ele>280.09</ele>
        <time>2025-03-12T08:47:01.382Z</time>
      </trkpt>
      <trkpt lat="47.93801" lon="5.0153">
        <ele>280.08</ele>
        <time>2025-03-12T08:47:03.009Z</time>
      </trkpt>
      <trkpt lat="47.9379" lon="5.01554">
        <ele>280.02</ele>
        <time>2025-03-12T08:47:04.639Z</time>
      </trkpt>
      <trkpt lat="47.9378" lon="5.01596">
        <ele>279.99</ele>
        <time>2025-03-12T08:47:06.274Z</time>
      </trkpt>
      <trkpt lat="47.93779" lon="5.01605">
        <ele>279.99</ele>
        <time>2025-03-12T08:47:07.909Z</time>
      </trkpt>
      <trkpt lat="47.93773" lon="5.01644">
        <ele>279.98</ele>
        <time>2025-03-12T08:47:09.549Z</time>
      </trkpt>
      <trkpt lat="47.93768" lon="5.01684">
        <ele>280.07</ele>
        <time>2025-03-12T08:47:11.193Z</time>
      </trkpt>
      <trkpt lat="47.93763" lon="5.01718">
        <ele>280.17</ele>
        <time>2025-03-12T08:47:12.841Z</time>
      </trkpt>
      <trkpt lat="47.93758" lon="5.01751">
        <ele>280.26</ele>
        <time>2025-03-12T08:47:14.493Z</time>
      </trkpt>
      <trkpt lat="47.93753" lon="5.01786">
        <ele>280.32</ele>
        <time>2025-03-12T08:47:16.148Z</time>
      </trkpt>
      <trkpt lat="47.93748" lon="5.0182">
        <ele>280.38</ele>
        <time>2025-03-12T08:47:17.807Z</time>
      </trkpt>
      <trkpt lat="47.93741" lon="5.01855">
        <ele>280.54</ele>
        <time>2025-03-12T08:47:19.470Z</time>
      </trkpt>
      <trkpt lat="47.93734" lon="5.0189">
        <ele>280.69</ele>
        <time>2025-03-12T08:47:21.137Z</time>
      </trkpt>
      <trkpt lat="47.93722" lon="5.0193">
        <ele>280.87</ele>
        <time>2025-03-12T08:47:22.809Z</time>
      </trkpt>
      <trkpt lat="47.93709" lon="5.01969">
        <ele>281.15</ele>
        <time>2025-03-12T08:47:24.485Z</time>
      </trkpt>
      <trkpt lat="47.93697" lon="5.02002">
        <ele>281.51</ele>
        <time>2025-03-12T08:47:26.165Z</time>
      </trkpt>
      <trkpt lat="47.93686" lon="5.02034">
        <ele>281.85</ele>
        <time>2025-03-12T08:47:27.849Z</time>
      </trkpt>
      <trkpt lat="47.93672" lon="5.02063">
        <ele>282.09</ele>
        <time>2025-03-12T08:47:29.537Z</time>
      </trkpt>
      <trkpt lat="47.93658" lon="5.02091">
        <ele>282.39</ele>
        <time>2025-03-12T08:47:31.229Z</time>
      </trkpt>
      <trkpt lat="47.93643" lon="5.02115">
        <ele>282.71</ele>
        <time>2025-03-12T08:47:32.924Z</time>
      </trkpt>
      <trkpt lat="47.93627" lon="5.02138">
        <ele>283.13</ele>
        <time>2025-03-12T08:47:34.623Z</time>
      </trkpt>
      <trkpt lat="47.93607" lon="5.02158">
        <ele>283.61</ele>
        <time>2025-03-12T08:47:36.326Z</time>
      </trkpt>
      <trkpt lat="47.93586" lon="5.02177">
        <ele>284.18</ele>
        <time>2025-03-12T08:47:38.033Z</time>
      </trkpt>
      <trkpt lat="47.9357" lon="5.02191">
        <ele>284.83</ele>
        <time>2025-03-12T08:47:39.743Z</time>
      </trkpt>
      <trkpt lat="47.93554" lon="5.02204">
        <ele>285.55</ele>
        <time>2025-03-12T08:47:41.456Z</time>
      </trkpt>
      <trkpt lat="47.93538" lon="5.02218">
        <ele>286.28</ele>
        <time>2025-03-12T08:47:43.172Z</time>
      </trkpt>
      <trkpt lat="47.93521" lon="5.02232">
        <ele>287.03</ele>
        <time>2025-03-12T08:47:44.891Z</time>
      </trkpt>
      <trkpt lat="47.935" lon="5.02249">
        <ele>287.78</ele>
        <time>2025-03-12T08:47:46.614Z</time>
      </trkpt>
      <trkpt lat="47.93485" lon="5.02262">
        <ele>288.53</ele>
        <time>2025-03-12T08:47:48.339Z</time>
      </trkpt>
      <trkpt lat="47.9347" lon="5.02275">
        <ele>289.3</ele>
        <time>2025-03-12T08:47:50.067Z</time>
      </trkpt>
      <trkpt lat="47.93454" lon="5.0229">
        <ele>290.09</ele>
        <time>2025-03-12T08:47:51.798Z</time>
      </trkpt>
      <trkpt lat="47.93438" lon="5.02305">
        <ele>290.9</ele>
        <time>2025-03-12T08:47:53.532Z</time>
      </trkpt>
      <trkpt lat="47.93431" lon="5.02312">
        <ele>291.69</ele>
        <time>2025-03-12T08:47:55.268Z</time>
      </trkpt>
      <trkpt lat="47.93417" lon="5.02327">
        <ele>292.49</ele>
        <time>2025-03-12T08:47:57.006Z</time>
      </trkpt>
      <trkpt lat="47.93403" lon="5.02342">
        <ele>293.27</ele>
        <time>2025-03-12T08:47:58.747Z</time>
      </trkpt>
      <trkpt lat="47.93389" lon="5.02358">
        <ele>293.95</ele>
        <time>2025-03-12T08:48:00.491Z</time>
      </trkpt>
      <trkpt lat="47.93375" lon="5.02373">
        <ele>294.67</ele>
        <time>2025-03-12T08:48:02.238Z</time>
      </trkpt>
      <trkpt lat="47.9336" lon="5.02389">
        <ele>295.33</ele>
        <time>2025-03-12T08:48:03.988Z</time>
      </trkpt>
      <trkpt lat="47.93338" lon="5.02414">
        <ele>296.04</ele>
        <time>2025-03-12T08:48:05.742Z</time>
      </trkpt>
      <trkpt lat="47.93323" lon="5.02432">
        <ele>296.64</ele>
        <time>2025-03-12T08:48:07.499Z</time>
      </trkpt>
      <trkpt lat="47.93308" lon="5.02451">
        <ele>297.19</ele>
        <time>2025-03-12T08:48:09.259Z</time>
      </trkpt>
      <trkpt lat="47.93296" lon="5.02469">
        <ele>297.73</ele>
        <time>2025-03-12T08:48:11.022Z</time>
      </trkpt>
      <trkpt lat="47.93283" lon="5.02487">
        <ele>298.24</ele>
        <time>2025-03-12T08:48:12.788Z</time>
      </trkpt>
      <trkpt lat="47.93264" lon="5.02523">
        <ele>298.73</ele>
        <time>2025-03-12T08:48:14.559Z</time>
      </trkpt>
      <trkpt lat="47.93253" lon="5.02554">
        <ele>299.21</ele>
        <time>2025-03-12T08:48:16.334Z</time>
      </trkpt>
      <trkpt lat="47.93245" lon="5.0258">
        <ele>299.58</ele>
        <time>2025-03-12T08:48:18.112Z</time>
      </trkpt>
      <trkpt lat="47.93236" lon="5.02606">
        <ele>299.98</ele>
        <time>2025-03-12T08:48:19.893Z</time>
      </trkpt>
      <trkpt lat="47.93229" lon="5.02629">
        <ele>300.31</ele>
        <time>2025-03-12T08:48:21.677Z</time>
      </trkpt>
      <trkpt lat="47.93221" lon="5.02653">
        <ele>300.57</ele>
        <time>2025-03-12T08:48:23.463Z</time>
      </trkpt>
      <trkpt lat="47.93205" lon="5.02686">
        <ele>300.8</ele>
        <time>2025-03-12T08:48:25.254Z</time>
      </trkpt>
      <trkpt lat="47.932" lon="5.02692">
        <ele>300.97</ele>
        <time>2025-03-12T08:48:27.046Z</time>
      </trkpt>
      <trkpt lat="47.93178" lon="5.02721">
        <ele>301.11</ele>
        <time>2025-03-12T08:48:28.843Z</time>
      </trkpt>
      <trkpt lat="47.93165" lon="5.02737">
        <ele>301.25</ele>
        <time>2025-03-12T08:48:30.642Z</time>
      </trkpt>
      <trkpt lat="47.93154" lon="5.02757">
        <ele>301.36</ele>
        <time>2025-03-12T08:48:32.444Z</time>
      </trkpt>
      <trkpt lat="47.93143" lon="5.02776">
        <ele>301.35</ele>
        <time>2025-03-12T08:48:34.249Z</time>
      </trkpt>
      <trkpt lat="47.93134" lon="5.028">
        <ele>301.3</ele>
        <time>2025-03-12T08:48:36.057Z</time>
      </trkpt>
      <trkpt lat="47.93125" lon="5.02824">
        <ele>301.28</ele>
        <time>2025-03-12T08:48:37.868Z</time>
      </trkpt>
      <trkpt lat="47.93113" lon="5.02853">
        <ele>301.28</ele>
        <time>2025-03-12T08:48:39.682Z</time>
      </trkpt>
      <trkpt lat="47.93102" lon="5.02882">
        <ele>301.16</ele>
        <time>2025-03-12T08:48:41.500Z</time>
      </trkpt>
      <trkpt lat="47.93088" lon="5.02918">
        <ele>301.05</ele>
        <time>2025-03-12T08:48:43.322Z</time>
      </trkpt>
      <trkpt lat="47.93074" lon="5.02954">
        <ele>300.88</ele>
        <time>2025-03-12T08:48:45.149Z</time>
      </trkpt>
      <trkpt lat="47.93066" lon="5.02981">
        <ele>300.67</ele>
        <time>2025-03-12T08:48:46.979Z</time>
      </trkpt>
      <trkpt lat="47.93058" lon="5.03008">
        <ele>300.38</ele>
        <time>2025-03-12T08:48:48.812Z</time>
      </trkpt>
      <trkpt lat="47.93051" lon="5.03035">
        <ele>300.06</ele>
        <time>2025-03-12T08:48:50.648Z</time>
      </trkpt>
      <trkpt lat="47.93043" lon="5.03061">
        <ele>299.76</ele>
        <time>2025-03-12T08:48:52.487Z</time>
      </trkpt>
      <trkpt lat="47.93034" lon="5.03093">
        <ele>299.47</ele>
        <time>2025-03-12T08:48:54.330Z</time>
      </trkpt>
      <trkpt lat="47.93026" lon="5.03124">
        <ele>299.1</ele>
        <time>2025-03-12T08:48:56.177Z</time>
      </trkpt>
      <trkpt lat="47.93021" lon="5.03148">
        <ele>298.68</ele>
        <time>2025-03-12T08:48:58.026Z</time>
      </trkpt>
      <trkpt lat="47.93016" lon="5.03172">
        <ele>298.3</ele>
        <time>2025-03-12T08:48:59.878Z</time>
      </trkpt>
      <trkpt lat="47.9301" lon="5.03205">
        <ele>297.87</ele>
        <time>2025-03-12T08:49:01.734Z</time>
      </trkpt>
      <trkpt lat="47.93003" lon="5.03238">
        <ele>297.42</ele>
        <time>2025-03-12T08:49:03.593Z</time>
      </trkpt>
      <trkpt lat="47.92998" lon="5.03269">
        <ele>296.92</ele>
        <time>2025-03-12T08:49:05.456Z</time>
      </trkpt>
      <trkpt lat="47.92992" lon="5.03299">
        <ele>296.38</ele>
        <time>2025-03-12T08:49:07.322Z</time>
      </trkpt>
      <trkpt lat="47.92985" lon="5.03331">
        <ele>295.82</ele>
        <time>2025-03-12T08:49:09.192Z</time>
      </trkpt>
      <trkpt lat="47.92979" lon="5.03364">
        <ele>295.4</ele>
        <time>2025-03-12T08:49:11.066Z</time>
      </trkpt>
      <trkpt lat="47.92971" lon="5.03407">
        <ele>294.96</ele>
        <time>2025-03-12T08:49:12.944Z</time>
      </trkpt>
      <trkpt lat="47.92964" lon="5.0345">
        <ele>294.44</ele>
        <time>2025-03-12T08:49:14.827Z</time>
      </trkpt>
      <trkpt lat="47.92959" lon="5.03484">
        <ele>293.93</ele>
        <time>2025-03-12T08:49:16.714Z</time>
      </trkpt>
      <trkpt lat="47.92954" lon="5.03517">
        <ele>293.43</ele>
        <time>2025-03-12T08:49:18.604Z</time>
      </trkpt>
      <trkpt lat="47.92951" lon="5.03544">
        <ele>292.97</ele>
        <time>2025-03-12T08:49:20.497Z</time>
      </trkpt>
      <trkpt lat="47.92947" lon="5.03571">
        <ele>292.47</ele>
        <time>2025-03-12T08:49:22.393Z</time>
      </trkpt>
      <trkpt lat="47.92946" lon="5.03606">
        <ele>292</ele>
        <time>2025-03-12T08:49:24.293Z</time>
      </trkpt>
      <trkpt lat="47.92946" lon="5.03641">
        <ele>291.51</ele>
        <time>2025-03-12T08:49:26.197Z</time>
      </trkpt>
      <trkpt lat="47.92945" lon="5.03677">
        <ele>291.02</ele>
        <time>2025-03-12T08:49:28.105Z</time>
      </trkpt>
      <trkpt lat="47.92945" lon="5.03713">
        <ele>290.6</ele>
        <time>2025-03-12T08:49:30.017Z</time>
      </trkpt>
      <trkpt lat="47.92942" lon="5.03743">
        <ele>290.18</ele>
        <time>2025-03-12T08:49:31.932Z</time>
      </trkpt>
      <trkpt lat="47.9294" lon="5.03773">
        <ele>289.74</ele>
        <time>2025-03-12T08:49:33.850Z</time>
      </trkpt>
      <trkpt lat="47.92936" lon="5.03798">
        <ele>289.25</ele>
        <time>2025-03-12T08:49:35.771Z</time>
      </trkpt>
      <trkpt lat="47.92931" lon="5.03823">
        <ele>288.78</ele>
        <time>2025-03-12T08:49:37.695Z</time>
      </trkpt>
      <trkpt lat="47.92927" lon="5.03851">
        <ele>288.38</ele>
        <time>2025-03-12T08:49:39.622Z</time>
      </trkpt>
      <trkpt lat="47.92922" lon="5.03879">
        <ele>287.92</ele>
        <time>2025-03-12T08:49:41.552Z</time>
      </trkpt>
      <trkpt lat="47.92916" lon="5.03911">
        <ele>287.44</ele>
        <time>2025-03-12T08:49:43.486Z</time>
      </trkpt>
      <trkpt lat="47.92909" lon="5.03943">
        <ele>287.01</ele>
        <time>2025-03-12T08:49:45.423Z</time>
      </trkpt>
      <trkpt lat="47.92899" lon="5.03977">
        <ele>286.66</ele>
        <time>2025-03-12T08:49:47.364Z</time>
      </trkpt>
      <trkpt lat="47.9289" lon="5.04012">
        <ele>286.41</ele>
        <time>2025-03-12T08:49:49.309Z</time>
      </trkpt>
      <trkpt lat="47.92878" lon="5.04044">
        <ele>286.09</ele>
        <time>2025-03-12T08:49:51.258Z</time>
      </trkpt>
      <trkpt lat="47.92867" lon="5.04077">
        <ele>285.81</ele>
        <time>2025-03-12T08:49:53.211Z</time>
      </trkpt>
      <trkpt lat="47.92859" lon="5.04102">
        <ele>285.7</ele>
        <time>2025-03-12T08:49:55.167Z</time>
      </trkpt>
      <trkpt lat="47.9285" lon="5.04127">
        <ele>285.7</ele>
        <time>2025-03-12T08:49:57.126Z</time>
      </trkpt>
      <trkpt lat="47.92838" lon="5.04163">
        <ele>285.79</ele>
        <time>2025-03-12T08:49:59.089Z</time>
      </trkpt>
      <trkpt lat="47.92826" lon="5.04199">
        <ele>285.94</ele>
        <time>2025-03-12T08:50:01.057Z</time>
      </trkpt>
      <trkpt lat="47.92814" lon="5.04226">
        <ele>286.16</ele>
        <time>2025-03-12T08:50:03.028Z</time>
      </trkpt>
      <trkpt lat="47.92802" lon="5.04253">
        <ele>286.46</ele>
        <time>2025-03-12T08:50:05.003Z</time>
      </trkpt>
      <trkpt lat="47.92791" lon="5.0428">
        <ele>286.87</ele>
        <time>2025-03-12T08:50:06.981Z</time>
      </trkpt>
      <trkpt lat="47.92788" lon="5.04294">
        <ele>287.41</ele>
        <time>2025-03-12T08:50:08.961Z</time>
      </trkpt>
      <trkpt lat="47.92784" lon="5.04319">
        <ele>288.07</ele>
        <time>2025-03-12T08:50:10.943Z</time>
      </trkpt>
      <trkpt lat="47.92779" lon="5.04344">
        <ele>288.9</ele>
        <time>2025-03-12T08:50:12.928Z</time>
      </trkpt>
      <trkpt lat="47.92774" lon="5.04372">
        <ele>289.81</ele>
        <time>2025-03-12T08:50:14.916Z</time>
      </trkpt>
      <trkpt lat="47.92768" lon="5.04404">
        <ele>290.81</ele>
        <time>2025-03-12T08:50:16.908Z</time>
      </trkpt>
      <trkpt lat="47.92763" lon="5.04433">
        <ele>291.81</ele>
        <time>2025-03-12T08:50:18.903Z</time>
      </trkpt>
      <trkpt lat="47.92749" lon="5.04438">
        <ele>292.84</ele>
        <time>2025-03-12T08:50:20.900Z</time>
      </trkpt>
      <trkpt lat="47.92738" lon="5.04443">
        <ele>293.89</ele>
        <time>2025-03-12T08:50:22.899Z</time>
      </trkpt>
      <trkpt lat="47.92725" lon="5.04445">
        <ele>294.92</ele>
        <time>2025-03-12T08:50:24.900Z</time>
      </trkpt>
      <trkpt lat="47.92707" lon="5.04448">
        <ele>296.01</ele>
        <time>2025-03-12T08:50:26.904Z</time>
      </trkpt>
      <trkpt lat="47.92695" lon="5.04453">
        <ele>297.08</ele>
        <time>2025-03-12T08:50:28.910Z</time>
      </trkpt>
      <trkpt lat="47.92689" lon="5.04457">
        <ele>298.15</ele>
        <time>2025-03-12T08:50:30.917Z</time>
      </trkpt>
      <trkpt lat="47.92689" lon="5.04457">
        <ele>299.22</ele>
        <time>2025-03-12T08:50:32.924Z</time>
      </trkpt>
      <trkpt lat="47.92695" lon="5.04453">
        <ele>300.25</ele>
        <time>2025-03-12T08:50:34.932Z</time>
      </trkpt>
      <trkpt lat="47.92703" lon="5.04448">
        <ele>301.27</ele>
        <time>2025-03-12T08:50:36.942Z</time>
      </trkpt>
      <trkpt lat="47.92718" lon="5.04446">
        <ele>302.23</ele>
        <time>2025-03-12T08:50:38.954Z</time>
      </trkpt>
      <trkpt lat="47.92736" lon="5.04443">
        <ele>303.17</ele>
        <time>2025-03-12T08:50:40.969Z</time>
      </trkpt>
      <trkpt lat="47.9275" lon="5.04437">
        <ele>304.01</ele>
        <time>2025-03-12T08:50:42.986Z</time>
      </trkpt>
      <trkpt lat="47.92742" lon="5.04478">
        <ele>305.09</ele>
        <time>2025-03-12T08:50:45.008Z</time>
      </trkpt>
      <trkpt lat="47.92735" lon="5.04519">
        <ele>306.05</ele>
        <time>2025-03-12T08:50:47.035Z</time>
      </trkpt>
      <trkpt lat="47.92727" lon="5.0456">
        <ele>306.89</ele>
        <time>2025-03-12T08:50:49.066Z</time>
      </trkpt>
      <trkpt lat="47.9272" lon="5.04601">
        <ele>307.65</ele>
        <time>2025-03-12T08:50:51.102Z</time>
      </trkpt>
      <trkpt lat="47.92712" lon="5.04642">
        <ele>308.33</ele>
        <time>2025-03-12T08:50:53.142Z</time>
      </trkpt>
      <trkpt lat="47.92713" lon="5.0464">
        <ele>308.66</ele>
        <time>2025-03-12T08:50:55.182Z</time>
      </trkpt>
      <trkpt lat="47.92714" lon="5.04639">
        <ele>308.86</ele>
        <time>2025-03-12T08:50:57.223Z</time>
      </trkpt>
      <trkpt lat="47.92715" lon="5.04636">
        <ele>308.92</ele>
        <time>2025-03-12T08:50:59.264Z</time>
      </trkpt>
      <trkpt lat="47.92717" lon="5.04632">
        <ele>308.84</ele>
        <time>2025-03-12T08:51:01.306Z</time>
      </trkpt>
      <trkpt lat="47.92715" lon="5.04614">
        <ele>308.55</ele>
        <time>2025-03-12T08:51:03.349Z</time>
      </trkpt>
      <trkpt lat="47.92713" lon="5.04598">
        <ele>308.16</ele>
        <time>2025-03-12T08:51:05.394Z</time>
      </trkpt>
      <trkpt lat="47.92711" lon="5.04583">
        <ele>307.65</ele>
        <time>2025-03-12T08:51:07.441Z</time>
      </trkpt>
      <trkpt lat="47.92713" lon="5.04574">
        <ele>307.03</ele>
        <time>2025-03-12T08:51:09.489Z</time>
      </trkpt>
      <trkpt lat="47.92715" lon="5.04571">
        <ele>306.3</ele>
        <time>2025-03-12T08:51:11.537Z</time>
      </trkpt>
      <trkpt lat="47.9272" lon="5.04561">
        <ele>305.45</ele>
        <time>2025-03-12T08:51:13.587Z</time>
      </trkpt>
      <trkpt lat="47.92723" lon="5.04555">
        <ele>304.51</ele>
        <time>2025-03-12T08:51:15.637Z</time>
      </trkpt>
      <trkpt lat="47.92727" lon="5.04547">
        <ele>303.47</ele>
        <time>2025-03-12T08:51:17.688Z</time>
      </trkpt>
      <trkpt lat="47.92731" lon="5.0454">
        <ele>302.36</ele>
        <time>2025-03-12T08:51:19.741Z</time>
      </trkpt>
      <trkpt lat="47.92744" lon="5.04498">
        <ele>301.05</ele>
        <time>2025-03-12T08:51:21.798Z</time>
      </trkpt>
      <trkpt lat="47.92757" lon="5.04456">
        <ele>299.6</ele>
        <time>2025-03-12T08:51:23.860Z</time>
      </trkpt>
      <trkpt lat="47.92759" lon="5.0445">
        <ele>298.31</ele>
        <time>2025-03-12T08:51:25.923Z</time>
      </trkpt>
      <trkpt lat="47.92761" lon="5.04439">
        <ele>296.95</ele>
        <time>2025-03-12T08:51:27.987Z</time>
      </trkpt>
      <trkpt lat="47.92764" lon="5.04425">
        <ele>295.61</ele>
        <time>2025-03-12T08:51:30.053Z</time>
      </trkpt>
      <trkpt lat="47.92765" lon="5.0442">
        <ele>294.33</ele>
        <time>2025-03-12T08:51:32.120Z</time>
      </trkpt>
      <trkpt lat="47.92769" lon="5.044">
        <ele>293</ele>
        <time>2025-03-12T08:51:34.189Z</time>
      </trkpt>
      <trkpt lat="47.92777" lon="5.04356">
        <ele>291.58</ele>
        <time>2025-03-12T08:51:36.263Z</time>
      </trkpt>
      <trkpt lat="47.92782" lon="5.0433">
        <ele>290.27</ele>
        <time>2025-03-12T08:51:38.340Z</time>
      </trkpt>
      <trkpt lat="47.92786" lon="5.04305">
        <ele>289.07</ele>
        <time>2025-03-12T08:51:40.419Z</time>
      </trkpt>
      <trkpt lat="47.92789" lon="5.04291">
        <ele>288</ele>
        <time>2025-03-12T08:51:42.500Z</time>
      </trkpt>
      <trkpt lat="47.92783" lon="5.04279">
        <ele>287.02</ele>
        <time>2025-03-12T08:51:44.583Z</time>
      </trkpt>
      <trkpt lat="47.9278" lon="5.04281">
        <ele>286.13</ele>
        <time>2025-03-12T08:51:46.666Z</time>
      </trkpt>
      <trkpt lat="47.92766" lon="5.04291">
        <ele>285.32</ele>
        <time>2025-03-12T08:51:48.752Z</time>
      </trkpt>
      <trkpt lat="47.92755" lon="5.04299">
        <ele>284.6</ele>
        <time>2025-03-12T08:51:50.839Z</time>
      </trkpt>
      <trkpt lat="47.92744" lon="5.04307">
        <ele>283.97</ele>
        <time>2025-03-12T08:51:52.928Z</time>
      </trkpt>
      <trkpt lat="47.92727" lon="5.04319">
        <ele>283.48</ele>
        <time>2025-03-12T08:51:55.020Z</time>
      </trkpt>
      <trkpt lat="47.92711" lon="5.04331">
        <ele>283.1</ele>
        <time>2025-03-12T08:51:57.115Z</time>
      </trkpt>
      <trkpt lat="47.92691" lon="5.04345">
        <ele>282.79</ele>
        <time>2025-03-12T08:51:59.214Z</time>
      </trkpt>
      <trkpt lat="47.92672" lon="5.04359">
        <ele>282.55</ele>
        <time>2025-03-12T08:52:01.316Z</time>
      </trkpt>
      <trkpt lat="47.92649" lon="5.04376">
        <ele>282.31</ele>
        <time>2025-03-12T08:52:03.422Z</time>
      </trkpt>
      <trkpt lat="47.92626" lon="5.04393">
        <ele>282.14</ele>
        <time>2025-03-12T08:52:05.532Z</time>
      </trkpt>
      <trkpt lat="47.92599" lon="5.04412">
        <ele>282.09</ele>
        <time>2025-03-12T08:52:07.647Z</time>
      </trkpt>
      <trkpt lat="47.92573" lon="5.04431">
        <ele>282.14</ele>
        <time>2025-03-12T08:52:09.767Z</time>
      </trkpt>
      <trkpt lat="47.92557" lon="5.04451">
        <ele>282.29</ele>
        <time>2025-03-12T08:52:11.890Z</time>
      </trkpt>
      <trkpt lat="47.92541" lon="5.04472">
        <ele>282.45</ele>
        <time>2025-03-12T08:52:14.017Z</time>
      </trkpt>
      <trkpt lat="47.92522" lon="5.04505">
        <ele>282.67</ele>
        <time>2025-03-12T08:52:16.148Z</time>
      </trkpt>
      <trkpt lat="47.92503" lon="5.04538">
        <ele>283.03</ele>
        <time>2025-03-12T08:52:18.284Z</time>
      </trkpt>
      <trkpt lat="47.92498" lon="5.04545">
        <ele>283.39</ele>
        <time>2025-03-12T08:52:20.421Z</time>
      </trkpt>
      <trkpt lat="47.92482" lon="5.04575">
        <ele>283.8</ele>
        <time>2025-03-12T08:52:22.562Z</time>
      </trkpt>
      <trkpt lat="47.92465" lon="5.04605">
        <ele>284.23</ele>
        <time>2025-03-12T08:52:24.707Z</time>
      </trkpt>
      <trkpt lat="47.92448" lon="5.04637">
        <ele>284.67</ele>
        <time>2025-03-12T08:52:26.857Z</time>
      </trkpt>
      <trkpt lat="47.9243" lon="5.04668">
        <ele>285.16</ele>
        <time>2025-03-12T08:52:29.011Z</time>
      </trkpt>
      <trkpt lat="47.92426" lon="5.04676">
        <ele>285.63</ele>
        <time>2025-03-12T08:52:31.166Z</time>
      </trkpt>
      <trkpt lat="47.92411" lon="5.0471">
        <ele>286.16</ele>
        <time>2025-03-12T08:52:33.326Z</time>
      </trkpt>
      <trkpt lat="47.92395" lon="5.04744">
        <ele>286.68</ele>
        <time>2025-03-12T08:52:35.490Z</time>
      </trkpt>
      <trkpt lat="47.92381" lon="5.04775">
        <ele>287.19</ele>
        <time>2025-03-12T08:52:37.658Z</time>
      </trkpt>
      <trkpt lat="47.92367" lon="5.04807">
        <ele>287.67</ele>
        <time>2025-03-12T08:52:39.830Z</time>
      </trkpt>
      <trkpt lat="47.92354" lon="5.04837">
        <ele>288.11</ele>
        <time>2025-03-12T08:52:42.006Z</time>
      </trkpt>
      <trkpt lat="47.9234" lon="5.04867">
        <ele>288.53</ele>
        <time>2025-03-12T08:52:44.186Z</time>
      </trkpt>
      <trkpt lat="47.92326" lon="5.04899">
        <ele>288.91</ele>
        <time>2025-03-12T08:52:46.370Z</time>
      </trkpt>
      <trkpt lat="47.92312" lon="5.0493">
        <ele>289.22</ele>
        <time>2025-03-12T08:52:48.558Z</time>
      </trkpt>
      <trkpt lat="47.92301" lon="5.04957">
        <ele>289.53</ele>
        <time>2025-03-12T08:52:50.750Z</time>
      </trkpt>
      <trkpt lat="47.92289" lon="5.04983">
        <ele>289.78</ele>
        <time>2025-03-12T08:52:52.945Z</time>
      </trkpt>
      <trkpt lat="47.92276" lon="5.05013">
        <ele>290.03</ele>
        <time>2025-03-12T08:52:55.144Z</time>
      </trkpt>
      <trkpt lat="47.92262" lon="5.05043">
        <ele>290.32</ele>
        <time>2025-03-12T08:52:57.347Z</time>
      </trkpt>
      <trkpt lat="47.92247" lon="5.05077">
        <ele>290.55</ele>
        <time>2025-03-12T08:52:59.554Z</time>
      </trkpt>
      <trkpt lat="47.92232" lon="5.05111">
        <ele>290.77</ele>
        <time>2025-03-12T08:53:01.765Z</time>
      </trkpt>
      <trkpt lat="47.92219" lon="5.0514">
        <ele>290.93</ele>
        <time>2025-03-12T08:53:03.980Z</time>
      </trkpt>
      <trkpt lat="47.92206" lon="5.0517">
        <ele>291.05</ele>
        <time>2025-03-12T08:53:06.199Z</time>
      </trkpt>
      <trkpt lat="47.92193" lon="5.05199">
        <ele>291.17</ele>
        <time>2025-03-12T08:53:08.422Z</time>
      </trkpt>
      <trkpt lat="47.9218" lon="5.05228">
        <ele>291.29</ele>
        <time>2025-03-12T08:53:10.648Z</time>
      </trkpt>
      <trkpt lat="47.92167" lon="5.05259">
        <ele>291.43</ele>
        <time>2025-03-12T08:53:12.879Z</time>
      </trkpt>
      <trkpt lat="47.92153" lon="5.05291">
        <ele>291.63</ele>
        <time>2025-03-12T08:53:15.114Z</time>
      </trkpt>
      <trkpt lat="47.9214" lon="5.05319">
        <ele>291.85</ele>
        <time>2025-03-12T08:53:17.352Z</time>
      </trkpt>
      <trkpt lat="47.92127" lon="5.05348">
        <ele>292.08</ele>
        <time>2025-03-12T08:53:19.594Z</time>
      </trkpt>
      <trkpt lat="47.92127" lon="5.05348">
        <ele>292.33</ele>
        <time>2025-03-12T08:53:21.836Z</time>
      </trkpt>
      <trkpt lat="47.92112" lon="5.05382">
        <ele>292.63</ele>
        <time>2025-03-12T08:53:24.082Z</time>
      </trkpt>
      <trkpt lat="47.92096" lon="5.05416">
        <ele>292.88</ele>
        <time>2025-03-12T08:53:26.333Z</time>
      </trkpt>
      <trkpt lat="47.92082" lon="5.05449">
        <ele>293.2</ele>
        <time>2025-03-12T08:53:28.588Z</time>
      </trkpt>
      <trkpt lat="47.92067" lon="5.05482">
        <ele>293.65</ele>
        <time>2025-03-12T08:53:30.847Z</time>
      </trkpt>
      <trkpt lat="47.92055" lon="5.05508">
        <ele>294.05</ele>
        <time>2025-03-12T08:53:33.110Z</time>
      </trkpt>
      <trkpt lat="47.92044" lon="5.05533">
        <ele>294.44</ele>
        <time>2025-03-12T08:53:35.376Z</time>
      </trkpt>
      <trkpt lat="47.92033" lon="5.05557">
        <ele>294.78</ele>
        <time>2025-03-12T08:53:37.645Z</time>
      </trkpt>
      <trkpt lat="47.92023" lon="5.0558">
        <ele>295.15</ele>
        <time>2025-03-12T08:53:39.917Z</time>
      </trkpt>
      <trkpt lat="47.9201" lon="5.05608">
        <ele>295.55</ele>
        <time>2025-03-12T08:53:42.193Z</time>
      </trkpt>
      <trkpt lat="47.91998" lon="5.05636">
        <ele>296.01</ele>
        <time>2025-03-12T08:53:44.472Z</time>
      </trkpt>
      <trkpt lat="47.91985" lon="5.05664">
        <ele>296.43</ele>
        <time>2025-03-12T08:53:46.755Z</time>
      </trkpt>
      <trkpt lat="47.91973" lon="5.05691">
        <ele>296.87</ele>
        <time>2025-03-12T08:53:49.041Z</time>
      </trkpt>
      <trkpt lat="47.91963" lon="5.05713">
        <ele>297.25</ele>
        <time>2025-03-12T08:53:51.330Z</time>
      </trkpt>
      <trkpt lat="47.91953" lon="5.05735">
        <ele>297.64</ele>
        <time>2025-03-12T08:53:53.622Z</time>
      </trkpt>
      <trkpt lat="47.91943" lon="5.05758">
        <ele>298.07</ele>
        <time>2025-03-12T08:53:55.917Z</time>
      </trkpt>
      <trkpt lat="47.91933" lon="5.0578">
        <ele>298.33</ele>
        <time>2025-03-12T08:53:58.215Z</time>
      </trkpt>
      <trkpt lat="47.91919" lon="5.05809">
        <ele>298.64</ele>
        <time>2025-03-12T08:54:00.517Z</time>
      </trkpt>
      <trkpt lat="47.91906" lon="5.05838">
        <ele>298.82</ele>
        <time>2025-03-12T08:54:02.823Z</time>
      </trkpt>
      <trkpt lat="47.91887" lon="5.05874">
        <ele>299</ele>
        <time>2025-03-12T08:54:05.133Z</time>
      </trkpt>
      <trkpt lat="47.9188" lon="5.05888">
        <ele>299.08</ele>
        <time>2025-03-12T08:54:07.445Z</time>
      </trkpt>
      <trkpt lat="47.91865" lon="5.05916">
        <ele>299.13</ele>
        <time>2025-03-12T08:54:09.761Z</time>
      </trkpt>
      <trkpt lat="47.91847" lon="5.0594">
        <ele>299.01</ele>
        <time>2025-03-12T08:54:12.081Z</time>
      </trkpt>
      <trkpt lat="47.9183" lon="5.05964">
        <ele>298.84</ele>
        <time>2025-03-12T08:54:14.405Z</time>
      </trkpt>
      <trkpt lat="47.91809" lon="5.05994">
        <ele>298.66</ele>
        <time>2025-03-12T08:54:16.733Z</time>
      </trkpt>
      <trkpt lat="47.91788" lon="5.06023">
        <ele>298.45</ele>
        <time>2025-03-12T08:54:19.066Z</time>
      </trkpt>
      <trkpt lat="47.91767" lon="5.06053">
        <ele>298.12</ele>
        <time>2025-03-12T08:54:21.404Z</time>
      </trkpt>
      <trkpt lat="47.91746" lon="5.06082">
        <ele>297.79</ele>
        <time>2025-03-12T08:54:23.746Z</time>
      </trkpt>
      <trkpt lat="47.91741" lon="5.0609">
        <ele>297.47</ele>
        <time>2025-03-12T08:54:26.089Z</time>
      </trkpt>
      <trkpt lat="47.91719" lon="5.06114">
        <ele>297.09</ele>
        <time>2025-03-12T08:54:28.437Z</time>
      </trkpt>
      <trkpt lat="47.91697" lon="5.06139">
        <ele>296.75</ele>
        <time>2025-03-12T08:54:30.789Z</time>
      </trkpt>
      <trkpt lat="47.91691" lon="5.06146">
        <ele>296.43</ele>
        <time>2025-03-12T08:54:33.142Z</time>
      </trkpt>
      <trkpt lat="47.91667" lon="5.06173">
        <ele>296.02</ele>
        <time>2025-03-12T08:54:35.500Z</time>
      </trkpt>
      <trkpt lat="47.91644" lon="5.06199">
        <ele>295.68</ele>
        <time>2025-03-12T08:54:37.863Z</time>
      </trkpt>
      <trkpt lat="47.91619" lon="5.06227">
        <ele>295.34</ele>
        <time>2025-03-12T08:54:40.231Z</time>
      </trkpt>
      <trkpt lat="47.91595" lon="5.06254">
        <ele>295.05</ele>
        <time>2025-03-12T08:54:42.604Z</time>
      </trkpt>
      <trkpt lat="47.91589" lon="5.06261">
        <ele>294.76</ele>
        <time>2025-03-12T08:54:44.978Z</time>
      </trkpt>
      <trkpt lat="47.91565" lon="5.06288">
        <ele>294.49</ele>
        <time>2025-03-12T08:54:47.357Z</time>
      </trkpt>
      <trkpt lat="47.91542" lon="5.06314">
        <ele>294.28</ele>
        <time>2025-03-12T08:54:49.740Z</time>
      </trkpt>
      <trkpt lat="47.91522" lon="5.06338">
        <ele>294.08</ele>
        <time>2025-03-12T08:54:52.128Z</time>
      </trkpt>
      <trkpt lat="47.91501" lon="5.06361">
        <ele>293.82</ele>
        <time>2025-03-12T08:54:54.520Z</time>
      </trkpt>
      <trkpt lat="47.91484" lon="5.0638">
        <ele>293.65</ele>
        <time>2025-03-12T08:54:56.915Z</time>
      </trkpt>
      <trkpt lat="47.91468" lon="5.06398">
        <ele>293.46</ele>
        <time>2025-03-12T08:54:59.313Z</time>
      </trkpt>
      <trkpt lat="47.91444" lon="5.06425">
        <ele>293.35</ele>
        <time>2025-03-12T08:55:01.716Z</time>
      </trkpt>
      <trkpt lat="47.91421" lon="5.06451">
        <ele>293.24</ele>
        <time>2025-03-12T08:55:04.124Z</time>
      </trkpt>
      <trkpt lat="47.91416" lon="5.06457">
        <ele>293.12</ele>
        <time>2025-03-12T08:55:06.533Z</time>
      </trkpt>
      <trkpt lat="47.91394" lon="5.06482">
        <ele>293.02</ele>
        <time>2025-03-12T08:55:08.946Z</time>
      </trkpt>
      <trkpt lat="47.91372" lon="5.06507">
        <ele>292.9</ele>
        <time>2025-03-12T08:55:11.364Z</time>
      </trkpt>
      <trkpt lat="47.91351" lon="5.06531">
        <ele>292.83</ele>
        <time>2025-03-12T08:55:13.786Z</time>
      </trkpt>
      <trkpt lat="47.91329" lon="5.06555">
        <ele>292.75</ele>
        <time>2025-03-12T08:55:16.212Z</time>
      </trkpt>
      <trkpt lat="47.91307" lon="5.0658">
        <ele>292.67</ele>
        <time>2025-03-12T08:55:18.643Z</time>
      </trkpt>
      <trkpt lat="47.91285" lon="5.06604">
        <ele>292.63</ele>
        <time>2025-03-12T08:55:21.078Z</time>
      </trkpt>
      <trkpt lat="47.91266" lon="5.06625">
        <ele>292.62</ele>
        <time>2025-03-12T08:55:23.517Z</time>
      </trkpt>
      <trkpt lat="47.91247" lon="5.06645">
        <ele>292.61</ele>
        <time>2025-03-12T08:55:25.960Z</time>
      </trkpt>
      <trkpt lat="47.9123" lon="5.06659">
        <ele>292.65</ele>
        <time>2025-03-12T08:55:28.406Z</time>
      </trkpt>
      <trkpt lat="47.91217" lon="5.06665">
        <ele>292.7</ele>
        <time>2025-03-12T08:55:30.854Z</time>
      </trkpt>
      <trkpt lat="47.91203" lon="5.06663">
        <ele>292.76</ele>
        <time>2025-03-12T08:55:33.304Z</time>
      </trkpt>
      <trkpt lat="47.91189" lon="5.06662">
        <ele>292.86</ele>
        <time>2025-03-12T08:55:35.756Z</time>
      </trkpt>
      <trkpt lat="47.91171" lon="5.06652">
        <ele>292.95</ele>
        <time>2025-03-12T08:55:38.211Z</time>
      </trkpt>
      <trkpt lat="47.91154" lon="5.06643">
        <ele>293.03</ele>
        <time>2025-03-12T08:55:40.669Z</time>
      </trkpt>
      <trkpt lat="47.91127" lon="5.06626">
        <ele>293.12</ele>
        <time>2025-03-12T08:55:43.132Z</time>
      </trkpt>
      <trkpt lat="47.91101" lon="5.06609">
        <ele>293.24</ele>
        <time>2025-03-12T08:55:45.600Z</time>
      </trkpt>
      <trkpt lat="47.91095" lon="5.06603">
        <ele>293.38</ele>
        <time>2025-03-12T08:55:48.069Z</time>
      </trkpt>
      <trkpt lat="47.91075" lon="5.06584">
        <ele>293.67</ele>
        <time>2025-03-12T08:55:50.542Z</time>
      </trkpt>
      <trkpt lat="47.91055" lon="5.06565">
        <ele>293.93</ele>
        <time>2025-03-12T08:55:53.018Z</time>
      </trkpt>
      <trkpt lat="47.91039" lon="5.06551">
        <ele>294.12</ele>
        <time>2025-03-12T08:55:55.497Z</time>
      </trkpt>
      <trkpt lat="47.91023" lon="5.06537">
        <ele>294.21</ele>
        <time>2025-03-12T08:55:57.979Z</time>
      </trkpt>
      <trkpt lat="47.91007" lon="5.06527">
        <ele>294.32</ele>
        <time>2025-03-12T08:56:00.464Z</time>
      </trkpt>
      <trkpt lat="47.90991" lon="5.06516">
        <ele>294.45</ele>
        <time>2025-03-12T08:56:02.952Z</time>
      </trkpt>
      <trkpt lat="47.90978" lon="5.0651">
        <ele>294.63</ele>
        <time>2025-03-12T08:56:05.442Z</time>
      </trkpt>
      <trkpt lat="47.90964" lon="5.06509">
        <ele>294.84</ele>
        <time>2025-03-12T08:56:07.934Z</time>
      </trkpt>
      <trkpt lat="47.90946" lon="5.06514">
        <ele>295.08</ele>
        <time>2025-03-12T08:56:10.429Z</time>
      </trkpt>
      <trkpt lat="47.90927" lon="5.0652">
        <ele>295.36</ele>
        <time>2025-03-12T08:56:12.927Z</time>
      </trkpt>
      <trkpt lat="47.90907" lon="5.06529">
        <ele>295.62</ele>
        <time>2025-03-12T08:56:15.429Z</time>
      </trkpt>
      <trkpt lat="47.90887" lon="5.06538">
        <ele>295.9</ele>
        <time>2025-03-12T08:56:17.934Z</time>
      </trkpt>
      <trkpt lat="47.90872" lon="5.06552">
        <ele>296.16</ele>
        <time>2025-03-12T08:56:20.442Z</time>
      </trkpt>
      <trkpt lat="47.90856" lon="5.06566">
        <ele>296.42</ele>
        <time>2025-03-12T08:56:22.953Z</time>
      </trkpt>
      <trkpt lat="47.90842" lon="5.0658">
        <ele>296.67</ele>
        <time>2025-03-12T08:56:25.467Z</time>
      </trkpt>
      <trkpt lat="47.90828" lon="5.06595">
        <ele>296.91</ele>
        <time>2025-03-12T08:56:27.983Z</time>
      </trkpt>
      <trkpt lat="47.90813" lon="5.0661">
        <ele>297.14</ele>
        <time>2025-03-12T08:56:30.502Z</time>
      </trkpt>
      <trkpt lat="47.90797" lon="5.06625">
        <ele>297.37</ele>
        <time>2025-03-12T08:56:33.024Z</time>
      </trkpt>
      <trkpt lat="47.90783" lon="5.06639">
        <ele>297.6</ele>
        <time>2025-03-12T08:56:35.549Z</time>
      </trkpt>
      <trkpt lat="47.90768" lon="5.06653">
        <ele>297.85</ele>
        <time>2025-03-12T08:56:38.077Z</time>
      </trkpt>
      <trkpt lat="47.90747" lon="5.06668">
        <ele>298.08</ele>
        <time>2025-03-12T08:56:40.608Z</time>
      </trkpt>
      <trkpt lat="47.90727" lon="5.06683">
        <ele>298.3</ele>
        <time>2025-03-12T08:56:43.143Z</time>
      </trkpt>
      <trkpt lat="47.90713" lon="5.06695">
        <ele>298.54</ele>
        <time>2025-03-12T08:56:45.681Z</time>
      </trkpt>
      <trkpt lat="47.90699" lon="5.06708">
        <ele>298.77</ele>
        <time>2025-03-12T08:56:48.221Z</time>
      </trkpt>
      <trkpt lat="47.90687" lon="5.06725">
        <ele>299</ele>
        <time>2025-03-12T08:56:50.764Z</time>
      </trkpt>
      <trkpt lat="47.90676" lon="5.06741">
        <ele>299.22</ele>
        <time>2025-03-12T08:56:53.309Z</time>
      </trkpt>
      <trkpt lat="47.90665" lon="5.06759">
        <ele>299.44</ele>
        <time>2025-03-12T08:56:55.857Z</time>
      </trkpt>
      <trkpt lat="47.90657" lon="5.0678">
        <ele>299.65</ele>
        <time>2025-03-12T08:56:58.408Z</time>
      </trkpt>
      <trkpt lat="47.90643" lon="5.06815">
        <ele>299.82</ele>
        <time>2025-03-12T08:57:00.963Z</time>
      </trkpt>
      <trkpt lat="47.90638" lon="5.06828">
        <ele>300.02</ele>
        <time>2025-03-12T08:57:03.520Z</time>
      </trkpt>
      <trkpt lat="47.90629" lon="5.06853">
        <ele>300.2</ele>
        <time>2025-03-12T08:57:06.080Z</time>
      </trkpt>
      <trkpt lat="47.9062" lon="5.06877">
        <ele>300.39</ele>
        <time>2025-03-12T08:57:08.643Z</time>
      </trkpt>
      <trkpt lat="47.90612" lon="5.06887">
        <ele>300.62</ele>
        <time>2025-03-12T08:57:11.207Z</time>
      </trkpt>
      <trkpt lat="47.90608" lon="5.0689">
        <ele>300.86</ele>
        <time>2025-03-12T08:57:13.772Z</time>
      </trkpt>
      <trkpt lat="47.90603" lon="5.06891">
        <ele>301.12</ele>
        <time>2025-03-12T08:57:16.338Z</time>
      </trkpt>
      <trkpt lat="47.90591" lon="5.06893">
        <ele>301.4</ele>
        <time>2025-03-12T08:57:18.906Z</time>
      </trkpt>
      <trkpt lat="47.90586" lon="5.06894">
        <ele>301.69</ele>
        <time>2025-03-12T08:57:21.475Z</time>
      </trkpt>
      <trkpt lat="47.90579" lon="5.06897">
        <ele>301.99</ele>
        <time>2025-03-12T08:57:24.045Z</time>
      </trkpt>
      <trkpt lat="47.90564" lon="5.06911">
        <ele>302.29</ele>
        <time>2025-03-12T08:57:26.618Z</time>
      </trkpt>
      <trkpt lat="47.90542" lon="5.06931">
        <ele>302.62</ele>
        <time>2025-03-12T08:57:29.195Z</time>
      </trkpt>
      <trkpt lat="47.90521" lon="5.06951">
        <ele>302.98</ele>
        <time>2025-03-12T08:57:31.776Z</time>
      </trkpt>
      <trkpt lat="47.90503" lon="5.06968">
        <ele>303.36</ele>
        <time>2025-03-12T08:57:34.360Z</time>
      </trkpt>
      <trkpt lat="47.90486" lon="5.06985">
        <ele>303.82</ele>
        <time>2025-03-12T08:57:36.947Z</time>
      </trkpt>
      <trkpt lat="47.90463" lon="5.07007">
        <ele>304.37</ele>
        <time>2025-03-12T08:57:39.539Z</time>
      </trkpt>
      <trkpt lat="47.90459" lon="5.07011">
        <ele>304.84</ele>
        <time>2025-03-12T08:57:42.132Z</time>
      </trkpt>
      <trkpt lat="47.90446" lon="5.07032">
        <ele>305.34</ele>
        <time>2025-03-12T08:57:44.728Z</time>
      </trkpt>
      <trkpt lat="47.90433" lon="5.07052">
        <ele>305.81</ele>
        <time>2025-03-12T08:57:47.327Z</time>
      </trkpt>
      <trkpt lat="47.9042" lon="5.07076">
        <ele>306.26</ele>
        <time>2025-03-12T08:57:49.929Z</time>
      </trkpt>
      <trkpt lat="47.90407" lon="5.07099">
        <ele>306.71</ele>
        <time>2025-03-12T08:57:52.534Z</time>
      </trkpt>
      <trkpt lat="47.90394" lon="5.07123">
        <ele>307.12</ele>
        <time>2025-03-12T08:57:55.143Z</time>
      </trkpt>
      <trkpt lat="47.9038" lon="5.07147">
        <ele>307.6</ele>
        <time>2025-03-12T08:57:57.755Z</time>
      </trkpt>
      <trkpt lat="47.90366" lon="5.07174">
        <ele>308.12</ele>
        <time>2025-03-12T08:58:00.371Z</time>
      </trkpt>
      <trkpt lat="47.90351" lon="5.072">
        <ele>308.64</ele>
        <time>2025-03-12T08:58:02.990Z</time>
      </trkpt>
      <trkpt lat="47.9034" lon="5.07219">
        <ele>309.18</ele>
        <time>2025-03-12T08:58:05.612Z</time>
      </trkpt>
      <trkpt lat="47.9033" lon="5.07239">
        <ele>309.71</ele>
        <time>2025-03-12T08:58:08.237Z</time>
      </trkpt>
      <trkpt lat="47.90313" lon="5.07269">
        <ele>310.3</ele>
        <time>2025-03-12T08:58:10.866Z</time>
      </trkpt>
      <trkpt lat="47.90302" lon="5.07288">
        <ele>310.83</ele>
        <time>2025-03-12T08:58:13.498Z</time>
      </trkpt>
      <trkpt lat="47.90291" lon="5.07307">
        <ele>311.35</ele>
        <time>2025-03-12T08:58:16.132Z</time>
      </trkpt>
      <trkpt lat="47.90273" lon="5.0734">
        <ele>311.9</ele>
        <time>2025-03-12T08:58:18.771Z</time>
      </trkpt>
      <trkpt lat="47.90263" lon="5.07359">
        <ele>312.42</ele>
        <time>2025-03-12T08:58:21.412Z</time>
      </trkpt>
      <trkpt lat="47.90253" lon="5.07377">
        <ele>312.93</ele>
        <time>2025-03-12T08:58:24.056Z</time>
      </trkpt>
      <trkpt lat="47.90235" lon="5.0741">
        <ele>313.44</ele>
        <time>2025-03-12T08:58:26.705Z</time>
      </trkpt>
      <trkpt lat="47.90224" lon="5.07429">
        <ele>313.9</ele>
        <time>2025-03-12T08:58:29.356Z</time>
      </trkpt>
      <trkpt lat="47.90213" lon="5.07449">
        <ele>314.34</ele>
        <time>2025-03-12T08:58:32.010Z</time>
      </trkpt>
      <trkpt lat="47.90205" lon="5.07464">
        <ele>314.74</ele>
        <time>2025-03-12T08:58:34.666Z</time>
      </trkpt>
      <trkpt lat="47.90196" lon="5.07479">
        <ele>315.09</ele>
        <time>2025-03-12T08:58:37.324Z</time>
      </trkpt>
      <trkpt lat="47.90186" lon="5.07497">
        <ele>315.41</ele>
        <time>2025-03-12T08:58:39.985Z</time>
      </trkpt>
      <trkpt lat="47.90176" lon="5.07515">
        <ele>315.7</ele>
        <time>2025-03-12T08:58:42.648Z</time>
      </trkpt>
      <trkpt lat="47.90165" lon="5.07535">
        <ele>316</ele>
        <time>2025-03-12T08:58:45.314Z</time>
      </trkpt>
      <trkpt lat="47.90154" lon="5.07555">
        <ele>316.23</ele>
        <time>2025-03-12T08:58:47.983Z</time>
      </trkpt>
      <trkpt lat="47.90145" lon="5.0757">
        <ele>316.41</ele>
        <time>2025-03-12T08:58:50.654Z</time>
      </trkpt>
      <trkpt lat="47.9013" lon="5.07588">
        <ele>316.51</ele>
        <time>2025-03-12T08:58:53.328Z</time>
      </trkpt>
      <trkpt lat="47.90103" lon="5.07603">
        <ele>316.58</ele>
        <time>2025-03-12T08:58:56.007Z</time>
      </trkpt>
      <trkpt lat="47.90086" lon="5.07609">
        <ele>316.65</ele>
        <time>2025-03-12T08:58:58.688Z</time>
      </trkpt>
      <trkpt lat="47.90069" lon="5.07616">
        <ele>316.72</ele>
        <time>2025-03-12T08:59:01.372Z</time>
      </trkpt>
      <trkpt lat="47.90046" lon="5.07625">
        <ele>316.8</ele>
        <time>2025-03-12T08:59:04.060Z</time>
      </trkpt>
      <trkpt lat="47.90023" lon="5.07634">
        <ele>316.83</ele>
        <time>2025-03-12T08:59:06.752Z</time>
      </trkpt>
      <trkpt lat="47.89999" lon="5.07644">
        <ele>316.82</ele>
        <time>2025-03-12T08:59:09.448Z</time>
      </trkpt>
      <trkpt lat="47.89975" lon="5.07653">
        <ele>316.87</ele>
        <time>2025-03-12T08:59:12.148Z</time>
      </trkpt>
      <trkpt lat="47.89953" lon="5.07667">
        <ele>316.9</ele>
        <time>2025-03-12T08:59:14.852Z</time>
      </trkpt>
      <trkpt lat="47.89931" lon="5.0768">
        <ele>316.94</ele>
        <time>2025-03-12T08:59:17.560Z</time>
      </trkpt>
      <trkpt lat="47.89911" lon="5.07692">
        <ele>316.9</ele>
        <time>2025-03-12T08:59:20.271Z</time>
      </trkpt>
      <trkpt lat="47.89892" lon="5.07704">
        <ele>316.82</ele>
        <time>2025-03-12T08:59:22.985Z</time>
      </trkpt>
      <trkpt lat="47.89873" lon="5.07722">
        <ele>316.8</ele>
        <time>2025-03-12T08:59:25.703Z</time>
      </trkpt>
      <trkpt lat="47.89854" lon="5.0774">
        <ele>316.75</ele>
        <time>2025-03-12T08:59:28.424Z</time>
      </trkpt>
      <trkpt lat="47.89837" lon="5.07763">
        <ele>316.52</ele>
        <time>2025-03-12T08:59:31.149Z</time>
      </trkpt>
      <trkpt lat="47.8982" lon="5.07785">
        <ele>316.4</ele>
        <time>2025-03-12T08:59:33.878Z</time>
      </trkpt>
      <trkpt lat="47.89804" lon="5.07815">
        <ele>316.17</ele>
        <time>2025-03-12T08:59:36.611Z</time>
      </trkpt>
      <trkpt lat="47.89788" lon="5.07844">
        <ele>315.96</ele>
        <time>2025-03-12T08:59:39.348Z</time>
      </trkpt>
      <trkpt lat="47.8977" lon="5.07878">
        <ele>315.59</ele>
        <time>2025-03-12T08:59:42.090Z</time>
      </trkpt>
      <trkpt lat="47.89752" lon="5.07912">
        <ele>315.41</ele>
        <time>2025-03-12T08:59:44.836Z</time>
      </trkpt>
      <trkpt lat="47.8974" lon="5.07936">
        <ele>315.35</ele>
        <time>2025-03-12T08:59:47.585Z</time>
      </trkpt>
      <trkpt lat="47.89727" lon="5.0796">
        <ele>315.34</ele>
        <time>2025-03-12T08:59:50.338Z</time>
      </trkpt>
      <trkpt lat="47.89714" lon="5.07985">
        <ele>315.37</ele>
        <time>2025-03-12T08:59:53.094Z</time>
      </trkpt>
      <trkpt lat="47.897" lon="5.0801">
        <ele>315.39</ele>
        <time>2025-03-12T08:59:55.854Z</time>
      </trkpt>
      <trkpt lat="47.89682" lon="5.08045">
        <ele>315.54</ele>
        <time>2025-03-12T08:59:58.618Z</time>
      </trkpt>
      <trkpt lat="47.89672" lon="5.08063">
        <ele>315.62</ele>
        <time>2025-03-12T09:00:01.385Z</time>
      </trkpt>
      <trkpt lat="47.89666" lon="5.08075">
        <ele>315.7</ele>
        <time>2025-03-12T09:00:04.154Z</time>
      </trkpt>
      <trkpt lat="47.89663" lon="5.0808">
        <ele>315.75</ele>
        <time>2025-03-12T09:00:06.923Z</time>
      </trkpt>
      <trkpt lat="47.89644" lon="5.08116">
        <ele>315.85</ele>
        <time>2025-03-12T09:00:09.697Z</time>
      </trkpt>
      <trkpt lat="47.89632" lon="5.08138">
        <ele>315.88</ele>
        <time>2025-03-12T09:00:12.474Z</time>
      </trkpt>
      <trkpt lat="47.89621" lon="5.08159">
        <ele>315.9</ele>
        <time>2025-03-12T09:00:15.254Z</time>
      </trkpt>
      <trkpt lat="47.89618" lon="5.08163">
        <ele>315.93</ele>
        <time>2025-03-12T09:00:18.035Z</time>
      </trkpt>
      <trkpt lat="47.89608" lon="5.08179">
        <ele>315.96</ele>
        <time>2025-03-12T09:00:20.818Z</time>
      </trkpt>
      <trkpt lat="47.89593" lon="5.08203">
        <ele>315.97</ele>
        <time>2025-03-12T09:00:23.605Z</time>
      </trkpt>
      <trkpt lat="47.89578" lon="5.08227">
        <ele>315.93</ele>
        <time>2025-03-12T09:00:26.395Z</time>
      </trkpt>
      <trkpt lat="47.89565" lon="5.08248">
        <ele>315.89</ele>
        <time>2025-03-12T09:00:29.188Z</time>
      </trkpt>
      <trkpt lat="47.89552" lon="5.08269">
        <ele>315.79</ele>
        <time>2025-03-12T09:00:31.984Z</time>
      </trkpt>
      <trkpt lat="47.89535" lon="5.08298">
        <ele>315.74</ele>
        <time>2025-03-12T09:00:34.784Z</time>
      </trkpt>
      <trkpt lat="47.89518" lon="5.08328">
        <ele>315.7</ele>
        <time>2025-03-12T09:00:37.589Z</time>
      </trkpt>
      <trkpt lat="47.89506" lon="5.08365">
        <ele>315.67</ele>
        <time>2025-03-12T09:00:40.398Z</time>
      </trkpt>
      <trkpt lat="47.89498" lon="5.08391">
        <ele>315.56</ele>
        <time>2025-03-12T09:00:43.210Z</time>
      </trkpt>
      <trkpt lat="47.89489" lon="5.08416">
        <ele>315.45</ele>
        <time>2025-03-12T09:00:46.025Z</time>
      </trkpt>
      <trkpt lat="47.89481" lon="5.08441">
        <ele>315.32</ele>
        <time>2025-03-12T09:00:48.843Z</time>
      </trkpt>
      <trkpt lat="47.89478" lon="5.0845">
        <ele>315.15</ele>
        <time>2025-03-12T09:00:51.662Z</time>
      </trkpt>
      <trkpt lat="47.89488" lon="5.08461">
        <ele>314.95</ele>
        <time>2025-03-12T09:00:54.483Z</time>
      </trkpt>
      <trkpt lat="47.89497" lon="5.08466">
        <ele>314.73</ele>
        <time>2025-03-12T09:00:57.306Z</time>
      </trkpt>
      <trkpt lat="47.89513" lon="5.08476">
        <ele>314.49</ele>
        <time>2025-03-12T09:01:00.132Z</time>
      </trkpt>
      <trkpt lat="47.8953" lon="5.08486">
        <ele>314.21</ele>
        <time>2025-03-12T09:01:02.960Z</time>
      </trkpt>
      <trkpt lat="47.89552" lon="5.08499">
        <ele>313.91</ele>
        <time>2025-03-12T09:01:05.792Z</time>
      </trkpt>
      <trkpt lat="47.89574" lon="5.08513">
        <ele>313.6</ele>
        <time>2025-03-12T09:01:08.628Z</time>
      </trkpt>
      <trkpt lat="47.89594" lon="5.08535">
        <ele>313.3</ele>
        <time>2025-03-12T09:01:11.468Z</time>
      </trkpt>
      <trkpt lat="47.89599" lon="5.08543">
        <ele>313.01</ele>
        <time>2025-03-12T09:01:14.309Z</time>
      </trkpt>
      <trkpt lat="47.89612" lon="5.08577">
        <ele>312.64</ele>
        <time>2025-03-12T09:01:17.155Z</time>
      </trkpt>
      <trkpt lat="47.89613" lon="5.08588">
        <ele>312.37</ele>
        <time>2025-03-12T09:01:20.002Z</time>
      </trkpt>
      <trkpt lat="47.89615" lon="5.086">
        <ele>312.12</ele>
        <time>2025-03-12T09:01:22.850Z</time>
      </trkpt>
      <trkpt lat="47.89615" lon="5.08621">
        <ele>311.83</ele>
        <time>2025-03-12T09:01:25.700Z</time>
      </trkpt>
      <trkpt lat="47.89612" lon="5.08632">
        <ele>311.62</ele>
        <time>2025-03-12T09:01:28.552Z</time>
      </trkpt>
      <trkpt lat="47.89608" lon="5.08643">
        <ele>311.45</ele>
        <time>2025-03-12T09:01:31.405Z</time>
      </trkpt>
      <trkpt lat="47.89597" lon="5.08679">
        <ele>311.25</ele>
        <time>2025-03-12T09:01:34.262Z</time>
      </trkpt>
      <trkpt lat="47.89584" lon="5.08717">
        <ele>311.1</ele>
        <time>2025-03-12T09:01:37.124Z</time>
      </trkpt>
      <trkpt lat="47.89572" lon="5.08756">
        <ele>310.99</ele>
        <time>2025-03-12T09:01:39.990Z</time>
      </trkpt>
      <trkpt lat="47.89567" lon="5.08769">
        <ele>311</ele>
        <time>2025-03-12T09:01:42.858Z</time>
      </trkpt>
      <trkpt lat="47.89564" lon="5.08795">
        <ele>311.08</ele>
        <time>2025-03-12T09:01:45.729Z</time>
      </trkpt>
      <trkpt lat="47.89561" lon="5.08819">
        <ele>311.24</ele>
        <time>2025-03-12T09:01:48.602Z</time>
      </trkpt>
      <trkpt lat="47.89557" lon="5.08845">
        <ele>311.5</ele>
        <time>2025-03-12T09:01:51.478Z</time>
      </trkpt>
      <trkpt lat="47.89553" lon="5.08871">
        <ele>311.77</ele>
        <time>2025-03-12T09:01:54.357Z</time>
      </trkpt>
      <trkpt lat="47.89543" lon="5.08914">
        <ele>312.19</ele>
        <time>2025-03-12T09:01:57.241Z</time>
      </trkpt>
      <trkpt lat="47.89539" lon="5.08929">
        <ele>312.42</ele>
        <time>2025-03-12T09:02:00.127Z</time>
      </trkpt>
      <trkpt lat="47.89533" lon="5.08952">
        <ele>312.54</ele>
        <time>2025-03-12T09:02:03.015Z</time>
      </trkpt>
      <trkpt lat="47.89525" lon="5.08986">
        <ele>312.69</ele>
        <time>2025-03-12T09:02:05.907Z</time>
      </trkpt>
      <trkpt lat="47.8952" lon="5.09008">
        <ele>312.88</ele>
        <time>2025-03-12T09:02:08.802Z</time>
      </trkpt>
      <trkpt lat="47.89514" lon="5.09031">
        <ele>313.08</ele>
        <time>2025-03-12T09:02:11.699Z</time>
      </trkpt>
      <trkpt lat="47.89508" lon="5.09055">
        <ele>313.27</ele>
        <time>2025-03-12T09:02:14.599Z</time>
      </trkpt>
      <trkpt lat="47.89502" lon="5.09079">
        <ele>313.45</ele>
        <time>2025-03-12T09:02:17.502Z</time>
      </trkpt>
      <trkpt lat="47.89492" lon="5.09119">
        <ele>313.6</ele>
        <time>2025-03-12T09:02:20.410Z</time>
      </trkpt>
      <trkpt lat="47.89485" lon="5.09145">
        <ele>313.72</ele>
        <time>2025-03-12T09:02:23.321Z</time>
      </trkpt>
      <trkpt lat="47.89478" lon="5.09172">
        <ele>313.81</ele>
        <time>2025-03-12T09:02:26.235Z</time>
      </trkpt>
      <trkpt lat="47.8947" lon="5.09204">
        <ele>313.9</ele>
        <time>2025-03-12T09:02:29.152Z</time>
      </trkpt>
      <trkpt lat="47.89461" lon="5.09236">
        <ele>313.98</ele>
        <time>2025-03-12T09:02:32.073Z</time>
      </trkpt>
      <trkpt lat="47.8945" lon="5.09276">
        <ele>314.06</ele>
        <time>2025-03-12T09:02:34.999Z</time>
      </trkpt>
      <trkpt lat="47.89447" lon="5.09289">
        <ele>314.06</ele>
        <time>2025-03-12T09:02:37.926Z</time>
      </trkpt>
      <trkpt lat="47.89441" lon="5.09297">
        <ele>314.05</ele>
        <time>2025-03-12T09:02:40.855Z</time>
      </trkpt>
      <trkpt lat="47.89438" lon="5.09301">
        <ele>314</ele>
        <time>2025-03-12T09:02:43.784Z</time>
      </trkpt>
      <trkpt lat="47.89425" lon="5.09316">
        <ele>313.98</ele>
        <time>2025-03-12T09:02:46.716Z</time>
      </trkpt>
      <trkpt lat="47.89423" lon="5.09319">
        <ele>313.88</ele>
        <time>2025-03-12T09:02:49.648Z</time>
      </trkpt>
      <trkpt lat="47.89417" lon="5.09327">
        <ele>313.74</ele>
        <time>2025-03-12T09:02:52.582Z</time>
      </trkpt>
      <trkpt lat="47.89418" lon="5.09333">
        <ele>313.58</ele>
        <time>2025-03-12T09:02:55.516Z</time>
      </trkpt>
      <trkpt lat="47.89421" lon="5.09336">
        <ele>313.41</ele>
        <time>2025-03-12T09:02:58.451Z</time>
      </trkpt>
      <trkpt lat="47.89429" lon="5.09344">
        <ele>313.21</ele>
        <time>2025-03-12T09:03:01.387Z</time>
      </trkpt>
      <trkpt lat="47.89437" lon="5.09348">
        <ele>312.97</ele>
        <time>2025-03-12T09:03:04.325Z</time>
      </trkpt>
      <trkpt lat="47.89446" lon="5.09351">
        <ele>312.72</ele>
        <time>2025-03-12T09:03:07.264Z</time>
      </trkpt>
      <trkpt lat="47.89452" lon="5.09363">
        <ele>312.49</ele>
        <time>2025-03-12T09:03:10.205Z</time>
      </trkpt>
      <trkpt lat="47.89452" lon="5.0937">
        <ele>312.31</ele>
        <time>2025-03-12T09:03:13.147Z</time>
      </trkpt>
      <trkpt lat="47.89451" lon="5.09377">
        <ele>312.14</ele>
        <time>2025-03-12T09:03:16.089Z</time>
      </trkpt>
      <trkpt lat="47.8945" lon="5.09395">
        <ele>311.96</ele>
        <time>2025-03-12T09:03:19.033Z</time>
      </trkpt>
      <trkpt lat="47.89447" lon="5.09421">
        <ele>311.79</ele>
        <time>2025-03-12T09:03:21.980Z</time>
      </trkpt>
      <trkpt lat="47.89445" lon="5.09446">
        <ele>311.63</ele>
        <time>2025-03-12T09:03:24.930Z</time>
      </trkpt>
      <trkpt lat="47.8944" lon="5.09475">
        <ele>311.46</ele>
        <time>2025-03-12T09:03:27.883Z</time>
      </trkpt>
      <trkpt lat="47.89434" lon="5.09503">
        <ele>311.32</ele>
        <time>2025-03-12T09:03:30.839Z</time>
      </trkpt>
      <trkpt lat="47.89425" lon="5.09532">
        <ele>311.31</ele>
        <time>2025-03-12T09:03:33.799Z</time>
      </trkpt>
      <trkpt lat="47.89416" lon="5.0956">
        <ele>311.39</ele>
        <time>2025-03-12T09:03:36.762Z</time>
      </trkpt>
      <trkpt lat="47.89408" lon="5.09586">
        <ele>311.63</ele>
        <time>2025-03-12T09:03:39.728Z</time>
      </trkpt>
      <trkpt lat="47.89404" lon="5.09603">
        <ele>311.95</ele>
        <time>2025-03-12T09:03:42.696Z</time>
      </trkpt>
      <trkpt lat="47.89407" lon="5.09619">
        <ele>312.28</ele>
        <time>2025-03-12T09:03:45.666Z</time>
      </trkpt>
      <trkpt lat="47.89411" lon="5.09624">
        <ele>312.55</ele>
        <time>2025-03-12T09:03:48.637Z</time>
      </trkpt>
      <trkpt lat="47.89415" lon="5.09628">
        <ele>312.86</ele>
        <time>2025-03-12T09:03:51.609Z</time>
      </trkpt>
      <trkpt lat="47.8943" lon="5.09642">
        <ele>313.2</ele>
        <time>2025-03-12T09:03:54.583Z</time>
      </trkpt>
      <trkpt lat="47.89435" lon="5.09646">
        <ele>313.6</ele>
        <time>2025-03-12T09:03:57.558Z</time>
      </trkpt>
      <trkpt lat="47.89456" lon="5.09666">
        <ele>314.06</ele>
        <time>2025-03-12T09:04:00.537Z</time>
      </trkpt>
      <trkpt lat="47.89461" lon="5.09672">
        <ele>314.56</ele>
        <time>2025-03-12T09:04:03.517Z</time>
      </trkpt>
      <trkpt lat="47.89476" lon="5.09692">
        <ele>315.1</ele>
        <time>2025-03-12T09:04:06.500Z</time>
      </trkpt>
      <trkpt lat="47.89481" lon="5.09698">
        <ele>315.67</ele>
        <time>2025-03-12T09:04:09.485Z</time>
      </trkpt>
      <trkpt lat="47.89486" lon="5.09705">
        <ele>316.27</ele>
        <time>2025-03-12T09:04:12.471Z</time>
      </trkpt>
      <trkpt lat="47.89497" lon="5.09727">
        <ele>316.89</ele>
        <time>2025-03-12T09:04:15.460Z</time>
      </trkpt>
      <trkpt lat="47.895" lon="5.09735">
        <ele>317.59</ele>
        <time>2025-03-12T09:04:18.450Z</time>
      </trkpt>
      <trkpt lat="47.89503" lon="5.09751">
        <ele>318.33</ele>
        <time>2025-03-12T09:04:21.441Z</time>
      </trkpt>
      <trkpt lat="47.89505" lon="5.09757">
        <ele>319.11</ele>
        <time>2025-03-12T09:04:24.433Z</time>
      </trkpt>
      <trkpt lat="47.89503" lon="5.09764">
        <ele>319.95</ele>
        <time>2025-03-12T09:04:27.426Z</time>
      </trkpt>
      <trkpt lat="47.89498" lon="5.09782">
        <ele>320.87</ele>
        <time>2025-03-12T09:04:30.421Z</time>
      </trkpt>
      <trkpt lat="47.89491" lon="5.09805">
        <ele>321.79</ele>
        <time>2025-03-12T09:04:33.419Z</time>
      </trkpt>
      <trkpt lat="47.89485" lon="5.09828">
        <ele>322.73</ele>
        <time>2025-03-12T09:04:36.419Z</time>
      </trkpt>
      <trkpt lat="47.89478" lon="5.09852">
        <ele>323.68</ele>
        <time>2025-03-12T09:04:39.422Z</time>
      </trkpt>
      <trkpt lat="47.8947" lon="5.0988">
        <ele>324.65</ele>
        <time>2025-03-12T09:04:42.428Z</time>
      </trkpt>
      <trkpt lat="47.89463" lon="5.09922">
        <ele>325.68</ele>
        <time>2025-03-12T09:04:45.439Z</time>
      </trkpt>
      <trkpt lat="47.8946" lon="5.09957">
        <ele>326.57</ele>
        <time>2025-03-12T09:04:48.454Z</time>
      </trkpt>
      <trkpt lat="47.89457" lon="5.0999">
        <ele>327.45</ele>
        <time>2025-03-12T09:04:51.472Z</time>
      </trkpt>
      <trkpt lat="47.89456" lon="5.10023">
        <ele>328.4</ele>
        <time>2025-03-12T09:04:54.494Z</time>
      </trkpt>
      <trkpt lat="47.89455" lon="5.10054">
        <ele>329.28</ele>
        <time>2025-03-12T09:04:57.519Z</time>
      </trkpt>
      <trkpt lat="47.89454" lon="5.1009">
        <ele>330.11</ele>
        <time>2025-03-12T09:05:00.548Z</time>
      </trkpt>
      <trkpt lat="47.89455" lon="5.10124">
        <ele>330.87</ele>
        <time>2025-03-12T09:05:03.581Z</time>
      </trkpt>
      <trkpt lat="47.89461" lon="5.1016">
        <ele>331.58</ele>
        <time>2025-03-12T09:05:06.618Z</time>
      </trkpt>
      <trkpt lat="47.89472" lon="5.1019">
        <ele>332.27</ele>
        <time>2025-03-12T09:05:09.659Z</time>
      </trkpt>
      <trkpt lat="47.89481" lon="5.10215">
        <ele>332.99</ele>
        <time>2025-03-12T09:05:12.703Z</time>
      </trkpt>
      <trkpt lat="47.89495" lon="5.10253">
        <ele>333.71</ele>
        <time>2025-03-12T09:05:15.751Z</time>
      </trkpt>
      <trkpt lat="47.89504" lon="5.10276">
        <ele>334.35</ele>
        <time>2025-03-12T09:05:18.802Z</time>
      </trkpt>
      <trkpt lat="47.89512" lon="5.10299">
        <ele>334.88</ele>
        <time>2025-03-12T09:05:21.856Z</time>
      </trkpt>
      <trkpt lat="47.89524" lon="5.10331">
        <ele>335.4</ele>
        <time>2025-03-12T09:05:24.914Z</time>
      </trkpt>
      <trkpt lat="47.89537" lon="5.10365">
        <ele>335.91</ele>
        <time>2025-03-12T09:05:27.976Z</time>
      </trkpt>
      <trkpt lat="47.89552" lon="5.10405">
        <ele>336.5</ele>
        <time>2025-03-12T09:05:31.043Z</time>
      </trkpt>
      <trkpt lat="47.89558" lon="5.10423">
        <ele>337.05</ele>
        <time>2025-03-12T09:05:34.112Z</time>
      </trkpt>
      <trkpt lat="47.89567" lon="5.10446">
        <ele>337.61</ele>
        <time>2025-03-12T09:05:37.184Z</time>
      </trkpt>
      <trkpt lat="47.89573" lon="5.1047">
        <ele>338.14</ele>
        <time>2025-03-12T09:05:40.259Z</time>
      </trkpt>
      <trkpt lat="47.8958" lon="5.10493">
        <ele>338.62</ele>
        <time>2025-03-12T09:05:43.337Z</time>
      </trkpt>
      <trkpt lat="47.89584" lon="5.10517">
        <ele>339.05</ele>
        <time>2025-03-12T09:05:46.417Z</time>
      </trkpt>
      <trkpt lat="47.89588" lon="5.10541">
        <ele>339.47</ele>
        <time>2025-03-12T09:05:49.500Z</time>
      </trkpt>
      <trkpt lat="47.89593" lon="5.10567">
        <ele>339.93</ele>
        <time>2025-03-12T09:05:52.586Z</time>
      </trkpt>
      <trkpt lat="47.89597" lon="5.10592">
        <ele>340.37</ele>
        <time>2025-03-12T09:05:55.675Z</time>
      </trkpt>
      <trkpt lat="47.89602" lon="5.10617">
        <ele>340.79</ele>
        <time>2025-03-12T09:05:58.766Z</time>
      </trkpt>
      <trkpt lat="47.89606" lon="5.10642">
        <ele>341.19</ele>
        <time>2025-03-12T09:06:01.860Z</time>
      </trkpt>
      <trkpt lat="47.89612" lon="5.10675">
        <ele>341.65</ele>
        <time>2025-03-12T09:06:04.958Z</time>
      </trkpt>
      <trkpt lat="47.89618" lon="5.10708">
        <ele>342.05</ele>
        <time>2025-03-12T09:06:08.059Z</time>
      </trkpt>
      <trkpt lat="47.89623" lon="5.10736">
        <ele>342.53</ele>
        <time>2025-03-12T09:06:11.164Z</time>
      </trkpt>
      <trkpt lat="47.89628" lon="5.10764">
        <ele>342.93</ele>
        <time>2025-03-12T09:06:14.272Z</time>
      </trkpt>
      <trkpt lat="47.89633" lon="5.10791">
        <ele>343.35</ele>
        <time>2025-03-12T09:06:17.383Z</time>
      </trkpt>
      <trkpt lat="47.89637" lon="5.10818">
        <ele>343.8</ele>
        <time>2025-03-12T09:06:20.497Z</time>
      </trkpt>
      <trkpt lat="47.89642" lon="5.10843">
        <ele>344.25</ele>
        <time>2025-03-12T09:06:23.613Z</time>
      </trkpt>
      <trkpt lat="47.89646" lon="5.10867">
        <ele>344.68</ele>
        <time>2025-03-12T09:06:26.732Z</time>
      </trkpt>
      <trkpt lat="47.89651" lon="5.10895">
        <ele>345.1</ele>
        <time>2025-03-12T09:06:29.854Z</time>
      </trkpt>
      <trkpt lat="47.89656" lon="5.10923">
        <ele>345.55</ele>
        <time>2025-03-12T09:06:32.979Z</time>
      </trkpt>
      <trkpt lat="47.8966" lon="5.10943">
        <ele>345.99</ele>
        <time>2025-03-12T09:06:36.107Z</time>
      </trkpt>
      <trkpt lat="47.89663" lon="5.10962">
        <ele>346.45</ele>
        <time>2025-03-12T09:06:39.237Z</time>
      </trkpt>
      <trkpt lat="47.89671" lon="5.10986">
        <ele>346.89</ele>
        <time>2025-03-12T09:06:42.370Z</time>
      </trkpt>
      <trkpt lat="47.89679" lon="5.11009">
        <ele>347.38</ele>
        <time>2025-03-12T09:06:45.505Z</time>
      </trkpt>
      <trkpt lat="47.89688" lon="5.11034">
        <ele>347.85</ele>
        <time>2025-03-12T09:06:48.643Z</time>
      </trkpt>
      <trkpt lat="47.89696" lon="5.11058">
        <ele>348.3</ele>
        <time>2025-03-12T09:06:51.784Z</time>
      </trkpt>
      <trkpt lat="47.89711" lon="5.11098">
        <ele>348.76</ele>
        <time>2025-03-12T09:06:54.930Z</time>
      </trkpt>
      <trkpt lat="47.89721" lon="5.11124">
        <ele>349.19</ele>
        <time>2025-03-12T09:06:58.080Z</time>
      </trkpt>
      <trkpt lat="47.89732" lon="5.11149">
        <ele>349.64</ele>
        <time>2025-03-12T09:07:01.233Z</time>
      </trkpt>
      <trkpt lat="47.89742" lon="5.11174">
        <ele>350.05</ele>
        <time>2025-03-12T09:07:04.389Z</time>
      </trkpt>
      <trkpt lat="47.89752" lon="5.11198">
        <ele>350.41</ele>
        <time>2025-03-12T09:07:07.548Z</time>
      </trkpt>
      <trkpt lat="47.89763" lon="5.11224">
        <ele>350.76</ele>
        <time>2025-03-12T09:07:10.710Z</time>
      </trkpt>
      <trkpt lat="47.89773" lon="5.11248">
        <ele>351.06</ele>
        <time>2025-03-12T09:07:13.875Z</time>
      </trkpt>
      <trkpt lat="47.89783" lon="5.11273">
        <ele>351.31</ele>
        <time>2025-03-12T09:07:17.043Z</time>
      </trkpt>
      <trkpt lat="47.89799" lon="5.11311">
        <ele>351.57</ele>
        <time>2025-03-12T09:07:20.216Z</time>
      </trkpt>
      <trkpt lat="47.89815" lon="5.11341">
        <ele>351.83</ele>
        <time>2025-03-12T09:07:23.393Z</time>
      </trkpt>
      <trkpt lat="47.89826" lon="5.11361">
        <ele>352.08</ele>
        <time>2025-03-12T09:07:26.573Z</time>
      </trkpt>
      <trkpt lat="47.89837" lon="5.11381">
        <ele>352.32</ele>
        <time>2025-03-12T09:07:29.756Z</time>
      </trkpt>
      <trkpt lat="47.89857" lon="5.11416">
        <ele>352.53</ele>
        <time>2025-03-12T09:07:32.944Z</time>
      </trkpt>
      <trkpt lat="47.89871" lon="5.11432">
        <ele>352.63</ele>
        <time>2025-03-12T09:07:36.135Z</time>
      </trkpt>
      <trkpt lat="47.89884" lon="5.11448">
        <ele>352.7</ele>
        <time>2025-03-12T09:07:39.328Z</time>
      </trkpt>
      <trkpt lat="47.89898" lon="5.11465">
        <ele>352.73</ele>
        <time>2025-03-12T09:07:42.524Z</time>
      </trkpt>
      <trkpt lat="47.89911" lon="5.11482">
        <ele>352.74</ele>
        <time>2025-03-12T09:07:45.723Z</time>
      </trkpt>
      <trkpt lat="47.89932" lon="5.11508">
        <ele>352.71</ele>
        <time>2025-03-12T09:07:48.926Z</time>
      </trkpt>
      <trkpt lat="47.89953" lon="5.11533">
        <ele>352.63</ele>
        <time>2025-03-12T09:07:52.134Z</time>
      </trkpt>
      <trkpt lat="47.89968" lon="5.11552">
        <ele>352.52</ele>
        <time>2025-03-12T09:07:55.345Z</time>
      </trkpt>
      <trkpt lat="47.89983" lon="5.1157">
        <ele>352.39</ele>
        <time>2025-03-12T09:07:58.559Z</time>
      </trkpt>
      <trkpt lat="47.89999" lon="5.11591">
        <ele>352.29</ele>
        <time>2025-03-12T09:08:01.776Z</time>
      </trkpt>
      <trkpt lat="47.90016" lon="5.11611">
        <ele>352.2</ele>
        <time>2025-03-12T09:08:04.997Z</time>
      </trkpt>
      <trkpt lat="47.90033" lon="5.11632">
        <ele>352.1</ele>
        <time>2025-03-12T09:08:08.221Z</time>
      </trkpt>
      <trkpt lat="47.90049" lon="5.11653">
        <ele>351.92</ele>
        <time>2025-03-12T09:08:11.449Z</time>
      </trkpt>
      <trkpt lat="47.90065" lon="5.11672">
        <ele>351.74</ele>
        <time>2025-03-12T09:08:14.680Z</time>
      </trkpt>
      <trkpt lat="47.90081" lon="5.11691">
        <ele>351.55</ele>
        <time>2025-03-12T09:08:17.914Z</time>
      </trkpt>
      <trkpt lat="47.90099" lon="5.11714">
        <ele>351.36</ele>
        <time>2025-03-12T09:08:21.152Z</time>
      </trkpt>
      <trkpt lat="47.90117" lon="5.11736">
        <ele>351.21</ele>
        <time>2025-03-12T09:08:24.394Z</time>
      </trkpt>
      <trkpt lat="47.90136" lon="5.1176">
        <ele>351</ele>
        <time>2025-03-12T09:08:27.640Z</time>
      </trkpt>
      <trkpt lat="47.90155" lon="5.11784">
        <ele>350.76</ele>
        <time>2025-03-12T09:08:30.890Z</time>
      </trkpt>
      <trkpt lat="47.90167" lon="5.11805">
        <ele>350.58</ele>
        <time>2025-03-12T09:08:34.143Z</time>
      </trkpt>
      <trkpt lat="47.90178" lon="5.11826">
        <ele>350.46</ele>
        <time>2025-03-12T09:08:37.399Z</time>
      </trkpt>
      <trkpt lat="47.9019" lon="5.11852">
        <ele>350.39</ele>
        <time>2025-03-12T09:08:40.658Z</time>
      </trkpt>
      <trkpt lat="47.90202" lon="5.11877">
        <ele>350.3</ele>
        <time>2025-03-12T09:08:43.920Z</time>
      </trkpt>
      <trkpt lat="47.90213" lon="5.11903">
        <ele>350.15</ele>
        <time>2025-03-12T09:08:47.186Z</time>
      </trkpt>
      <trkpt lat="47.90225" lon="5.11928">
        <ele>350.06</ele>
        <time>2025-03-12T09:08:50.455Z</time>
      </trkpt>
      <trkpt lat="47.90238" lon="5.11955">
        <ele>349.97</ele>
        <time>2025-03-12T09:08:53.728Z</time>
      </trkpt>
      <trkpt lat="47.90251" lon="5.11982">
        <ele>349.96</ele>
        <time>2025-03-12T09:08:57.004Z</time>
      </trkpt>
      <trkpt lat="47.90263" lon="5.12009">
        <ele>349.94</ele>
        <time>2025-03-12T09:09:00.284Z</time>
      </trkpt>
      <trkpt lat="47.90275" lon="5.12035">
        <ele>349.98</ele>
        <time>2025-03-12T09:09:03.567Z</time>
      </trkpt>
      <trkpt lat="47.90285" lon="5.12065">
        <ele>350.07</ele>
        <time>2025-03-12T09:09:06.854Z</time>
      </trkpt>
      <trkpt lat="47.90295" lon="5.12094">
        <ele>350.12</ele>
        <time>2025-03-12T09:09:10.144Z</time>
      </trkpt>
      <trkpt lat="47.903" lon="5.12117">
        <ele>350.16</ele>
        <time>2025-03-12T09:09:13.437Z</time>
      </trkpt>
      <trkpt lat="47.90306" lon="5.1214">
        <ele>350.24</ele>
        <time>2025-03-12T09:09:16.732Z</time>
      </trkpt>
      <trkpt lat="47.90316" lon="5.12165">
        <ele>350.31</ele>
        <time>2025-03-12T09:09:20.030Z</time>
      </trkpt>
      <trkpt lat="47.90326" lon="5.1219">
        <ele>350.41</ele>
        <time>2025-03-12T09:09:23.332Z</time>
      </trkpt>
      <trkpt lat="47.90343" lon="5.12221">
        <ele>350.49</ele>
        <time>2025-03-12T09:09:26.638Z</time>
      </trkpt>
      <trkpt lat="47.90359" lon="5.12253">
        <ele>350.58</ele>
        <time>2025-03-12T09:09:29.948Z</time>
      </trkpt>
      <trkpt lat="47.90373" lon="5.12282">
        <ele>350.64</ele>
        <time>2025-03-12T09:09:33.262Z</time>
      </trkpt>
      <trkpt lat="47.90386" lon="5.1231">
        <ele>350.7</ele>
        <time>2025-03-12T09:09:36.580Z</time>
      </trkpt>
      <trkpt lat="47.90399" lon="5.12343">
        <ele>350.76</ele>
        <time>2025-03-12T09:09:39.902Z</time>
      </trkpt>
      <trkpt lat="47.90413" lon="5.12375">
        <ele>350.76</ele>
        <time>2025-03-12T09:09:43.228Z</time>
      </trkpt>
      <trkpt lat="47.90422" lon="5.12402">
        <ele>350.71</ele>
        <time>2025-03-12T09:09:46.557Z</time>
      </trkpt>
      <trkpt lat="47.90431" lon="5.12429">
        <ele>350.66</ele>
        <time>2025-03-12T09:09:49.889Z</time>
      </trkpt>
      <trkpt lat="47.90439" lon="5.1245">
        <ele>350.66</ele>
        <time>2025-03-12T09:09:53.224Z</time>
      </trkpt>
      <trkpt lat="47.90447" lon="5.12471">
        <ele>350.67</ele>
        <time>2025-03-12T09:09:56.562Z</time>
      </trkpt>
      <trkpt lat="47.90456" lon="5.12493">
        <ele>350.68</ele>
        <time>2025-03-12T09:09:59.902Z</time>
      </trkpt>
      <trkpt lat="47.90466" lon="5.12514">
        <ele>350.69</ele>
        <time>2025-03-12T09:10:03.245Z</time>
      </trkpt>
      <trkpt lat="47.90476" lon="5.12535">
        <ele>350.69</ele>
        <time>2025-03-12T09:10:06.591Z</time>
      </trkpt>
      <trkpt lat="47.90485" lon="5.12557">
        <ele>350.66</ele>
        <time>2025-03-12T09:10:09.940Z</time>
      </trkpt>
      <trkpt lat="47.90503" lon="5.12591">
        <ele>350.6</ele>
        <time>2025-03-12T09:10:13.293Z</time>
      </trkpt>
      <trkpt lat="47.90507" lon="5.12598">
        <ele>350.54</ele>
        <time>2025-03-12T09:10:16.647Z</time>
      </trkpt>
      <trkpt lat="47.9052" lon="5.12619">
        <ele>350.43</ele>
        <time>2025-03-12T09:10:20.004Z</time>
      </trkpt>
      <trkpt lat="47.90533" lon="5.1264">
        <ele>350.33</ele>
        <time>2025-03-12T09:10:23.365Z</time>
      </trkpt>
      <trkpt lat="47.90557" lon="5.12664">
        <ele>350.3</ele>
        <time>2025-03-12T09:10:26.730Z</time>
      </trkpt>
      <trkpt lat="47.90577" lon="5.12671">
        <ele>350.07</ele>
        <time>2025-03-12T09:10:30.098Z</time>
      </trkpt>
      <trkpt lat="47.90591" lon="5.12667">
        <ele>349.91</ele>
        <time>2025-03-12T09:10:33.469Z</time>
      </trkpt>
      <trkpt lat="47.9061" lon="5.12655">
        <ele>349.71</ele>
        <time>2025-03-12T09:10:36.843Z</time>
      </trkpt>
      <trkpt lat="47.90614" lon="5.12652">
        <ele>349.5</ele>
        <time>2025-03-12T09:10:40.218Z</time>
      </trkpt>
      <trkpt lat="47.90638" lon="5.12637">
        <ele>349.24</ele>
        <time>2025-03-12T09:10:43.597Z</time>
      </trkpt>
      <trkpt lat="47.90656" lon="5.12625">
        <ele>348.96</ele>
        <time>2025-03-12T09:10:46.979Z</time>
      </trkpt>
      <trkpt lat="47.90658" lon="5.12623">
        <ele>348.72</ele>
        <time>2025-03-12T09:10:50.362Z</time>
      </trkpt>
      <trkpt lat="47.90656" lon="5.12614">
        <ele>348.46</ele>
        <time>2025-03-12T09:10:53.746Z</time>
      </trkpt>
      <trkpt lat="47.90656" lon="5.12615">
        <ele>348.21</ele>
        <time>2025-03-12T09:10:57.130Z</time>
      </trkpt>
      <trkpt lat="47.9066" lon="5.12622">
        <ele>347.97</ele>
        <time>2025-03-12T09:11:00.515Z</time>
      </trkpt>
      <trkpt lat="47.90662" lon="5.12621">
        <ele>347.71</ele>
        <time>2025-03-12T09:11:03.900Z</time>
      </trkpt>
      <trkpt lat="47.90676" lon="5.12611">
        <ele>347.42</ele>
        <time>2025-03-12T09:11:07.288Z</time>
      </trkpt>
      <trkpt lat="47.90696" lon="5.12593">
        <ele>347.1</ele>
        <time>2025-03-12T09:11:10.679Z</time>
      </trkpt>
      <trkpt lat="47.90704" lon="5.12583">
        <ele>346.82</ele>
        <time>2025-03-12T09:11:14.072Z</time>
      </trkpt>
      <trkpt lat="47.90706" lon="5.12578">
        <ele>346.59</ele>
        <time>2025-03-12T09:11:17.466Z</time>
      </trkpt>
      <trkpt lat="47.90717" lon="5.12554">
        <ele>346.36</ele>
        <time>2025-03-12T09:11:20.863Z</time>
      </trkpt>
      <trkpt lat="47.90722" lon="5.12542">
        <ele>346.17</ele>
        <time>2025-03-12T09:11:24.261Z</time>
      </trkpt>
      <trkpt lat="47.90736" lon="5.12522">
        <ele>345.97</ele>
        <time>2025-03-12T09:11:27.662Z</time>
      </trkpt>
      <trkpt lat="47.90749" lon="5.12502">
        <ele>345.84</ele>
        <time>2025-03-12T09:11:31.066Z</time>
      </trkpt>
      <trkpt lat="47.90766" lon="5.12488">
        <ele>345.77</ele>
        <time>2025-03-12T09:11:34.473Z</time>
      </trkpt>
      <trkpt lat="47.90778" lon="5.12478">
        <ele>345.77</ele>
        <time>2025-03-12T09:11:37.883Z</time>
      </trkpt>
      <trkpt lat="47.90783" lon="5.12476">
        <ele>345.74</ele>
        <time>2025-03-12T09:11:41.293Z</time>
      </trkpt>
      <trkpt lat="47.90775" lon="5.12481">
        <ele>345.69</ele>
        <time>2025-03-12T09:11:44.705Z</time>
      </trkpt>
      <trkpt lat="47.90764" lon="5.1249">
        <ele>345.64</ele>
        <time>2025-03-12T09:11:48.119Z</time>
      </trkpt>
      <trkpt lat="47.90745" lon="5.12507">
        <ele>345.66</ele>
        <time>2025-03-12T09:11:51.536Z</time>
      </trkpt>
      <trkpt lat="47.90729" lon="5.12528">
        <ele>345.74</ele>
        <time>2025-03-12T09:11:54.957Z</time>
      </trkpt>
      <trkpt lat="47.90712" lon="5.12564">
        <ele>345.87</ele>
        <time>2025-03-12T09:11:58.383Z</time>
      </trkpt>
      <trkpt lat="47.90703" lon="5.12591">
        <ele>346.04</ele>
        <time>2025-03-12T09:12:01.812Z</time>
      </trkpt>
      <trkpt lat="47.90711" lon="5.12626">
        <ele>346.2</ele>
        <time>2025-03-12T09:12:05.245Z</time>
      </trkpt>
      <trkpt lat="47.90717" lon="5.12654">
        <ele>346.34</ele>
        <time>2025-03-12T09:12:08.681Z</time>
      </trkpt>
      <trkpt lat="47.90712" lon="5.12688">
        <ele>346.53</ele>
        <time>2025-03-12T09:12:12.121Z</time>
      </trkpt>
      <trkpt lat="47.90708" lon="5.1271">
        <ele>346.69</ele>
        <time>2025-03-12T09:12:15.563Z</time>
      </trkpt>
      <trkpt lat="47.90716" lon="5.12733">
        <ele>346.77</ele>
        <time>2025-03-12T09:12:19.008Z</time>
      </trkpt>
      <trkpt lat="47.90725" lon="5.12759">
        <ele>346.87</ele>
        <time>2025-03-12T09:12:22.456Z</time>
      </trkpt>
      <trkpt lat="47.90733" lon="5.12781">
        <ele>346.94</ele>
        <time>2025-03-12T09:12:25.907Z</time>
      </trkpt>
      <trkpt lat="47.9074" lon="5.12802">
        <ele>346.99</ele>
        <time>2025-03-12T09:12:29.360Z</time>
      </trkpt>
      <trkpt lat="47.90755" lon="5.1282">
        <ele>347.05</ele>
        <time>2025-03-12T09:12:32.816Z</time>
      </trkpt>
      <trkpt lat="47.9076" lon="5.12825">
        <ele>347.12</ele>
        <time>2025-03-12T09:12:36.273Z</time>
      </trkpt>
      <trkpt lat="47.9076" lon="5.12823">
        <ele>347.19</ele>
        <time>2025-03-12T09:12:39.730Z</time>
      </trkpt>
      <trkpt lat="47.90758" lon="5.12823">
        <ele>347.25</ele>
        <time>2025-03-12T09:12:43.188Z</time>
      </trkpt>
      <trkpt lat="47.90755" lon="5.1282">
        <ele>347.31</ele>
        <time>2025-03-12T09:12:46.646Z</time>
      </trkpt>
      <trkpt lat="47.90753" lon="5.12818">
        <ele>347.36</ele>
        <time>2025-03-12T09:12:50.105Z</time>
      </trkpt>
      <trkpt lat="47.90753" lon="5.12817">
        <ele>347.4</ele>
        <time>2025-03-12T09:12:53.564Z</time>
      </trkpt>
      <trkpt lat="47.90765" lon="5.12831">
        <ele>347.43</ele>
        <time>2025-03-12T09:12:57.025Z</time>
      </trkpt>
      <trkpt lat="47.90778" lon="5.12864">
        <ele>347.49</ele>
        <time>2025-03-12T09:13:00.490Z</time>
      </trkpt>
      <trkpt lat="47.90788" lon="5.12903">
        <ele>347.58</ele>
        <time>2025-03-12T09:13:03.960Z</time>
      </trkpt>
      <trkpt lat="47.90794" lon="5.12935">
        <ele>347.56</ele>
        <time>2025-03-12T09:13:07.433Z</time>
      </trkpt>
      <trkpt lat="47.90796" lon="5.12961">
        <ele>347.58</ele>
        <time>2025-03-12T09:13:10.909Z</time>
      </trkpt>
      <trkpt lat="47.90793" lon="5.13006">
        <ele>347.58</ele>
        <time>2025-03-12T09:13:14.390Z</time>
      </trkpt>
      <trkpt lat="47.90788" lon="5.1303">
        <ele>347.6</ele>
        <time>2025-03-12T09:13:17.874Z</time>
      </trkpt>
      <trkpt lat="47.90785" lon="5.13043">
        <ele>347.65</ele>
        <time>2025-03-12T09:13:21.359Z</time>
      </trkpt>
      <trkpt lat="47.90776" lon="5.13067">
        <ele>347.73</ele>
        <time>2025-03-12T09:13:24.847Z</time>
      </trkpt>
      <trkpt lat="47.90767" lon="5.13091">
        <ele>347.81</ele>
        <time>2025-03-12T09:13:28.338Z</time>
      </trkpt>
      <trkpt lat="47.90754" lon="5.13127">
        <ele>348</ele>
        <time>2025-03-12T09:13:31.834Z</time>
      </trkpt>
      <trkpt lat="47.90754" lon="5.13134">
        <ele>348.09</ele>
        <time>2025-03-12T09:13:35.330Z</time>
      </trkpt>
      <trkpt lat="47.90756" lon="5.13148">
        <ele>348.21</ele>
        <time>2025-03-12T09:13:38.828Z</time>
      </trkpt>
      <trkpt lat="47.90757" lon="5.13155">
        <ele>348.34</ele>
        <time>2025-03-12T09:13:42.326Z</time>
      </trkpt>
      <trkpt lat="47.90758" lon="5.13162">
        <ele>348.47</ele>
        <time>2025-03-12T09:13:45.825Z</time>
      </trkpt>
      <trkpt lat="47.90765" lon="5.13195">
        <ele>348.59</ele>
        <time>2025-03-12T09:13:49.328Z</time>
      </trkpt>
      <trkpt lat="47.90774" lon="5.13218">
        <ele>348.71</ele>
        <time>2025-03-12T09:13:52.834Z</time>
      </trkpt>
      <trkpt lat="47.90783" lon="5.1324">
        <ele>348.9</ele>
        <time>2025-03-12T09:13:56.343Z</time>
      </trkpt>
      <trkpt lat="47.90797" lon="5.13277">
        <ele>349.21</ele>
        <time>2025-03-12T09:13:59.856Z</time>
      </trkpt>
      <trkpt lat="47.90808" lon="5.13296">
        <ele>349.58</ele>
        <time>2025-03-12T09:14:03.372Z</time>
      </trkpt>
      <trkpt lat="47.90818" lon="5.13315">
        <ele>349.96</ele>
        <time>2025-03-12T09:14:06.891Z</time>
      </trkpt>
      <trkpt lat="47.90841" lon="5.13334">
        <ele>350.33</ele>
        <time>2025-03-12T09:14:10.414Z</time>
      </trkpt>
      <trkpt lat="47.90858" lon="5.13346">
        <ele>350.77</ele>
        <time>2025-03-12T09:14:13.940Z</time>
      </trkpt>
      <trkpt lat="47.90874" lon="5.13358">
        <ele>351.3</ele>
        <time>2025-03-12T09:14:17.469Z</time>
      </trkpt>
      <trkpt lat="47.90898" lon="5.13376">
        <ele>351.9</ele>
        <time>2025-03-12T09:14:21.002Z</time>
      </trkpt>
      <trkpt lat="47.90906" lon="5.13382">
        <ele>352.53</ele>
        <time>2025-03-12T09:14:24.536Z</time>
      </trkpt>
      <trkpt lat="47.90917" lon="5.1339">
        <ele>353.2</ele>
        <time>2025-03-12T09:14:28.072Z</time>
      </trkpt>
      <trkpt lat="47.90932" lon="5.13392">
        <ele>353.96</ele>
        <time>2025-03-12T09:14:31.611Z</time>
      </trkpt>
      <trkpt lat="47.90936" lon="5.13392">
        <ele>354.82</ele>
        <time>2025-03-12T09:14:35.150Z</time>
      </trkpt>
      <trkpt lat="47.90943" lon="5.13391">
        <ele>355.75</ele>
        <time>2025-03-12T09:14:38.691Z</time>
      </trkpt>
      <trkpt lat="47.90967" lon="5.1339">
        <ele>356.75</ele>
        <time>2025-03-12T09:14:42.235Z</time>
      </trkpt>
      <trkpt lat="47.90991" lon="5.13389">
        <ele>357.92</ele>
        <time>2025-03-12T09:14:45.783Z</time>
      </trkpt>
      <trkpt lat="47.91019" lon="5.13387">
        <ele>359.27</ele>
        <time>2025-03-12T09:14:49.336Z</time>
      </trkpt>
      <trkpt lat="47.91043" lon="5.13379">
        <ele>360.73</ele>
        <time>2025-03-12T09:14:52.893Z</time>
      </trkpt>
      <trkpt lat="47.91062" lon="5.13367">
        <ele>362.15</ele>
        <time>2025-03-12T09:14:56.453Z</time>
      </trkpt>
      <trkpt lat="47.91081" lon="5.13353">
        <ele>363.62</ele>
        <time>2025-03-12T09:15:00.016Z</time>
      </trkpt>
      <trkpt lat="47.91098" lon="5.13338">
        <ele>365.09</ele>
        <time>2025-03-12T09:15:03.583Z</time>
      </trkpt>
      <trkpt lat="47.91108" lon="5.13317">
        <ele>366.46</ele>
        <time>2025-03-12T09:15:07.152Z</time>
      </trkpt>
      <trkpt lat="47.91121" lon="5.1329">
        <ele>367.89</ele>
        <time>2025-03-12T09:15:10.725Z</time>
      </trkpt>
      <trkpt lat="47.91129" lon="5.13272">
        <ele>369.38</ele>
        <time>2025-03-12T09:15:14.300Z</time>
      </trkpt>
      <trkpt lat="47.91138" lon="5.13254">
        <ele>370.91</ele>
        <time>2025-03-12T09:15:17.878Z</time>
      </trkpt>
      <trkpt lat="47.91149" lon="5.1323">
        <ele>372.51</ele>
        <time>2025-03-12T09:15:21.459Z</time>
      </trkpt>
      <trkpt lat="47.91158" lon="5.13219">
        <ele>374.11</ele>
        <time>2025-03-12T09:15:25.042Z</time>
      </trkpt>
      <trkpt lat="47.91169" lon="5.13207">
        <ele>375.76</ele>
        <time>2025-03-12T09:15:28.627Z</time>
      </trkpt>
      <trkpt lat="47.91182" lon="5.13193">
        <ele>377.43</ele>
        <time>2025-03-12T09:15:32.214Z</time>
      </trkpt>
      <trkpt lat="47.91196" lon="5.13185">
        <ele>379.12</ele>
        <time>2025-03-12T09:15:35.804Z</time>
      </trkpt>
      <trkpt lat="47.91208" lon="5.13188">
        <ele>380.85</ele>
        <time>2025-03-12T09:15:39.396Z</time>
      </trkpt>
      <trkpt lat="47.9121" lon="5.13188">
        <ele>382.51</ele>
        <time>2025-03-12T09:15:42.988Z</time>
      </trkpt>
      <trkpt lat="47.9122" lon="5.13192">
        <ele>384.25</ele>
        <time>2025-03-12T09:15:46.582Z</time>
      </trkpt>
      <trkpt lat="47.9123" lon="5.13212">
        <ele>386.06</ele>
        <time>2025-03-12T09:15:50.178Z</time>
      </trkpt>
      <trkpt lat="47.91235" lon="5.13231">
        <ele>387.84</ele>
        <time>2025-03-12T09:15:53.777Z</time>
      </trkpt>
      <trkpt lat="47.91237" lon="5.13252">
        <ele>389.54</ele>
        <time>2025-03-12T09:15:57.378Z</time>
      </trkpt>
      <trkpt lat="47.9124" lon="5.13279">
        <ele>391.19</ele>
        <time>2025-03-12T09:16:00.982Z</time>
      </trkpt>
      <trkpt lat="47.91242" lon="5.13306">
        <ele>392.77</ele>
        <time>2025-03-12T09:16:04.589Z</time>
      </trkpt>
      <trkpt lat="47.91244" lon="5.13327">
        <ele>394.25</ele>
        <time>2025-03-12T09:16:08.198Z</time>
      </trkpt>
      <trkpt lat="47.91246" lon="5.13355">
        <ele>395.7</ele>
        <time>2025-03-12T09:16:11.810Z</time>
      </trkpt>
      <trkpt lat="47.91257" lon="5.13382">
        <ele>397.24</ele>
        <time>2025-03-12T09:16:15.425Z</time>
      </trkpt>
      <trkpt lat="47.9127" lon="5.13402">
        <ele>398.69</ele>
        <time>2025-03-12T09:16:19.043Z</time>
      </trkpt>
      <trkpt lat="47.91284" lon="5.13422">
        <ele>400.06</ele>
        <time>2025-03-12T09:16:22.664Z</time>
      </trkpt>
      <trkpt lat="47.91296" lon="5.13439">
        <ele>401.38</ele>
        <time>2025-03-12T09:16:26.288Z</time>
      </trkpt>
      <trkpt lat="47.91309" lon="5.13457">
        <ele>402.64</ele>
        <time>2025-03-12T09:16:29.915Z</time>
      </trkpt>
      <trkpt lat="47.91323" lon="5.1347">
        <ele>403.9</ele>
        <time>2025-03-12T09:16:33.545Z</time>
      </trkpt>
      <trkpt lat="47.9134" lon="5.13485">
        <ele>405.18</ele>
        <time>2025-03-12T09:16:37.178Z</time>
      </trkpt>
      <trkpt lat="47.91354" lon="5.13497">
        <ele>406.37</ele>
        <time>2025-03-12T09:16:40.813Z</time>
      </trkpt>
      <trkpt lat="47.91366" lon="5.13507">
        <ele>407.49</ele>
        <time>2025-03-12T09:16:44.451Z</time>
      </trkpt>
      <trkpt lat="47.91368" lon="5.13509">
        <ele>408.47</ele>
        <time>2025-03-12T09:16:48.089Z</time>
      </trkpt>
      <trkpt lat="47.91376" lon="5.13516">
        <ele>409.43</ele>
        <time>2025-03-12T09:16:51.728Z</time>
      </trkpt>
      <trkpt lat="47.9139" lon="5.13528">
        <ele>410.36</ele>
        <time>2025-03-12T09:16:55.370Z</time>
      </trkpt>
      <trkpt lat="47.91405" lon="5.13541">
        <ele>411.22</ele>
        <time>2025-03-12T09:16:59.015Z</time>
      </trkpt>
      <trkpt lat="47.9142" lon="5.13554">
        <ele>412</ele>
        <time>2025-03-12T09:17:02.663Z</time>
      </trkpt>
      <trkpt lat="47.9144" lon="5.13564">
        <ele>412.74</ele>
        <time>2025-03-12T09:17:06.314Z</time>
      </trkpt>
      <trkpt lat="47.91454" lon="5.1357">
        <ele>413.39</ele>
        <time>2025-03-12T09:17:09.967Z</time>
      </trkpt>
      <trkpt lat="47.91467" lon="5.13577">
        <ele>413.99</ele>
        <time>2025-03-12T09:17:13.623Z</time>
      </trkpt>
      <trkpt lat="47.91478" lon="5.13582">
        <ele>414.52</ele>
        <time>2025-03-12T09:17:17.280Z</time>
      </trkpt>
      <trkpt lat="47.91483" lon="5.13585">
        <ele>415.01</ele>
        <time>2025-03-12T09:17:20.938Z</time>
      </trkpt>
      <trkpt lat="47.91496" lon="5.13592">
        <ele>415.45</ele>
        <time>2025-03-12T09:17:24.598Z</time>
      </trkpt>
      <trkpt lat="47.91512" lon="5.136">
        <ele>415.85</ele>
        <time>2025-03-12T09:17:28.261Z</time>
      </trkpt>
      <trkpt lat="47.91533" lon="5.1361">
        <ele>416.27</ele>
        <time>2025-03-12T09:17:31.928Z</time>
      </trkpt>
      <trkpt lat="47.91555" lon="5.13622">
        <ele>416.72</ele>
        <time>2025-03-12T09:17:35.598Z</time>
      </trkpt>
      <trkpt lat="47.91575" lon="5.13641">
        <ele>417.08</ele>
        <time>2025-03-12T09:17:39.272Z</time>
      </trkpt>
      <trkpt lat="47.91594" lon="5.1366">
        <ele>417.39</ele>
        <time>2025-03-12T09:17:42.950Z</time>
      </trkpt>
      <trkpt lat="47.91614" lon="5.13689">
        <ele>417.66</ele>
        <time>2025-03-12T09:17:46.632Z</time>
      </trkpt>
      <trkpt lat="47.9163" lon="5.13717">
        <ele>418.04</ele>
        <time>2025-03-12T09:17:50.318Z</time>
      </trkpt>
      <trkpt lat="47.9164" lon="5.13735">
        <ele>418.41</ele>
        <time>2025-03-12T09:17:54.007Z</time>
      </trkpt>
      <trkpt lat="47.9165" lon="5.13753">
        <ele>418.82</ele>
        <time>2025-03-12T09:17:57.698Z</time>
      </trkpt>
      <trkpt lat="47.91656" lon="5.13764">
        <ele>419.26</ele>
        <time>2025-03-12T09:18:01.391Z</time>
      </trkpt>
      <trkpt lat="47.91663" lon="5.13784">
        <ele>419.72</ele>
        <time>2025-03-12T09:18:05.086Z</time>
      </trkpt>
      <trkpt lat="47.91668" lon="5.13799">
        <ele>420.24</ele>
        <time>2025-03-12T09:18:08.783Z</time>
      </trkpt>
      <trkpt lat="47.91672" lon="5.13811">
        <ele>420.85</ele>
        <time>2025-03-12T09:18:12.482Z</time>
      </trkpt>
      <trkpt lat="47.91675" lon="5.13819">
        <ele>421.5</ele>
        <time>2025-03-12T09:18:16.181Z</time>
      </trkpt>
      <trkpt lat="47.91682" lon="5.13841">
        <ele>422.28</ele>
        <time>2025-03-12T09:18:19.883Z</time>
      </trkpt>
      <trkpt lat="47.91681" lon="5.13858">
        <ele>423.05</ele>
        <time>2025-03-12T09:18:23.587Z</time>
      </trkpt>
      <trkpt lat="47.9168" lon="5.13883">
        <ele>423.89</ele>
        <time>2025-03-12T09:18:27.294Z</time>
      </trkpt>
      <trkpt lat="47.91678" lon="5.13907">
        <ele>424.83</ele>
        <time>2025-03-12T09:18:31.003Z</time>
      </trkpt>
      <trkpt lat="47.91676" lon="5.13926">
        <ele>425.76</ele>
        <time>2025-03-12T09:18:34.714Z</time>
      </trkpt>
      <trkpt lat="47.91676" lon="5.13933">
        <ele>426.73</ele>
        <time>2025-03-12T09:18:38.426Z</time>
      </trkpt>
      <trkpt lat="47.91675" lon="5.13945">
        <ele>427.74</ele>
        <time>2025-03-12T09:18:42.139Z</time>
      </trkpt>
      <trkpt lat="47.91677" lon="5.13957">
        <ele>428.8</ele>
        <time>2025-03-12T09:18:45.854Z</time>
      </trkpt>
      <trkpt lat="47.91694" lon="5.13989">
        <ele>429.95</ele>
        <time>2025-03-12T09:18:49.573Z</time>
      </trkpt>
      <trkpt lat="47.91713" lon="5.14019">
        <ele>431.12</ele>
        <time>2025-03-12T09:18:53.297Z</time>
      </trkpt>
      <trkpt lat="47.91733" lon="5.1404">
        <ele>432.28</ele>
        <time>2025-03-12T09:18:57.024Z</time>
      </trkpt>
      <trkpt lat="47.91754" lon="5.14067">
        <ele>433.45</ele>
        <time>2025-03-12T09:19:00.756Z</time>
      </trkpt>
      <trkpt lat="47.91766" lon="5.14084">
        <ele>434.56</ele>
        <time>2025-03-12T09:19:04.491Z</time>
      </trkpt>
      <trkpt lat="47.91786" lon="5.1411">
        <ele>435.66</ele>
        <time>2025-03-12T09:19:08.230Z</time>
      </trkpt>
      <trkpt lat="47.91806" lon="5.14141">
        <ele>436.75</ele>
        <time>2025-03-12T09:19:11.973Z</time>
      </trkpt>
      <trkpt lat="47.91815" lon="5.14164">
        <ele>437.76</ele>
        <time>2025-03-12T09:19:15.719Z</time>
      </trkpt>
      <trkpt lat="47.91824" lon="5.14186">
        <ele>438.75</ele>
        <time>2025-03-12T09:19:19.468Z</time>
      </trkpt>
      <trkpt lat="47.91834" lon="5.14214">
        <ele>439.76</ele>
        <time>2025-03-12T09:19:23.221Z</time>
      </trkpt>
      <trkpt lat="47.91846" lon="5.14244">
        <ele>440.61</ele>
        <time>2025-03-12T09:19:26.977Z</time>
      </trkpt>
      <trkpt lat="47.91856" lon="5.14269">
        <ele>441.39</ele>
        <time>2025-03-12T09:19:30.736Z</time>
      </trkpt>
      <trkpt lat="47.91865" lon="5.14292">
        <ele>442.07</ele>
        <time>2025-03-12T09:19:34.498Z</time>
      </trkpt>
      <trkpt lat="47.91885" lon="5.14316">
        <ele>442.66</ele>
        <time>2025-03-12T09:19:38.264Z</time>
      </trkpt>
      <trkpt lat="47.91903" lon="5.1435">
        <ele>443.07</ele>
        <time>2025-03-12T09:19:42.035Z</time>
      </trkpt>
      <trkpt lat="47.91916" lon="5.1438">
        <ele>443.16</ele>
        <time>2025-03-12T09:19:45.810Z</time>
      </trkpt>
      <trkpt lat="47.91926" lon="5.14413">
        <ele>443.14</ele>
        <time>2025-03-12T09:19:49.589Z</time>
      </trkpt>
      <trkpt lat="47.91927" lon="5.14422">
        <ele>443.09</ele>
        <time>2025-03-12T09:19:53.369Z</time>
      </trkpt>
      <trkpt lat="47.9193" lon="5.14462">
        <ele>442.95</ele>
        <time>2025-03-12T09:19:57.153Z</time>
      </trkpt>
      <trkpt lat="47.9193" lon="5.14469">
        <ele>442.62</ele>
        <time>2025-03-12T09:20:00.938Z</time>
      </trkpt>
      <trkpt lat="47.91933" lon="5.14506">
        <ele>442.18</ele>
        <time>2025-03-12T09:20:04.727Z</time>
      </trkpt>
      <trkpt lat="47.91941" lon="5.14533">
        <ele>441.51</ele>
        <time>2025-03-12T09:20:08.519Z</time>
      </trkpt>
      <trkpt lat="47.91949" lon="5.14561">
        <ele>440.67</ele>
        <time>2025-03-12T09:20:12.314Z</time>
      </trkpt>
      <trkpt lat="47.91954" lon="5.14577">
        <ele>439.74</ele>
        <time>2025-03-12T09:20:16.111Z</time>
      </trkpt>
      <trkpt lat="47.91965" lon="5.14606">
        <ele>438.6</ele>
        <time>2025-03-12T09:20:19.912Z</time>
      </trkpt>
      <trkpt lat="47.91977" lon="5.14626">
        <ele>437.45</ele>
        <time>2025-03-12T09:20:23.716Z</time>
      </trkpt>
      <trkpt lat="47.91989" lon="5.14645">
        <ele>436.24</ele>
        <time>2025-03-12T09:20:27.522Z</time>
      </trkpt>
      <trkpt lat="47.91994" lon="5.14658">
        <ele>435</ele>
        <time>2025-03-12T09:20:31.330Z</time>
      </trkpt>
      <trkpt lat="47.92003" lon="5.14691">
        <ele>433.64</ele>
        <time>2025-03-12T09:20:35.142Z</time>
      </trkpt>
      <trkpt lat="47.92012" lon="5.14724">
        <ele>432.23</ele>
        <time>2025-03-12T09:20:38.958Z</time>
      </trkpt>
      <trkpt lat="47.9202" lon="5.14761">
        <ele>430.77</ele>
        <time>2025-03-12T09:20:42.778Z</time>
      </trkpt>
      <trkpt lat="47.92028" lon="5.14798">
        <ele>429.32</ele>
        <time>2025-03-12T09:20:46.602Z</time>
      </trkpt>
      <trkpt lat="47.92038" lon="5.14832">
        <ele>427.86</ele>
        <time>2025-03-12T09:20:50.430Z</time>
      </trkpt>
      <trkpt lat="47.92047" lon="5.14867">
        <ele>426.38</ele>
        <time>2025-03-12T09:20:54.262Z</time>
      </trkpt>
      <trkpt lat="47.92056" lon="5.14897">
        <ele>424.9</ele>
        <time>2025-03-12T09:20:58.098Z</time>
      </trkpt>
      <trkpt lat="47.92065" lon="5.14927">
        <ele>423.46</ele>
        <time>2025-03-12T09:21:01.937Z</time>
      </trkpt>
      <trkpt lat="47.92072" lon="5.14951">
        <ele>422.07</ele>
        <time>2025-03-12T09:21:05.779Z</time>
      </trkpt>
      <trkpt lat="47.92079" lon="5.14975">
        <ele>420.69</ele>
        <time>2025-03-12T09:21:09.624Z</time>
      </trkpt>
      <trkpt lat="47.92084" lon="5.15">
        <ele>419.31</ele>
        <time>2025-03-12T09:21:13.472Z</time>
      </trkpt>
      <trkpt lat="47.92092" lon="5.15041">
        <ele>417.89</ele>
        <time>2025-03-12T09:21:17.324Z</time>
      </trkpt>
      <trkpt lat="47.92099" lon="5.15083">
        <ele>416.53</ele>
        <time>2025-03-12T09:21:21.181Z</time>
      </trkpt>
      <trkpt lat="47.92099" lon="5.15121">
        <ele>415.2</ele>
        <time>2025-03-12T09:21:25.042Z</time>
      </trkpt>
      <trkpt lat="47.921" lon="5.1516">
        <ele>413.91</ele>
        <time>2025-03-12T09:21:28.907Z</time>
      </trkpt>
      <trkpt lat="47.92103" lon="5.15175">
        <ele>412.77</ele>
        <time>2025-03-12T09:21:32.774Z</time>
      </trkpt>
      <trkpt lat="47.92111" lon="5.15214">
        <ele>411.69</ele>
        <time>2025-03-12T09:21:36.645Z</time>
      </trkpt>
      <trkpt lat="47.92118" lon="5.15252">
        <ele>410.7</ele>
        <time>2025-03-12T09:21:40.521Z</time>
      </trkpt>
      <trkpt lat="47.92121" lon="5.15267">
        <ele>409.77</ele>
        <time>2025-03-12T09:21:44.398Z</time>
      </trkpt>
      <trkpt lat="47.92133" lon="5.1531">
        <ele>408.92</ele>
        <time>2025-03-12T09:21:48.280Z</time>
      </trkpt>
      <trkpt lat="47.92144" lon="5.15352">
        <ele>408.12</ele>
        <time>2025-03-12T09:21:52.167Z</time>
      </trkpt>
      <trkpt lat="47.92155" lon="5.1539">
        <ele>407.36</ele>
        <time>2025-03-12T09:21:56.059Z</time>
      </trkpt>
      <trkpt lat="47.92166" lon="5.15428">
        <ele>406.62</ele>
        <time>2025-03-12T09:21:59.955Z</time>
      </trkpt>
      <trkpt lat="47.92176" lon="5.15462">
        <ele>405.96</ele>
        <time>2025-03-12T09:22:03.855Z</time>
      </trkpt>
      <trkpt lat="47.92186" lon="5.15496">
        <ele>405.37</ele>
        <time>2025-03-12T09:22:07.759Z</time>
      </trkpt>
      <trkpt lat="47.92197" lon="5.15534">
        <ele>404.88</ele>
        <time>2025-03-12T09:22:11.667Z</time>
      </trkpt>
      <trkpt lat="47.92208" lon="5.15573">
        <ele>404.44</ele>
        <time>2025-03-12T09:22:15.580Z</time>
      </trkpt>
      <trkpt lat="47.92212" lon="5.15584">
        <ele>404.06</ele>
        <time>2025-03-12T09:22:19.494Z</time>
      </trkpt>
      <trkpt lat="47.92225" lon="5.15627">
        <ele>403.7</ele>
        <time>2025-03-12T09:22:23.413Z</time>
      </trkpt>
      <trkpt lat="47.92238" lon="5.15668">
        <ele>403.39</ele>
        <time>2025-03-12T09:22:27.337Z</time>
      </trkpt>
      <trkpt lat="47.92251" lon="5.15708">
        <ele>403.16</ele>
        <time>2025-03-12T09:22:31.266Z</time>
      </trkpt>
      <trkpt lat="47.92263" lon="5.15746">
        <ele>403.03</ele>
        <time>2025-03-12T09:22:35.200Z</time>
      </trkpt>
      <trkpt lat="47.92275" lon="5.15782">
        <ele>402.96</ele>
        <time>2025-03-12T09:22:39.138Z</time>
      </trkpt>
      <trkpt lat="47.92287" lon="5.15817">
        <ele>402.84</ele>
        <time>2025-03-12T09:22:43.080Z</time>
      </trkpt>
      <trkpt lat="47.92296" lon="5.15845">
        <ele>402.72</ele>
        <time>2025-03-12T09:22:47.025Z</time>
      </trkpt>
      <trkpt lat="47.92305" lon="5.15872">
        <ele>402.57</ele>
        <time>2025-03-12T09:22:50.974Z</time>
      </trkpt>
      <trkpt lat="47.92311" lon="5.15898">
        <ele>402.48</ele>
        <time>2025-03-12T09:22:54.926Z</time>
      </trkpt>
      <trkpt lat="47.92317" lon="5.15923">
        <ele>402.43</ele>
        <time>2025-03-12T09:22:58.880Z</time>
      </trkpt>
      <trkpt lat="47.92321" lon="5.1595">
        <ele>402.38</ele>
        <time>2025-03-12T09:23:02.837Z</time>
      </trkpt>
      <trkpt lat="47.92326" lon="5.15982">
        <ele>402.33</ele>
        <time>2025-03-12T09:23:06.798Z</time>
      </trkpt>
      <trkpt lat="47.92327" lon="5.15996">
        <ele>402.3</ele>
        <time>2025-03-12T09:23:10.760Z</time>
      </trkpt>
      <trkpt lat="47.92324" lon="5.16019">
        <ele>402.24</ele>
        <time>2025-03-12T09:23:14.725Z</time>
      </trkpt>
      <trkpt lat="47.92322" lon="5.16026">
        <ele>402.21</ele>
        <time>2025-03-12T09:23:18.691Z</time>
      </trkpt>
      <trkpt lat="47.92314" lon="5.16053">
        <ele>402.17</ele>
        <time>2025-03-12T09:23:22.660Z</time>
      </trkpt>
      <trkpt lat="47.92312" lon="5.1606">
        <ele>402.14</ele>
        <time>2025-03-12T09:23:26.630Z</time>
      </trkpt>
      <trkpt lat="47.92305" lon="5.16085">
        <ele>402.11</ele>
        <time>2025-03-12T09:23:30.603Z</time>
      </trkpt>
      <trkpt lat="47.92298" lon="5.16109">
        <ele>402.12</ele>
        <time>2025-03-12T09:23:34.579Z</time>
      </trkpt>
      <trkpt lat="47.92293" lon="5.16124">
        <ele>402.06</ele>
        <time>2025-03-12T09:23:38.556Z</time>
      </trkpt>
      <trkpt lat="47.92288" lon="5.16144">
        <ele>402</ele>
        <time>2025-03-12T09:23:42.536Z</time>
      </trkpt>
      <trkpt lat="47.92281" lon="5.16169">
        <ele>401.97</ele>
        <time>2025-03-12T09:23:46.519Z</time>
      </trkpt>
      <trkpt lat="47.92274" lon="5.16193">
        <ele>401.9</ele>
        <time>2025-03-12T09:23:50.504Z</time>
      </trkpt>
      <trkpt lat="47.92265" lon="5.16221">
        <ele>401.76</ele>
        <time>2025-03-12T09:23:54.493Z</time>
      </trkpt>
      <trkpt lat="47.92257" lon="5.16249">
        <ele>401.63</ele>
        <time>2025-03-12T09:23:58.485Z</time>
      </trkpt>
      <trkpt lat="47.92246" lon="5.16289">
        <ele>401.48</ele>
        <time>2025-03-12T09:24:02.482Z</time>
      </trkpt>
      <trkpt lat="47.9224" lon="5.16307">
        <ele>401.31</ele>
        <time>2025-03-12T09:24:06.481Z</time>
      </trkpt>
      <trkpt lat="47.92233" lon="5.16334">
        <ele>401.1</ele>
        <time>2025-03-12T09:24:10.483Z</time>
      </trkpt>
      <trkpt lat="47.92226" lon="5.16357">
        <ele>400.83</ele>
        <time>2025-03-12T09:24:14.488Z</time>
      </trkpt>
      <trkpt lat="47.92219" lon="5.16381">
        <ele>400.52</ele>
        <time>2025-03-12T09:24:18.495Z</time>
      </trkpt>
      <trkpt lat="47.92209" lon="5.16415">
        <ele>400.23</ele>
        <time>2025-03-12T09:24:22.506Z</time>
      </trkpt>
      <trkpt lat="47.922" lon="5.16448">
        <ele>399.95</ele>
        <time>2025-03-12T09:24:26.521Z</time>
      </trkpt>
      <trkpt lat="47.92193" lon="5.16471">
        <ele>399.7</ele>
        <time>2025-03-12T09:24:30.539Z</time>
      </trkpt>
      <trkpt lat="47.92186" lon="5.16495">
        <ele>399.44</ele>
        <time>2025-03-12T09:24:34.560Z</time>
      </trkpt>
      <trkpt lat="47.92184" lon="5.16503">
        <ele>399.16</ele>
        <time>2025-03-12T09:24:38.582Z</time>
      </trkpt>
      <trkpt lat="47.92175" lon="5.16533">
        <ele>398.9</ele>
        <time>2025-03-12T09:24:42.607Z</time>
      </trkpt>
      <trkpt lat="47.92166" lon="5.16562">
        <ele>398.59</ele>
        <time>2025-03-12T09:24:46.636Z</time>
      </trkpt>
      <trkpt lat="47.92165" lon="5.16582">
        <ele>398.33</ele>
        <time>2025-03-12T09:24:50.667Z</time>
      </trkpt>
      <trkpt lat="47.92164" lon="5.166">
        <ele>398.09</ele>
        <time>2025-03-12T09:24:54.700Z</time>
      </trkpt>
      <trkpt lat="47.92163" lon="5.16611">
        <ele>397.91</ele>
        <time>2025-03-12T09:24:58.734Z</time>
      </trkpt>
      <trkpt lat="47.92161" lon="5.16654">
        <ele>397.72</ele>
        <time>2025-03-12T09:25:02.773Z</time>
      </trkpt>
      <trkpt lat="47.92159" lon="5.167">
        <ele>397.57</ele>
        <time>2025-03-12T09:25:06.817Z</time>
      </trkpt>
      <trkpt lat="47.92157" lon="5.16745">
        <ele>397.41</ele>
        <time>2025-03-12T09:25:10.865Z</time>
      </trkpt>
      <trkpt lat="47.92157" lon="5.1678">
        <ele>397.35</ele>
        <time>2025-03-12T09:25:14.917Z</time>
      </trkpt>
      <trkpt lat="47.92156" lon="5.16815">
        <ele>397.35</ele>
        <time>2025-03-12T09:25:18.973Z</time>
      </trkpt>
      <trkpt lat="47.9216" lon="5.16835">
        <ele>397.44</ele>
        <time>2025-03-12T09:25:23.031Z</time>
      </trkpt>
      <trkpt lat="47.92165" lon="5.16855">
        <ele>397.6</ele>
        <time>2025-03-12T09:25:27.091Z</time>
      </trkpt>
      <trkpt lat="47.92167" lon="5.16864">
        <ele>397.78</ele>
        <time>2025-03-12T09:25:31.153Z</time>
      </trkpt>
      <trkpt lat="47.92174" lon="5.16887">
        <ele>398.04</ele>
        <time>2025-03-12T09:25:35.217Z</time>
      </trkpt>
      <trkpt lat="47.9218" lon="5.1691">
        <ele>398.4</ele>
        <time>2025-03-12T09:25:39.284Z</time>
      </trkpt>
      <trkpt lat="47.92187" lon="5.16938">
        <ele>398.78</ele>
        <time>2025-03-12T09:25:43.354Z</time>
      </trkpt>
      <trkpt lat="47.92195" lon="5.16966">
        <ele>399.16</ele>
        <time>2025-03-12T09:25:47.427Z</time>
      </trkpt>
      <trkpt lat="47.922" lon="5.16978">
        <ele>399.53</ele>
        <time>2025-03-12T09:25:51.502Z</time>
      </trkpt>
      <trkpt lat="47.92205" lon="5.16989">
        <ele>399.94</ele>
        <time>2025-03-12T09:25:55.578Z</time>
      </trkpt>
      <trkpt lat="47.9221" lon="5.16993">
        <ele>400.38</ele>
        <time>2025-03-12T09:25:59.655Z</time>
      </trkpt>
      <trkpt lat="47.92214" lon="5.16996">
        <ele>400.84</ele>
        <time>2025-03-12T09:26:03.733Z</time>
      </trkpt>
      <trkpt lat="47.92233" lon="5.17008">
        <ele>401.33</ele>
        <time>2025-03-12T09:26:07.814Z</time>
      </trkpt>
      <trkpt lat="47.92248" lon="5.17014">
        <ele>401.86</ele>
        <time>2025-03-12T09:26:11.898Z</time>
      </trkpt>
      <trkpt lat="47.92264" lon="5.17019">
        <ele>402.4</ele>
        <time>2025-03-12T09:26:15.984Z</time>
      </trkpt>
      <trkpt lat="47.92284" lon="5.17027">
        <ele>402.94</ele>
        <time>2025-03-12T09:26:20.074Z</time>
      </trkpt>
      <trkpt lat="47.92304" lon="5.17034">
        <ele>403.48</ele>
        <time>2025-03-12T09:26:24.167Z</time>
      </trkpt>
      <trkpt lat="47.92326" lon="5.17042">
        <ele>404.01</ele>
        <time>2025-03-12T09:26:28.264Z</time>
      </trkpt>
      <trkpt lat="47.92348" lon="5.1705">
        <ele>404.54</ele>
        <time>2025-03-12T09:26:32.364Z</time>
      </trkpt>
      <trkpt lat="47.92367" lon="5.17057">
        <ele>405.02</ele>
        <time>2025-03-12T09:26:36.467Z</time>
      </trkpt>
      <trkpt lat="47.92386" lon="5.17064">
        <ele>405.51</ele>
        <time>2025-03-12T09:26:40.573Z</time>
      </trkpt>
      <trkpt lat="47.92413" lon="5.17078">
        <ele>406.01</ele>
        <time>2025-03-12T09:26:44.684Z</time>
      </trkpt>
      <trkpt lat="47.9242" lon="5.17083">
        <ele>406.44</ele>
        <time>2025-03-12T09:26:48.796Z</time>
      </trkpt>
      <trkpt lat="47.92437" lon="5.17096">
        <ele>406.87</ele>
        <time>2025-03-12T09:26:52.911Z</time>
      </trkpt>
      <trkpt lat="47.92455" lon="5.17108">
        <ele>407.25</ele>
        <time>2025-03-12T09:26:57.029Z</time>
      </trkpt>
      <trkpt lat="47.92471" lon="5.17125">
        <ele>407.58</ele>
        <time>2025-03-12T09:27:01.151Z</time>
      </trkpt>
      <trkpt lat="47.92487" lon="5.17142">
        <ele>407.81</ele>
        <time>2025-03-12T09:27:05.276Z</time>
      </trkpt>
      <trkpt lat="47.92505" lon="5.17162">
        <ele>407.94</ele>
        <time>2025-03-12T09:27:09.404Z</time>
      </trkpt>
      <trkpt lat="47.92523" lon="5.17181">
        <ele>407.98</ele>
        <time>2025-03-12T09:27:13.536Z</time>
      </trkpt>
      <trkpt lat="47.92539" lon="5.17199">
        <ele>407.94</ele>
        <time>2025-03-12T09:27:17.671Z</time>
      </trkpt>
      <trkpt lat="47.92555" lon="5.17217">
        <ele>407.84</ele>
        <time>2025-03-12T09:27:21.809Z</time>
      </trkpt>
      <trkpt lat="47.9257" lon="5.17235">
        <ele>407.65</ele>
        <time>2025-03-12T09:27:25.950Z</time>
      </trkpt>
      <trkpt lat="47.92584" lon="5.17254">
        <ele>407.4</ele>
        <time>2025-03-12T09:27:30.094Z</time>
      </trkpt>
      <trkpt lat="47.926" lon="5.17277">
        <ele>407.05</ele>
        <time>2025-03-12T09:27:34.242Z</time>
      </trkpt>
      <trkpt lat="47.92617" lon="5.17299">
        <ele>406.58</ele>
        <time>2025-03-12T09:27:38.394Z</time>
      </trkpt>
      <trkpt lat="47.92635" lon="5.17327">
        <ele>405.97</ele>
        <time>2025-03-12T09:27:42.550Z</time>
      </trkpt>
      <trkpt lat="47.92653" lon="5.17354">
        <ele>405.23</ele>
        <time>2025-03-12T09:27:46.710Z</time>
      </trkpt>
      <trkpt lat="47.92667" lon="5.1739">
        <ele>404.51</ele>
        <time>2025-03-12T09:27:50.874Z</time>
      </trkpt>
      <trkpt lat="47.92681" lon="5.17426">
        <ele>403.79</ele>
        <time>2025-03-12T09:27:55.043Z</time>
      </trkpt>
      <trkpt lat="47.92695" lon="5.17463">
        <ele>403.1</ele>
        <time>2025-03-12T09:27:59.216Z</time>
      </trkpt>
      <trkpt lat="47.92709" lon="5.17499">
        <ele>402.28</ele>
        <time>2025-03-12T09:28:03.394Z</time>
      </trkpt>
      <trkpt lat="47.92721" lon="5.1753">
        <ele>401.31</ele>
        <time>2025-03-12T09:28:07.576Z</time>
      </trkpt>
      <trkpt lat="47.92737" lon="5.17566">
        <ele>400.35</ele>
        <time>2025-03-12T09:28:11.762Z</time>
      </trkpt>
      <trkpt lat="47.92753" lon="5.17601">
        <ele>399.38</ele>
        <time>2025-03-12T09:28:15.953Z</time>
      </trkpt>
      <trkpt lat="47.92762" lon="5.17621">
        <ele>398.35</ele>
        <time>2025-03-12T09:28:20.147Z</time>
      </trkpt>
      <trkpt lat="47.9277" lon="5.17646">
        <ele>397.23</ele>
        <time>2025-03-12T09:28:24.344Z</time>
      </trkpt>
      <trkpt lat="47.92773" lon="5.17671">
        <ele>396.07</ele>
        <time>2025-03-12T09:28:28.543Z</time>
      </trkpt>
      <trkpt lat="47.92771" lon="5.17698">
        <ele>394.87</ele>
        <time>2025-03-12T09:28:32.745Z</time>
      </trkpt>
      <trkpt lat="47.92767" lon="5.17709">
        <ele>393.69</ele>
        <time>2025-03-12T09:28:36.949Z</time>
      </trkpt>
      <trkpt lat="47.92762" lon="5.1772">
        <ele>392.48</ele>
        <time>2025-03-12T09:28:41.154Z</time>
      </trkpt>
      <trkpt lat="47.92751" lon="5.17744">
        <ele>391.21</ele>
        <time>2025-03-12T09:28:45.362Z</time>
      </trkpt>
      <trkpt lat="47.92731" lon="5.17777">
        <ele>389.84</ele>
        <time>2025-03-12T09:28:49.575Z</time>
      </trkpt>
      <trkpt lat="47.9271" lon="5.1781">
        <ele>388.44</ele>
        <time>2025-03-12T09:28:53.793Z</time>
      </trkpt>
      <trkpt lat="47.92703" lon="5.17821">
        <ele>387.21</ele>
        <time>2025-03-12T09:28:58.012Z</time>
      </trkpt>
      <trkpt lat="47.92699" lon="5.17835">
        <ele>385.97</ele>
        <time>2025-03-12T09:29:02.233Z</time>
      </trkpt>
      <trkpt lat="47.92692" lon="5.17862">
        <ele>384.68</ele>
        <time>2025-03-12T09:29:06.457Z</time>
      </trkpt>
      <trkpt lat="47.92687" lon="5.17889">
        <ele>383.48</ele>
        <time>2025-03-12T09:29:10.684Z</time>
      </trkpt>
      <trkpt lat="47.92689" lon="5.17904">
        <ele>382.37</ele>
        <time>2025-03-12T09:29:14.913Z</time>
      </trkpt>
      <trkpt lat="47.92691" lon="5.17919">
        <ele>381.31</ele>
        <time>2025-03-12T09:29:19.143Z</time>
      </trkpt>
      <trkpt lat="47.92694" lon="5.17943">
        <ele>380.31</ele>
        <time>2025-03-12T09:29:23.376Z</time>
      </trkpt>
      <trkpt lat="47.92697" lon="5.17967">
        <ele>379.32</ele>
        <time>2025-03-12T09:29:27.612Z</time>
      </trkpt>
      <trkpt lat="47.927" lon="5.18007">
        <ele>378.37</ele>
        <time>2025-03-12T09:29:31.852Z</time>
      </trkpt>
      <trkpt lat="47.92703" lon="5.18047">
        <ele>377.52</ele>
        <time>2025-03-12T09:29:36.096Z</time>
      </trkpt>
      <trkpt lat="47.92701" lon="5.18078">
        <ele>376.76</ele>
        <time>2025-03-12T09:29:40.344Z</time>
      </trkpt>
      <trkpt lat="47.927" lon="5.18108">
        <ele>376.07</ele>
        <time>2025-03-12T09:29:44.595Z</time>
      </trkpt>
      <trkpt lat="47.92693" lon="5.18148">
        <ele>375.38</ele>
        <time>2025-03-12T09:29:48.850Z</time>
      </trkpt>
      <trkpt lat="47.92686" lon="5.18187">
        <ele>374.76</ele>
        <time>2025-03-12T09:29:53.110Z</time>
      </trkpt>
      <trkpt lat="47.92676" lon="5.18226">
        <ele>374.21</ele>
        <time>2025-03-12T09:29:57.374Z</time>
      </trkpt>
      <trkpt lat="47.92665" lon="5.18265">
        <ele>373.75</ele>
        <time>2025-03-12T09:30:01.643Z</time>
      </trkpt>
      <trkpt lat="47.92665" lon="5.18291">
        <ele>373.38</ele>
        <time>2025-03-12T09:30:05.915Z</time>
      </trkpt>
      <trkpt lat="47.92665" lon="5.18322">
        <ele>373.03</ele>
        <time>2025-03-12T09:30:10.190Z</time>
      </trkpt>
      <trkpt lat="47.92665" lon="5.18354">
        <ele>372.72</ele>
        <time>2025-03-12T09:30:14.468Z</time>
      </trkpt>
      <trkpt lat="47.92665" lon="5.18387">
        <ele>372.46</ele>
        <time>2025-03-12T09:30:18.750Z</time>
      </trkpt>
      <trkpt lat="47.92665" lon="5.18421">
        <ele>372.25</ele>
        <time>2025-03-12T09:30:23.035Z</time>
      </trkpt>
      <trkpt lat="47.92669" lon="5.18455">
        <ele>372.05</ele>
        <time>2025-03-12T09:30:27.324Z</time>
      </trkpt>
      <trkpt lat="47.92672" lon="5.1849">
        <ele>371.89</ele>
        <time>2025-03-12T09:30:31.617Z</time>
      </trkpt>
      <trkpt lat="47.92679" lon="5.18523">
        <ele>371.79</ele>
        <time>2025-03-12T09:30:35.914Z</time>
      </trkpt>
      <trkpt lat="47.92687" lon="5.18556">
        <ele>371.7</ele>
        <time>2025-03-12T09:30:40.215Z</time>
      </trkpt>
      <trkpt lat="47.92694" lon="5.18589">
        <ele>371.55</ele>
        <time>2025-03-12T09:30:44.519Z</time>
      </trkpt>
      <trkpt lat="47.92701" lon="5.18621">
        <ele>371.43</ele>
        <time>2025-03-12T09:30:48.827Z</time>
      </trkpt>
      <trkpt lat="47.92709" lon="5.18658">
        <ele>371.33</ele>
        <time>2025-03-12T09:30:53.139Z</time>
      </trkpt>
      <trkpt lat="47.92717" lon="5.18694">
        <ele>371.24</ele>
        <time>2025-03-12T09:30:57.455Z</time>
      </trkpt>
      <trkpt lat="47.9272" lon="5.18732">
        <ele>371.14</ele>
        <time>2025-03-12T09:31:01.775Z</time>
      </trkpt>
      <trkpt lat="47.92722" lon="5.1877">
        <ele>371.03</ele>
        <time>2025-03-12T09:31:06.099Z</time>
      </trkpt>
      <trkpt lat="47.92723" lon="5.18812">
        <ele>370.98</ele>
        <time>2025-03-12T09:31:10.428Z</time>
      </trkpt>
      <trkpt lat="47.92724" lon="5.18854">
        <ele>370.88</ele>
        <time>2025-03-12T09:31:14.761Z</time>
      </trkpt>
      <trkpt lat="47.92727" lon="5.18889">
        <ele>370.78</ele>
        <time>2025-03-12T09:31:19.098Z</time>
      </trkpt>
      <trkpt lat="47.9273" lon="5.18924">
        <ele>370.74</ele>
        <time>2025-03-12T09:31:23.439Z</time>
      </trkpt>
      <trkpt lat="47.92733" lon="5.18967">
        <ele>370.72</ele>
        <time>2025-03-12T09:31:27.785Z</time>
      </trkpt>
      <trkpt lat="47.92737" lon="5.19009">
        <ele>370.65</ele>
        <time>2025-03-12T09:31:32.135Z</time>
      </trkpt>
      <trkpt lat="47.92738" lon="5.19019">
        <ele>370.63</ele>
        <time>2025-03-12T09:31:36.486Z</time>
      </trkpt>
      <trkpt lat="47.92741" lon="5.19058">
        <ele>370.59</ele>
        <time>2025-03-12T09:31:40.841Z</time>
      </trkpt>
      <trkpt lat="47.92744" lon="5.19096">
        <ele>370.58</ele>
        <time>2025-03-12T09:31:45.201Z</time>
      </trkpt>
      <trkpt lat="47.92751" lon="5.19132">
        <ele>370.61</ele>
        <time>2025-03-12T09:31:49.565Z</time>
      </trkpt>
      <trkpt lat="47.92757" lon="5.19168">
        <ele>370.66</ele>
        <time>2025-03-12T09:31:53.933Z</time>
      </trkpt>
      <trkpt lat="47.9277" lon="5.19208">
        <ele>370.71</ele>
        <time>2025-03-12T09:31:58.305Z</time>
      </trkpt>
      <trkpt lat="47.92778" lon="5.19233">
        <ele>370.66</ele>
        <time>2025-03-12T09:32:02.680Z</time>
      </trkpt>
      <trkpt lat="47.92786" lon="5.19258">
        <ele>370.57</ele>
        <time>2025-03-12T09:32:07.058Z</time>
      </trkpt>
      <trkpt lat="47.92789" lon="5.19265">
        <ele>370.52</ele>
        <time>2025-03-12T09:32:11.437Z</time>
      </trkpt>
      <trkpt lat="47.92791" lon="5.19301">
        <ele>370.46</ele>
        <time>2025-03-12T09:32:15.820Z</time>
      </trkpt>
      <trkpt lat="47.9279" lon="5.19308">
        <ele>370.4</ele>
        <time>2025-03-12T09:32:20.204Z</time>
      </trkpt>
      <trkpt lat="47.92799" lon="5.19332">
        <ele>370.32</ele>
        <time>2025-03-12T09:32:24.591Z</time>
      </trkpt>
      <trkpt lat="47.92802" lon="5.19337">
        <ele>370.27</ele>
        <time>2025-03-12T09:32:28.979Z</time>
      </trkpt>
      <trkpt lat="47.92805" lon="5.19343">
        <ele>370.21</ele>
        <time>2025-03-12T09:32:33.367Z</time>
      </trkpt>
      <trkpt lat="47.92815" lon="5.19362">
        <ele>370.13</ele>
        <time>2025-03-12T09:32:37.758Z</time>
      </trkpt>
      <trkpt lat="47.92828" lon="5.19387">
        <ele>370.05</ele>
        <time>2025-03-12T09:32:42.152Z</time>
      </trkpt>
      <trkpt lat="47.92833" lon="5.19396">
        <ele>369.99</ele>
        <time>2025-03-12T09:32:46.548Z</time>
      </trkpt>
      <trkpt lat="47.92838" lon="5.19398">
        <ele>369.93</ele>
        <time>2025-03-12T09:32:50.944Z</time>
      </trkpt>
      <trkpt lat="47.92842" lon="5.19395">
        <ele>369.86</ele>
        <time>2025-03-12T09:32:55.341Z</time>
      </trkpt>
      <trkpt lat="47.92854" lon="5.19386">
        <ele>369.78</ele>
        <time>2025-03-12T09:32:59.740Z</time>
      </trkpt>
      <trkpt lat="47.92869" lon="5.19371">
        <ele>369.69</ele>
        <time>2025-03-12T09:33:04.142Z</time>
      </trkpt>
      <trkpt lat="47.9288" lon="5.19357">
        <ele>369.6</ele>
        <time>2025-03-12T09:33:08.547Z</time>
      </trkpt>
      <trkpt lat="47.92887" lon="5.19349">
        <ele>369.52</ele>
        <time>2025-03-12T09:33:12.953Z</time>
      </trkpt>
      <trkpt lat="47.9289" lon="5.19345">
        <ele>369.43</ele>
        <time>2025-03-12T09:33:17.360Z</time>
      </trkpt>
      <trkpt lat="47.92903" lon="5.19328">
        <ele>369.31</ele>
        <time>2025-03-12T09:33:21.769Z</time>
      </trkpt>
      <trkpt lat="47.92926" lon="5.19299">
        <ele>369.21</ele>
        <time>2025-03-12T09:33:26.183Z</time>
      </trkpt>
      <trkpt lat="47.92938" lon="5.19284">
        <ele>369.07</ele>
        <time>2025-03-12T09:33:30.600Z</time>
      </trkpt>
      <trkpt lat="47.9295" lon="5.19269">
        <ele>368.91</ele>
        <time>2025-03-12T09:33:35.019Z</time>
      </trkpt>
      <trkpt lat="47.92971" lon="5.19239">
        <ele>368.7</ele>
        <time>2025-03-12T09:33:39.443Z</time>
      </trkpt>
      <trkpt lat="47.92987" lon="5.19216">
        <ele>368.6</ele>
        <time>2025-03-12T09:33:43.870Z</time>
      </trkpt>
      <trkpt lat="47.93002" lon="5.19193">
        <ele>368.55</ele>
        <time>2025-03-12T09:33:48.301Z</time>
      </trkpt>
      <trkpt lat="47.93023" lon="5.19163">
        <ele>368.51</ele>
        <time>2025-03-12T09:33:52.736Z</time>
      </trkpt>
      <trkpt lat="47.93043" lon="5.19133">
        <ele>368.44</ele>
        <time>2025-03-12T09:33:57.176Z</time>
      </trkpt>
      <trkpt lat="47.9306" lon="5.1911">
        <ele>368.31</ele>
        <time>2025-03-12T09:34:01.620Z</time>
      </trkpt>
      <trkpt lat="47.93076" lon="5.19086">
        <ele>368.18</ele>
        <time>2025-03-12T09:34:06.067Z</time>
      </trkpt>
      <trkpt lat="47.93095" lon="5.19059">
        <ele>368.07</ele>
        <time>2025-03-12T09:34:10.518Z</time>
      </trkpt>
      <trkpt lat="47.93113" lon="5.19032">
        <ele>367.92</ele>
        <time>2025-03-12T09:34:14.974Z</time>
      </trkpt>
      <trkpt lat="47.93133" lon="5.19003">
        <ele>367.81</ele>
        <time>2025-03-12T09:34:19.434Z</time>
      </trkpt>
      <trkpt lat="47.93153" lon="5.18974">
        <ele>367.73</ele>
        <time>2025-03-12T09:34:23.899Z</time>
      </trkpt>
      <trkpt lat="47.93171" lon="5.18945">
        <ele>367.63</ele>
        <time>2025-03-12T09:34:28.368Z</time>
      </trkpt>
      <trkpt lat="47.93189" lon="5.18915">
        <ele>367.52</ele>
        <time>2025-03-12T09:34:32.841Z</time>
      </trkpt>
      <trkpt lat="47.93203" lon="5.18891">
        <ele>367.41</ele>
        <time>2025-03-12T09:34:37.318Z</time>
      </trkpt>
      <trkpt lat="47.93216" lon="5.18866">
        <ele>367.34</ele>
        <time>2025-03-12T09:34:41.798Z</time>
      </trkpt>
      <trkpt lat="47.93231" lon="5.18841">
        <ele>367.26</ele>
        <time>2025-03-12T09:34:46.282Z</time>
      </trkpt>
      <trkpt lat="47.93245" lon="5.18815">
        <ele>367.17</ele>
        <time>2025-03-12T09:34:50.769Z</time>
      </trkpt>
      <trkpt lat="47.93258" lon="5.18794">
        <ele>367.07</ele>
        <time>2025-03-12T09:34:55.259Z</time>
      </trkpt>
      <trkpt lat="47.93271" lon="5.18774">
        <ele>366.96</ele>
        <time>2025-03-12T09:34:59.752Z</time>
      </trkpt>
      <trkpt lat="47.93287" lon="5.18756">
        <ele>366.79</ele>
        <time>2025-03-12T09:35:04.248Z</time>
      </trkpt>
      <trkpt lat="47.93303" lon="5.18739">
        <ele>366.59</ele>
        <time>2025-03-12T09:35:08.748Z</time>
      </trkpt>
      <trkpt lat="47.93329" lon="5.1872">
        <ele>366.37</ele>
        <time>2025-03-12T09:35:13.252Z</time>
      </trkpt>
      <trkpt lat="47.93356" lon="5.18701">
        <ele>366.12</ele>
        <time>2025-03-12T09:35:17.761Z</time>
      </trkpt>
      <trkpt lat="47.93383" lon="5.18681">
        <ele>365.84</ele>
        <time>2025-03-12T09:35:22.275Z</time>
      </trkpt>
      <trkpt lat="47.93409" lon="5.18662">
        <ele>365.53</ele>
        <time>2025-03-12T09:35:26.794Z</time>
      </trkpt>
      <trkpt lat="47.93436" lon="5.18643">
        <ele>365.26</ele>
        <time>2025-03-12T09:35:31.317Z</time>
      </trkpt>
      <trkpt lat="47.93461" lon="5.18618">
        <ele>364.95</ele>
        <time>2025-03-12T09:35:35.845Z</time>
      </trkpt>
      <trkpt lat="47.93486" lon="5.18593">
        <ele>364.71</ele>
        <time>2025-03-12T09:35:40.378Z</time>
      </trkpt>
      <trkpt lat="47.93511" lon="5.18568">
        <ele>364.45</ele>
        <time>2025-03-12T09:35:44.916Z</time>
      </trkpt>
      <trkpt lat="47.93537" lon="5.18543">
        <ele>364.07</ele>
        <time>2025-03-12T09:35:49.459Z</time>
      </trkpt>
      <trkpt lat="47.93562" lon="5.18518">
        <ele>363.66</ele>
        <time>2025-03-12T09:35:54.006Z</time>
      </trkpt>
      <trkpt lat="47.93587" lon="5.18493">
        <ele>363.33</ele>
        <time>2025-03-12T09:35:58.558Z</time>
      </trkpt>
      <trkpt lat="47.93612" lon="5.18468">
        <ele>363.11</ele>
        <time>2025-03-12T09:36:03.115Z</time>
      </trkpt>
      <trkpt lat="47.93638" lon="5.18443">
        <ele>362.91</ele>
        <time>2025-03-12T09:36:07.677Z</time>
      </trkpt>
      <trkpt lat="47.93665" lon="5.18425">
        <ele>362.71</ele>
        <time>2025-03-12T09:36:12.244Z</time>
      </trkpt>
      <trkpt lat="47.93692" lon="5.18407">
        <ele>362.56</ele>
        <time>2025-03-12T09:36:16.816Z</time>
      </trkpt>
      <trkpt lat="47.93719" lon="5.1839">
        <ele>362.4</ele>
        <time>2025-03-12T09:36:21.392Z</time>
      </trkpt>
      <trkpt lat="47.93746" lon="5.18372">
        <ele>362.34</ele>
        <time>2025-03-12T09:36:25.973Z</time>
      </trkpt>
      <trkpt lat="47.93773" lon="5.18354">
        <ele>362.3</ele>
        <time>2025-03-12T09:36:30.559Z</time>
      </trkpt>
      <trkpt lat="47.938" lon="5.18336">
        <ele>362.27</ele>
        <time>2025-03-12T09:36:35.149Z</time>
      </trkpt>
      <trkpt lat="47.93827" lon="5.18318">
        <ele>362.41</ele>
        <time>2025-03-12T09:36:39.744Z</time>
      </trkpt>
      <trkpt lat="47.93854" lon="5.183">
        <ele>362.66</ele>
        <time>2025-03-12T09:36:44.344Z</time>
      </trkpt>
      <trkpt lat="47.93881" lon="5.18283">
        <ele>362.9</ele>
        <time>2025-03-12T09:36:48.949Z</time>
      </trkpt>
      <trkpt lat="47.93908" lon="5.18265">
        <ele>363.15</ele>
        <time>2025-03-12T09:36:53.558Z</time>
      </trkpt>
      <trkpt lat="47.93936" lon="5.18247">
        <ele>363.39</ele>
        <time>2025-03-12T09:36:58.172Z</time>
      </trkpt>
      <trkpt lat="47.93963" lon="5.18229">
        <ele>363.68</ele>
        <time>2025-03-12T09:37:02.791Z</time>
      </trkpt>
      <trkpt lat="47.9399" lon="5.18211">
        <ele>364.08</ele>
        <time>2025-03-12T09:37:07.415Z</time>
      </trkpt>
      <trkpt lat="47.94017" lon="5.18193">
        <ele>364.54</ele>
        <time>2025-03-12T09:37:12.043Z</time>
      </trkpt>
      <trkpt lat="47.94044" lon="5.18176">
        <ele>365.12</ele>
        <time>2025-03-12T09:37:16.676Z</time>
      </trkpt>
      <trkpt lat="47.94071" lon="5.18158">
        <ele>365.77</ele>
        <time>2025-03-12T09:37:21.314Z</time>
      </trkpt>
      <trkpt lat="47.94071" lon="5.18158">
        <ele>366.43</ele>
        <time>2025-03-12T09:37:25.952Z</time>
      </trkpt>
      <trkpt lat="47.94088" lon="5.18147">
        <ele>367.18</ele>
        <time>2025-03-12T09:37:30.593Z</time>
      </trkpt>
      <trkpt lat="47.94107" lon="5.18143">
        <ele>368.02</ele>
        <time>2025-03-12T09:37:35.237Z</time>
      </trkpt>
      <trkpt lat="47.94137" lon="5.18143">
        <ele>368.97</ele>
        <time>2025-03-12T09:37:39.886Z</time>
      </trkpt>
      <trkpt lat="47.9415" lon="5.18147">
        <ele>369.88</ele>
        <time>2025-03-12T09:37:44.537Z</time>
      </trkpt>
      <trkpt lat="47.94168" lon="5.18163">
        <ele>370.86</ele>
        <time>2025-03-12T09:37:49.191Z</time>
      </trkpt>
      <trkpt lat="47.94185" lon="5.18179">
        <ele>371.85</ele>
        <time>2025-03-12T09:37:53.848Z</time>
      </trkpt>
      <trkpt lat="47.94204" lon="5.18204">
        <ele>372.88</ele>
        <time>2025-03-12T09:37:58.510Z</time>
      </trkpt>
      <trkpt lat="47.94223" lon="5.18229">
        <ele>373.93</ele>
        <time>2025-03-12T09:38:03.176Z</time>
      </trkpt>
      <trkpt lat="47.94243" lon="5.18253">
        <ele>374.97</ele>
        <time>2025-03-12T09:38:07.846Z</time>
      </trkpt>
      <trkpt lat="47.94262" lon="5.18278">
        <ele>375.97</ele>
        <time>2025-03-12T09:38:12.520Z</time>
      </trkpt>
      <trkpt lat="47.94273" lon="5.18289">
        <ele>376.96</ele>
        <time>2025-03-12T09:38:17.196Z</time>
      </trkpt>
      <trkpt lat="47.94281" lon="5.18291">
        <ele>377.98</ele>
        <time>2025-03-12T09:38:21.873Z</time>
      </trkpt>
      <trkpt lat="47.94296" lon="5.1828">
        <ele>379.08</ele>
        <time>2025-03-12T09:38:26.553Z</time>
      </trkpt>
      <trkpt lat="47.94308" lon="5.18251">
        <ele>380.23</ele>
        <time>2025-03-12T09:38:31.236Z</time>
      </trkpt>
      <trkpt lat="47.94319" lon="5.18223">
        <ele>381.33</ele>
        <time>2025-03-12T09:38:35.923Z</time>
      </trkpt>
      <trkpt lat="47.94331" lon="5.18194">
        <ele>382.32</ele>
        <time>2025-03-12T09:38:40.614Z</time>
      </trkpt>
      <trkpt lat="47.94346" lon="5.18177">
        <ele>383.3</ele>
        <time>2025-03-12T09:38:45.308Z</time>
      </trkpt>
      <trkpt lat="47.94358" lon="5.18171">
        <ele>384.25</ele>
        <time>2025-03-12T09:38:50.004Z</time>
      </trkpt>
      <trkpt lat="47.94384" lon="5.18165">
        <ele>385.17</ele>
        <time>2025-03-12T09:38:54.704Z</time>
      </trkpt>
      <trkpt lat="47.9441" lon="5.1816">
        <ele>386.07</ele>
        <time>2025-03-12T09:38:59.408Z</time>
      </trkpt>
      <trkpt lat="47.94431" lon="5.18147">
        <ele>386.97</ele>
        <time>2025-03-12T09:39:04.116Z</time>
      </trkpt>
      <trkpt lat="47.94446" lon="5.18135">
        <ele>387.85</ele>
        <time>2025-03-12T09:39:08.827Z</time>
      </trkpt>
      <trkpt lat="47.94461" lon="5.18123">
        <ele>388.75</ele>
        <time>2025-03-12T09:39:13.540Z</time>
      </trkpt>
      <trkpt lat="47.94482" lon="5.18101">
        <ele>389.71</ele>
        <time>2025-03-12T09:39:18.257Z</time>
      </trkpt>
      <trkpt lat="47.94502" lon="5.18078">
        <ele>390.67</ele>
        <time>2025-03-12T09:39:22.978Z</time>
      </trkpt>
      <trkpt lat="47.94522" lon="5.18055">
        <ele>391.65</ele>
        <time>2025-03-12T09:39:27.703Z</time>
      </trkpt>
      <trkpt lat="47.94542" lon="5.18032">
        <ele>392.64</ele>
        <time>2025-03-12T09:39:32.433Z</time>
      </trkpt>
      <trkpt lat="47.94562" lon="5.1801">
        <ele>393.61</ele>
        <time>2025-03-12T09:39:37.167Z</time>
      </trkpt>
      <trkpt lat="47.94577" lon="5.17984">
        <ele>394.56</ele>
        <time>2025-03-12T09:39:41.904Z</time>
      </trkpt>
      <trkpt lat="47.94592" lon="5.17958">
        <ele>395.47</ele>
        <time>2025-03-12T09:39:46.645Z</time>
      </trkpt>
      <trkpt lat="47.94606" lon="5.17925">
        <ele>396.44</ele>
        <time>2025-03-12T09:39:51.390Z</time>
      </trkpt>
      <trkpt lat="47.9462" lon="5.17891">
        <ele>397.41</ele>
        <time>2025-03-12T09:39:56.139Z</time>
      </trkpt>
      <trkpt lat="47.94634" lon="5.17858">
        <ele>398.38</ele>
        <time>2025-03-12T09:40:00.893Z</time>
      </trkpt>
      <trkpt lat="47.94647" lon="5.17824">
        <ele>399.31</ele>
        <time>2025-03-12T09:40:05.651Z</time>
      </trkpt>
      <trkpt lat="47.94661" lon="5.17791">
        <ele>400.24</ele>
        <time>2025-03-12T09:40:10.413Z</time>
      </trkpt>
      <trkpt lat="47.94674" lon="5.17765">
        <ele>401.1</ele>
        <time>2025-03-12T09:40:15.178Z</time>
      </trkpt>
      <trkpt lat="47.94693" lon="5.17739">
        <ele>402.05</ele>
        <time>2025-03-12T09:40:19.948Z</time>
      </trkpt>
      <trkpt lat="47.9471" lon="5.17724">
        <ele>402.95</ele>
        <time>2025-03-12T09:40:24.721Z</time>
      </trkpt>
      <trkpt lat="47.94728" lon="5.17714">
        <ele>403.84</ele>
        <time>2025-03-12T09:40:29.497Z</time>
      </trkpt>
      <trkpt lat="47.94747" lon="5.17709">
        <ele>404.67</ele>
        <time>2025-03-12T09:40:34.276Z</time>
      </trkpt>
      <trkpt lat="47.94766" lon="5.17709">
        <ele>405.37</ele>
        <time>2025-03-12T09:40:39.058Z</time>
      </trkpt>
      <trkpt lat="47.94783" lon="5.17717">
        <ele>405.88</ele>
        <time>2025-03-12T09:40:43.843Z</time>
      </trkpt>
      <trkpt lat="47.94801" lon="5.17724">
        <ele>406.35</ele>
        <time>2025-03-12T09:40:48.631Z</time>
      </trkpt>
      <trkpt lat="47.94816" lon="5.17734">
        <ele>406.73</ele>
        <time>2025-03-12T09:40:53.421Z</time>
      </trkpt>
      <trkpt lat="47.94831" lon="5.17744">
        <ele>407.11</ele>
        <time>2025-03-12T09:40:58.214Z</time>
      </trkpt>
      <trkpt lat="47.94856" lon="5.17762">
        <ele>407.39</ele>
        <time>2025-03-12T09:41:03.011Z</time>
      </trkpt>
      <trkpt lat="47.94881" lon="5.17781">
        <ele>407.53</ele>
        <time>2025-03-12T09:41:07.813Z</time>
      </trkpt>
      <trkpt lat="47.94907" lon="5.17799">
        <ele>407.56</ele>
        <time>2025-03-12T09:41:12.620Z</time>
      </trkpt>
      <trkpt lat="47.94932" lon="5.17818">
        <ele>407.54</ele>
        <time>2025-03-12T09:41:17.431Z</time>
      </trkpt>
      <trkpt lat="47.94958" lon="5.17837">
        <ele>407.49</ele>
        <time>2025-03-12T09:41:22.247Z</time>
      </trkpt>
      <trkpt lat="47.94983" lon="5.17855">
        <ele>407.32</ele>
        <time>2025-03-12T09:41:27.067Z</time>
      </trkpt>
      <trkpt lat="47.95005" lon="5.17865">
        <ele>407.12</ele>
        <time>2025-03-12T09:41:31.891Z</time>
      </trkpt>
      <trkpt lat="47.95028" lon="5.17874">
        <ele>406.88</ele>
        <time>2025-03-12T09:41:36.719Z</time>
      </trkpt>
      <trkpt lat="47.95053" lon="5.17878">
        <ele>406.59</ele>
        <time>2025-03-12T09:41:41.551Z</time>
      </trkpt>
      <trkpt lat="47.95078" lon="5.17881">
        <ele>406.22</ele>
        <time>2025-03-12T09:41:46.387Z</time>
      </trkpt>
      <trkpt lat="47.95104" lon="5.17884">
        <ele>405.81</ele>
        <time>2025-03-12T09:41:51.227Z</time>
      </trkpt>
      <trkpt lat="47.95129" lon="5.17887">
        <ele>405.34</ele>
        <time>2025-03-12T09:41:56.071Z</time>
      </trkpt>
      <trkpt lat="47.95153" lon="5.17887">
        <ele>404.78</ele>
        <time>2025-03-12T09:42:00.919Z</time>
      </trkpt>
      <trkpt lat="47.95177" lon="5.17886">
        <ele>404.1</ele>
        <time>2025-03-12T09:42:05.771Z</time>
      </trkpt>
      <trkpt lat="47.95202" lon="5.17885">
        <ele>403.27</ele>
        <time>2025-03-12T09:42:10.627Z</time>
      </trkpt>
      <trkpt lat="47.9523" lon="5.17868">
        <ele>402.33</ele>
        <time>2025-03-12T09:42:15.487Z</time>
      </trkpt>
      <trkpt lat="47.95258" lon="5.1785">
        <ele>401.26</ele>
        <time>2025-03-12T09:42:20.352Z</time>
      </trkpt>
      <trkpt lat="47.95285" lon="5.17832">
        <ele>400.23</ele>
        <time>2025-03-12T09:42:25.222Z</time>
      </trkpt>
      <trkpt lat="47.95313" lon="5.17815">
        <ele>399.22</ele>
        <time>2025-03-12T09:42:30.097Z</time>
      </trkpt>
      <trkpt lat="47.95341" lon="5.17797">
        <ele>398.17</ele>
        <time>2025-03-12T09:42:34.977Z</time>
      </trkpt>
      <trkpt lat="47.95363" lon="5.17786">
        <ele>397.04</ele>
        <time>2025-03-12T09:42:39.860Z</time>
      </trkpt>
      <trkpt lat="47.95384" lon="5.17774">
        <ele>395.92</ele>
        <time>2025-03-12T09:42:44.747Z</time>
      </trkpt>
      <trkpt lat="47.95406" lon="5.17763">
        <ele>394.84</ele>
        <time>2025-03-12T09:42:49.638Z</time>
      </trkpt>
      <trkpt lat="47.95424" lon="5.17734">
        <ele>393.83</ele>
        <time>2025-03-12T09:42:54.533Z</time>
      </trkpt>
      <trkpt lat="47.95442" lon="5.17705">
        <ele>392.85</ele>
        <time>2025-03-12T09:42:59.432Z</time>
      </trkpt>
      <trkpt lat="47.95467" lon="5.17676">
        <ele>391.88</ele>
        <time>2025-03-12T09:43:04.336Z</time>
      </trkpt>
      <trkpt lat="47.95491" lon="5.17647">
        <ele>391.05</ele>
        <time>2025-03-12T09:43:09.245Z</time>
      </trkpt>
      <trkpt lat="47.9551" lon="5.17633">
        <ele>390.33</ele>
        <time>2025-03-12T09:43:14.158Z</time>
      </trkpt>
      <trkpt lat="47.95528" lon="5.17619">
        <ele>389.78</ele>
        <time>2025-03-12T09:43:19.074Z</time>
      </trkpt>
      <trkpt lat="47.95552" lon="5.17614">
        <ele>389.33</ele>
        <time>2025-03-12T09:43:23.994Z</time>
      </trkpt>
      <trkpt lat="47.95577" lon="5.17609">
        <ele>389</ele>
        <time>2025-03-12T09:43:28.918Z</time>
      </trkpt>
      <trkpt lat="47.95601" lon="5.17604">
        <ele>388.76</ele>
        <time>2025-03-12T09:43:33.846Z</time>
      </trkpt>
      <trkpt lat="47.9562" lon="5.17587">
        <ele>388.6</ele>
        <time>2025-03-12T09:43:38.777Z</time>
      </trkpt>
      <trkpt lat="47.9564" lon="5.1757">
        <ele>388.62</ele>
        <time>2025-03-12T09:43:43.712Z</time>
      </trkpt>
      <trkpt lat="47.95664" lon="5.17554">
        <ele>388.76</ele>
        <time>2025-03-12T09:43:48.651Z</time>
      </trkpt>
      <trkpt lat="47.95689" lon="5.17538">
        <ele>389.04</ele>
        <time>2025-03-12T09:43:53.595Z</time>
      </trkpt>
      <trkpt lat="47.95707" lon="5.17534">
        <ele>389.38</ele>
        <time>2025-03-12T09:43:58.541Z</time>
      </trkpt>
      <trkpt lat="47.95725" lon="5.17531">
        <ele>389.83</ele>
        <time>2025-03-12T09:44:03.490Z</time>
      </trkpt>
      <trkpt lat="47.95743" lon="5.17528">
        <ele>390.34</ele>
        <time>2025-03-12T09:44:08.442Z</time>
      </trkpt>
      <trkpt lat="47.9576" lon="5.17525">
        <ele>390.98</ele>
        <time>2025-03-12T09:44:13.397Z</time>
      </trkpt>
      <trkpt lat="47.95789" lon="5.17527">
        <ele>391.57</ele>
        <time>2025-03-12T09:44:18.357Z</time>
      </trkpt>
      <trkpt lat="47.95819" lon="5.17529">
        <ele>392.21</ele>
        <time>2025-03-12T09:44:23.321Z</time>
      </trkpt>
      <trkpt lat="47.95848" lon="5.17531">
        <ele>393.14</ele>
        <time>2025-03-12T09:44:28.290Z</time>
      </trkpt>
      <trkpt lat="47.95878" lon="5.17533">
        <ele>394.08</ele>
        <time>2025-03-12T09:44:33.264Z</time>
      </trkpt>
      <trkpt lat="47.95906" lon="5.17527">
        <ele>395.05</ele>
        <time>2025-03-12T09:44:38.242Z</time>
      </trkpt>
      <trkpt lat="47.95933" lon="5.17522">
        <ele>396.06</ele>
        <time>2025-03-12T09:44:43.225Z</time>
      </trkpt>
      <trkpt lat="47.95961" lon="5.17516">
        <ele>397.19</ele>
        <time>2025-03-12T09:44:48.212Z</time>
      </trkpt>
      <trkpt lat="47.95989" lon="5.1751">
        <ele>398.25</ele>
        <time>2025-03-12T09:44:53.204Z</time>
      </trkpt>
      <trkpt lat="47.96017" lon="5.17504">
        <ele>399.14</ele>
        <time>2025-03-12T09:44:58.200Z</time>
      </trkpt>
      <trkpt lat="47.96045" lon="5.17498">
        <ele>399.93</ele>
        <time>2025-03-12T09:45:03.201Z</time>
      </trkpt>
      <trkpt lat="47.96073" lon="5.17493">
        <ele>400.67</ele>
        <time>2025-03-12T09:45:08.206Z</time>
      </trkpt>
      <trkpt lat="47.96099" lon="5.17485">
        <ele>401.32</ele>
        <time>2025-03-12T09:45:13.216Z</time>
      </trkpt>
      <trkpt lat="47.96125" lon="5.17477">
        <ele>401.82</ele>
        <time>2025-03-12T09:45:18.230Z</time>
      </trkpt>
      <trkpt lat="47.96151" lon="5.17469">
        <ele>402.25</ele>
        <time>2025-03-12T09:45:23.248Z</time>
      </trkpt>
      <trkpt lat="47.96178" lon="5.17462">
        <ele>402.61</ele>
        <time>2025-03-12T09:45:28.271Z</time>
      </trkpt>
      <trkpt lat="47.96204" lon="5.17454">
        <ele>402.8</ele>
        <time>2025-03-12T09:45:33.298Z</time>
      </trkpt>
      <trkpt lat="47.96227" lon="5.17449">
        <ele>402.86</ele>
        <time>2025-03-12T09:45:38.329Z</time>
      </trkpt>
      <trkpt lat="47.96251" lon="5.17444">
        <ele>402.79</ele>
        <time>2025-03-12T09:45:43.363Z</time>
      </trkpt>
      <trkpt lat="47.96275" lon="5.17439">
        <ele>402.62</ele>
        <time>2025-03-12T09:45:48.401Z</time>
      </trkpt>
      <trkpt lat="47.96303" lon="5.17435">
        <ele>402.31</ele>
        <time>2025-03-12T09:45:53.444Z</time>
      </trkpt>
      <trkpt lat="47.96331" lon="5.17431">
        <ele>401.82</ele>
        <time>2025-03-12T09:45:58.491Z</time>
      </trkpt>
      <trkpt lat="47.9636" lon="5.17428">
        <ele>401.18</ele>
        <time>2025-03-12T09:46:03.543Z</time>
      </trkpt>
      <trkpt lat="47.96388" lon="5.17424">
        <ele>400.44</ele>
        <time>2025-03-12T09:46:08.600Z</time>
      </trkpt>
      <trkpt lat="47.96418" lon="5.17413">
        <ele>399.56</ele>
        <time>2025-03-12T09:46:13.661Z</time>
      </trkpt>
      <trkpt lat="47.96418" lon="5.17413">
        <ele>398.58</ele>
        <time>2025-03-12T09:46:18.722Z</time>
      </trkpt>
      <trkpt lat="47.96448" lon="5.174">
        <ele>397.4</ele>
        <time>2025-03-12T09:46:23.788Z</time>
      </trkpt>
      <trkpt lat="47.96473" lon="5.17381">
        <ele>396.16</ele>
        <time>2025-03-12T09:46:28.859Z</time>
      </trkpt>
      <trkpt lat="47.96498" lon="5.17362">
        <ele>394.76</ele>
        <time>2025-03-12T09:46:33.934Z</time>
      </trkpt>
      <trkpt lat="47.96498" lon="5.17362">
        <ele>393.37</ele>
        <time>2025-03-12T09:46:39.009Z</time>
      </trkpt>
      <trkpt lat="47.96523" lon="5.17341">
        <ele>391.75</ele>
        <time>2025-03-12T09:46:44.089Z</time>
      </trkpt>
      <trkpt lat="47.96548" lon="5.17321">
        <ele>390.08</ele>
        <time>2025-03-12T09:46:49.174Z</time>
      </trkpt>
      <trkpt lat="47.96573" lon="5.173">
        <ele>388.33</ele>
        <time>2025-03-12T09:46:54.263Z</time>
      </trkpt>
      <trkpt lat="47.96599" lon="5.1728">
        <ele>386.66</ele>
        <time>2025-03-12T09:46:59.357Z</time>
      </trkpt>
      <trkpt lat="47.96622" lon="5.17264">
        <ele>384.9</ele>
        <time>2025-03-12T09:47:04.455Z</time>
      </trkpt>
      <trkpt lat="47.96645" lon="5.17247">
        <ele>383.12</ele>
        <time>2025-03-12T09:47:09.557Z</time>
      </trkpt>
      <trkpt lat="47.96668" lon="5.17231">
        <ele>381.39</ele>
        <time>2025-03-12T09:47:14.663Z</time>
      </trkpt>
      <trkpt lat="47.96691" lon="5.17215">
        <ele>379.69</ele>
        <time>2025-03-12T09:47:19.773Z</time>
      </trkpt>
      <trkpt lat="47.96715" lon="5.17199">
        <ele>378.05</ele>
        <time>2025-03-12T09:47:24.887Z</time>
      </trkpt>
      <trkpt lat="47.96733" lon="5.17175">
        <ele>376.52</ele>
        <time>2025-03-12T09:47:30.005Z</time>
      </trkpt>
      <trkpt lat="47.96751" lon="5.17151">
        <ele>375.07</ele>
        <time>2025-03-12T09:47:35.127Z</time>
      </trkpt>
      <trkpt lat="47.96767" lon="5.17116">
        <ele>373.74</ele>
        <time>2025-03-12T09:47:40.254Z</time>
      </trkpt>
      <trkpt lat="47.96783" lon="5.17081">
        <ele>372.58</ele>
        <time>2025-03-12T09:47:45.385Z</time>
      </trkpt>
      <trkpt lat="47.96795" lon="5.17045">
        <ele>371.37</ele>
        <time>2025-03-12T09:47:50.520Z</time>
      </trkpt>
      <trkpt lat="47.96806" lon="5.1701">
        <ele>370.18</ele>
        <time>2025-03-12T09:47:55.660Z</time>
      </trkpt>
      <trkpt lat="47.96818" lon="5.16975">
        <ele>369.09</ele>
        <time>2025-03-12T09:48:00.804Z</time>
      </trkpt>
      <trkpt lat="47.96832" lon="5.16942">
        <ele>368.22</ele>
        <time>2025-03-12T09:48:05.952Z</time>
      </trkpt>
      <trkpt lat="47.96846" lon="5.16908">
        <ele>367.64</ele>
        <time>2025-03-12T09:48:11.104Z</time>
      </trkpt>
      <trkpt lat="47.9686" lon="5.16875">
        <ele>367.25</ele>
        <time>2025-03-12T09:48:16.261Z</time>
      </trkpt>
      <trkpt lat="47.96874" lon="5.16841">
        <ele>366.86</ele>
        <time>2025-03-12T09:48:21.422Z</time>
      </trkpt>
      <trkpt lat="47.96888" lon="5.16808">
        <ele>366.52</ele>
        <time>2025-03-12T09:48:26.587Z</time>
      </trkpt>
      <trkpt lat="47.96902" lon="5.16788">
        <ele>366.21</ele>
        <time>2025-03-12T09:48:31.755Z</time>
      </trkpt>
      <trkpt lat="47.96916" lon="5.16767">
        <ele>366.02</ele>
        <time>2025-03-12T09:48:36.926Z</time>
      </trkpt>
      <trkpt lat="47.96938" lon="5.16747">
        <ele>365.87</ele>
        <time>2025-03-12T09:48:42.101Z</time>
      </trkpt>
      <trkpt lat="47.96959" lon="5.16726">
        <ele>365.84</ele>
        <time>2025-03-12T09:48:47.281Z</time>
      </trkpt>
      <trkpt lat="47.96981" lon="5.16705">
        <ele>365.83</ele>
        <time>2025-03-12T09:48:52.465Z</time>
      </trkpt>
      <trkpt lat="47.97002" lon="5.16685">
        <ele>365.82</ele>
        <time>2025-03-12T09:48:57.653Z</time>
      </trkpt>
      <trkpt lat="47.97024" lon="5.16664">
        <ele>365.82</ele>
        <time>2025-03-12T09:49:02.845Z</time>
      </trkpt>
      <trkpt lat="47.97045" lon="5.16634">
        <ele>365.84</ele>
        <time>2025-03-12T09:49:08.041Z</time>
      </trkpt>
      <trkpt lat="47.97066" lon="5.16604">
        <ele>365.85</ele>
        <time>2025-03-12T09:49:13.242Z</time>
      </trkpt>
      <trkpt lat="47.97073" lon="5.16576">
        <ele>365.94</ele>
        <time>2025-03-12T09:49:18.446Z</time>
      </trkpt>
      <trkpt lat="47.97057" lon="5.16551">
        <ele>366.08</ele>
        <time>2025-03-12T09:49:23.654Z</time>
      </trkpt>
      <trkpt lat="47.97041" lon="5.16525">
        <ele>366.23</ele>
        <time>2025-03-12T09:49:28.866Z</time>
      </trkpt>
      <trkpt lat="47.97024" lon="5.16493">
        <ele>366.29</ele>
        <time>2025-03-12T09:49:34.082Z</time>
      </trkpt>
      <trkpt lat="47.97006" lon="5.1646">
        <ele>366.28</ele>
        <time>2025-03-12T09:49:39.303Z</time>
      </trkpt>
      <trkpt lat="47.96989" lon="5.16428">
        <ele>366.31</ele>
        <time>2025-03-12T09:49:44.528Z</time>
      </trkpt>
      <trkpt lat="47.97007" lon="5.16407">
        <ele>366.19</ele>
        <time>2025-03-12T09:49:49.757Z</time>
      </trkpt>
      <trkpt lat="47.97026" lon="5.16385">
        <ele>366.04</ele>
        <time>2025-03-12T09:49:54.990Z</time>
      </trkpt>
      <trkpt lat="47.9703" lon="5.16368">
        <ele>365.89</ele>
        <time>2025-03-12T09:50:00.225Z</time>
      </trkpt>
      <trkpt lat="47.97032" lon="5.16334">
        <ele>365.59</ele>
        <time>2025-03-12T09:50:05.463Z</time>
      </trkpt>
      <trkpt lat="47.97035" lon="5.16308">
        <ele>365.36</ele>
        <time>2025-03-12T09:50:10.704Z</time>
      </trkpt>
      <trkpt lat="47.97039" lon="5.16282">
        <ele>365.1</ele>
        <time>2025-03-12T09:50:15.948Z</time>
      </trkpt>
      <trkpt lat="47.97046" lon="5.16251">
        <ele>364.76</ele>
        <time>2025-03-12T09:50:21.196Z</time>
      </trkpt>
      <trkpt lat="47.97054" lon="5.16219">
        <ele>364.45</ele>
        <time>2025-03-12T09:50:26.447Z</time>
      </trkpt>
      <trkpt lat="47.97062" lon="5.16188">
        <ele>364.14</ele>
        <time>2025-03-12T09:50:31.702Z</time>
      </trkpt>
      <trkpt lat="47.97074" lon="5.16163">
        <ele>363.83</ele>
        <time>2025-03-12T09:50:36.960Z</time>
      </trkpt>
      <trkpt lat="47.97085" lon="5.16137">
        <ele>363.59</ele>
        <time>2025-03-12T09:50:42.221Z</time>
      </trkpt>
      <trkpt lat="47.97099" lon="5.16109">
        <ele>363.38</ele>
        <time>2025-03-12T09:50:47.486Z</time>
      </trkpt>
      <trkpt lat="47.97112" lon="5.16081">
        <ele>363.26</ele>
        <time>2025-03-12T09:50:52.755Z</time>
      </trkpt>
      <trkpt lat="47.97129" lon="5.16061">
        <ele>363.25</ele>
        <time>2025-03-12T09:50:58.027Z</time>
      </trkpt>
      <trkpt lat="47.97135" lon="5.16061">
        <ele>363.16</ele>
        <time>2025-03-12T09:51:03.300Z</time>
      </trkpt>
      <trkpt lat="47.97153" lon="5.16081">
        <ele>363.06</ele>
        <time>2025-03-12T09:51:08.577Z</time>
      </trkpt>
      <trkpt lat="47.97171" lon="5.16101">
        <ele>363.03</ele>
        <time>2025-03-12T09:51:13.857Z</time>
      </trkpt>
      <trkpt lat="47.97188" lon="5.16122">
        <ele>362.94</ele>
        <time>2025-03-12T09:51:19.141Z</time>
      </trkpt>
      <trkpt lat="47.97211" lon="5.16139">
        <ele>362.86</ele>
        <time>2025-03-12T09:51:24.429Z</time>
      </trkpt>
      <trkpt lat="47.97241" lon="5.16153">
        <ele>362.84</ele>
        <time>2025-03-12T09:51:29.722Z</time>
      </trkpt>
      <trkpt lat="47.97246" lon="5.16155">
        <ele>362.69</ele>
        <time>2025-03-12T09:51:35.016Z</time>
      </trkpt>
      <trkpt lat="47.97271" lon="5.16163">
        <ele>362.58</ele>
        <time>2025-03-12T09:51:40.314Z</time>
      </trkpt>
      <trkpt lat="47.97283" lon="5.16163">
        <ele>362.4</ele>
        <time>2025-03-12T09:51:45.614Z</time>
      </trkpt>
      <trkpt lat="47.97293" lon="5.16186">
        <ele>361.97</ele>
        <time>2025-03-12T09:51:50.917Z</time>
      </trkpt>
      <trkpt lat="47.97297" lon="5.16189">
        <ele>361.67</ele>
        <time>2025-03-12T09:51:56.221Z</time>
      </trkpt>
      <trkpt lat="47.97304" lon="5.1619">
        <ele>361.34</ele>
        <time>2025-03-12T09:52:01.526Z</time>
      </trkpt>
      <trkpt lat="47.9731" lon="5.16187">
        <ele>361</ele>
        <time>2025-03-12T09:52:06.832Z</time>
      </trkpt>
      <trkpt lat="47.97322" lon="5.16178">
        <ele>360.65</ele>
        <time>2025-03-12T09:52:12.140Z</time>
      </trkpt>
      <trkpt lat="47.9734" lon="5.16155">
        <ele>360.29</ele>
        <time>2025-03-12T09:52:17.452Z</time>
      </trkpt>
      <trkpt lat="47.97347" lon="5.16147">
        <ele>359.85</ele>
        <time>2025-03-12T09:52:22.765Z</time>
      </trkpt>
      <trkpt lat="47.97355" lon="5.16145">
        <ele>359.38</ele>
        <time>2025-03-12T09:52:28.079Z</time>
      </trkpt>
      <trkpt lat="47.97365" lon="5.16151">
        <ele>358.84</ele>
        <time>2025-03-12T09:52:33.395Z</time>
      </trkpt>
      <trkpt lat="47.97369" lon="5.16158">
        <ele>358.27</ele>
        <time>2025-03-12T09:52:38.712Z</time>
      </trkpt>
      <trkpt lat="47.97372" lon="5.1617">
        <ele>357.68</ele>
        <time>2025-03-12T09:52:44.030Z</time>
      </trkpt>
      <trkpt lat="47.97371" lon="5.16191">
        <ele>357.03</ele>
        <time>2025-03-12T09:52:49.351Z</time>
      </trkpt>
      <trkpt lat="47.97367" lon="5.16211">
        <ele>356.38</ele>
        <time>2025-03-12T09:52:54.674Z</time>
      </trkpt>
      <trkpt lat="47.97367" lon="5.16213">
        <ele>355.81</ele>
        <time>2025-03-12T09:52:59.997Z</time>
      </trkpt>
      <trkpt lat="47.97355" lon="5.1625">
        <ele>355.12</ele>
        <time>2025-03-12T09:53:05.325Z</time>
      </trkpt>
      <trkpt lat="47.9735" lon="5.16258">
        <ele>354.54</ele>
        <time>2025-03-12T09:53:10.654Z</time>
      </trkpt>
      <trkpt lat="47.97347" lon="5.16259">
        <ele>354.03</ele>
        <time>2025-03-12T09:53:15.983Z</time>
      </trkpt>
      <trkpt lat="47.9734" lon="5.16261">
        <ele>353.56</ele>
        <time>2025-03-12T09:53:21.313Z</time>
      </trkpt>
      <trkpt lat="47.97319" lon="5.16271">
        <ele>353.06</ele>
        <time>2025-03-12T09:53:26.647Z</time>
      </trkpt>
      <trkpt lat="47.97299" lon="5.16273">
        <ele>352.66</ele>
        <time>2025-03-12T09:53:31.984Z</time>
      </trkpt>
      <trkpt lat="47.97283" lon="5.16272">
        <ele>352.36</ele>
        <time>2025-03-12T09:53:37.324Z</time>
      </trkpt>
      <trkpt lat="47.97272" lon="5.16274">
        <ele>352.14</ele>
        <time>2025-03-12T09:53:42.665Z</time>
      </trkpt>
      <trkpt lat="47.97261" lon="5.16283">
        <ele>351.98</ele>
        <time>2025-03-12T09:53:48.008Z</time>
      </trkpt>
      <trkpt lat="47.97268" lon="5.16312">
        <ele>351.89</ele>
        <time>2025-03-12T09:53:53.355Z</time>
      </trkpt>
      <trkpt lat="47.97272" lon="5.16319">
        <ele>351.9</ele>
        <time>2025-03-12T09:53:58.703Z</time>
      </trkpt>
      <trkpt lat="47.97261" lon="5.16283">
        <ele>351.98</ele>
        <time>2025-03-12T09:54:04.055Z</time>
      </trkpt>
      <trkpt lat="47.97257" lon="5.16282">
        <ele>352.29</ele>
        <time>2025-03-12T09:54:09.408Z</time>
      </trkpt>
      <trkpt lat="47.97268" lon="5.16274">
        <ele>352.62</ele>
        <time>2025-03-12T09:54:14.763Z</time>
      </trkpt>
      <trkpt lat="47.97295" lon="5.16272">
        <ele>353.04</ele>
        <time>2025-03-12T09:54:20.122Z</time>
      </trkpt>
      <trkpt lat="47.97322" lon="5.16269">
        <ele>353.61</ele>
        <time>2025-03-12T09:54:25.485Z</time>
      </trkpt>
      <trkpt lat="47.97332" lon="5.16262">
        <ele>354.27</ele>
        <time>2025-03-12T09:54:30.850Z</time>
      </trkpt>
      <trkpt lat="47.97348" lon="5.1625">
        <ele>355.03</ele>
        <time>2025-03-12T09:54:36.218Z</time>
      </trkpt>
      <trkpt lat="47.9736" lon="5.16231">
        <ele>355.93</ele>
        <time>2025-03-12T09:54:41.589Z</time>
      </trkpt>
      <trkpt lat="47.97369" lon="5.16199">
        <ele>356.92</ele>
        <time>2025-03-12T09:54:46.963Z</time>
      </trkpt>
      <trkpt lat="47.97373" lon="5.16177">
        <ele>357.96</ele>
        <time>2025-03-12T09:54:52.340Z</time>
      </trkpt>
      <trkpt lat="47.97365" lon="5.16151">
        <ele>359.1</ele>
        <time>2025-03-12T09:54:57.720Z</time>
      </trkpt>
      <trkpt lat="47.97352" lon="5.16147">
        <ele>360.23</ele>
        <time>2025-03-12T09:55:03.102Z</time>
      </trkpt>
      <trkpt lat="47.97341" lon="5.16154">
        <ele>361.4</ele>
        <time>2025-03-12T09:55:08.486Z</time>
      </trkpt>
      <trkpt lat="47.97326" lon="5.16171">
        <ele>362.61</ele>
        <time>2025-03-12T09:55:13.873Z</time>
      </trkpt>
      <trkpt lat="47.97311" lon="5.16188">
        <ele>363.83</ele>
        <time>2025-03-12T09:55:19.263Z</time>
      </trkpt>
      <trkpt lat="47.97292" lon="5.16188">
        <ele>365.22</ele>
        <time>2025-03-12T09:55:24.656Z</time>
      </trkpt>
      <trkpt lat="47.97285" lon="5.16177">
        <ele>366.69</ele>
        <time>2025-03-12T09:55:30.051Z</time>
      </trkpt>
      <trkpt lat="47.97283" lon="5.16164">
        <ele>368.24</ele>
        <time>2025-03-12T09:55:35.447Z</time>
      </trkpt>
      <trkpt lat="47.97283" lon="5.16164">
        <ele>369.73</ele>
        <time>2025-03-12T09:55:40.843Z</time>
      </trkpt>
      <trkpt lat="47.9729" lon="5.16126">
        <ele>371.5</ele>
        <time>2025-03-12T09:55:46.243Z</time>
      </trkpt>
      <trkpt lat="47.97299" lon="5.1609">
        <ele>373.21</ele>
        <time>2025-03-12T09:55:51.647Z</time>
      </trkpt>
      <trkpt lat="47.97309" lon="5.16054">
        <ele>374.92</ele>
        <time>2025-03-12T09:55:57.056Z</time>
      </trkpt>
      <trkpt lat="47.97318" lon="5.16019">
        <ele>376.59</ele>
        <time>2025-03-12T09:56:02.469Z</time>
      </trkpt>
      <trkpt lat="47.97327" lon="5.15983">
        <ele>378.2</ele>
        <time>2025-03-12T09:56:07.886Z</time>
      </trkpt>
      <trkpt lat="47.97337" lon="5.15948">
        <ele>379.75</ele>
        <time>2025-03-12T09:56:13.307Z</time>
      </trkpt>
      <trkpt lat="47.97348" lon="5.15918">
        <ele>381.3</ele>
        <time>2025-03-12T09:56:18.732Z</time>
      </trkpt>
      <trkpt lat="47.97362" lon="5.1588">
        <ele>382.86</ele>
        <time>2025-03-12T09:56:24.161Z</time>
      </trkpt>
      <trkpt lat="47.97376" lon="5.15843">
        <ele>384.36</ele>
        <time>2025-03-12T09:56:29.595Z</time>
      </trkpt>
      <trkpt lat="47.97391" lon="5.15806">
        <ele>385.81</ele>
        <time>2025-03-12T09:56:35.033Z</time>
      </trkpt>
      <trkpt lat="47.97405" lon="5.15769">
        <ele>387.2</ele>
        <time>2025-03-12T09:56:40.476Z</time>
      </trkpt>
      <trkpt lat="47.9742" lon="5.15732">
        <ele>388.6</ele>
        <time>2025-03-12T09:56:45.924Z</time>
      </trkpt>
      <trkpt lat="47.97434" lon="5.15695">
        <ele>389.91</ele>
        <time>2025-03-12T09:56:51.376Z</time>
      </trkpt>
      <trkpt lat="47.97448" lon="5.15658">
        <ele>391.13</ele>
        <time>2025-03-12T09:56:56.833Z</time>
      </trkpt>
      <trkpt lat="47.97467" lon="5.15621">
        <ele>392.42</ele>
        <time>2025-03-12T09:57:02.295Z</time>
      </trkpt>
      <trkpt lat="47.97485" lon="5.15585">
        <ele>393.67</ele>
        <time>2025-03-12T09:57:07.762Z</time>
      </trkpt>
      <trkpt lat="47.97506" lon="5.15552">
        <ele>394.81</ele>
        <time>2025-03-12T09:57:13.233Z</time>
      </trkpt>
      <trkpt lat="47.97526" lon="5.15519">
        <ele>395.97</ele>
        <time>2025-03-12T09:57:18.709Z</time>
      </trkpt>
      <trkpt lat="47.97547" lon="5.15486">
        <ele>397.07</ele>
        <time>2025-03-12T09:57:24.190Z</time>
      </trkpt>
      <trkpt lat="47.9756" lon="5.15445">
        <ele>398.12</ele>
        <time>2025-03-12T09:57:29.676Z</time>
      </trkpt>
      <trkpt lat="47.97574" lon="5.15404">
        <ele>399.11</ele>
        <time>2025-03-12T09:57:35.167Z</time>
      </trkpt>
      <trkpt lat="47.97587" lon="5.15362">
        <ele>400.15</ele>
        <time>2025-03-12T09:57:40.663Z</time>
      </trkpt>
      <trkpt lat="47.976" lon="5.15321">
        <ele>401.2</ele>
        <time>2025-03-12T09:57:46.164Z</time>
      </trkpt>
      <trkpt lat="47.97614" lon="5.1528">
        <ele>402.22</ele>
        <time>2025-03-12T09:57:51.670Z</time>
      </trkpt>
      <trkpt lat="47.97624" lon="5.1526">
        <ele>403.21</ele>
        <time>2025-03-12T09:57:57.179Z</time>
      </trkpt>
      <trkpt lat="47.97635" lon="5.15239">
        <ele>404.2</ele>
        <time>2025-03-12T09:58:02.690Z</time>
      </trkpt>
      <trkpt lat="47.97644" lon="5.15205">
        <ele>405.25</ele>
        <time>2025-03-12T09:58:08.205Z</time>
      </trkpt>
      <trkpt lat="47.97648" lon="5.15162">
        <ele>406.3</ele>
        <time>2025-03-12T09:58:13.725Z</time>
      </trkpt>
      <trkpt lat="47.97646" lon="5.15135">
        <ele>407.2</ele>
        <time>2025-03-12T09:58:19.248Z</time>
      </trkpt>
      <trkpt lat="47.97644" lon="5.15109">
        <ele>408.05</ele>
        <time>2025-03-12T09:58:24.774Z</time>
      </trkpt>
      <trkpt lat="47.97646" lon="5.15074">
        <ele>408.82</ele>
        <time>2025-03-12T09:58:30.303Z</time>
      </trkpt>
      <trkpt lat="47.97654" lon="5.15043">
        <ele>409.59</ele>
        <time>2025-03-12T09:58:35.836Z</time>
      </trkpt>
      <trkpt lat="47.97662" lon="5.15013">
        <ele>410.35</ele>
        <time>2025-03-12T09:58:41.372Z</time>
      </trkpt>
      <trkpt lat="47.97669" lon="5.14982">
        <ele>411.01</ele>
        <time>2025-03-12T09:58:46.912Z</time>
      </trkpt>
      <trkpt lat="47.97673" lon="5.14946">
        <ele>411.6</ele>
        <time>2025-03-12T09:58:52.456Z</time>
      </trkpt>
      <trkpt lat="47.97677" lon="5.1491">
        <ele>412.11</ele>
        <time>2025-03-12T09:58:58.004Z</time>
      </trkpt>
      <trkpt lat="47.97681" lon="5.14874">
        <ele>412.57</ele>
        <time>2025-03-12T09:59:03.556Z</time>
      </trkpt>
      <trkpt lat="47.97684" lon="5.14838">
        <ele>412.93</ele>
        <time>2025-03-12T09:59:09.112Z</time>
      </trkpt>
      <trkpt lat="47.97689" lon="5.14798">
        <ele>413.26</ele>
        <time>2025-03-12T09:59:14.672Z</time>
      </trkpt>
      <trkpt lat="47.97694" lon="5.14758">
        <ele>413.49</ele>
        <time>2025-03-12T09:59:20.236Z</time>
      </trkpt>
      <trkpt lat="47.97699" lon="5.14717">
        <ele>413.54</ele>
        <time>2025-03-12T09:59:25.805Z</time>
      </trkpt>
      <trkpt lat="47.97704" lon="5.14677">
        <ele>413.47</ele>
        <time>2025-03-12T09:59:31.378Z</time>
      </trkpt>
      <trkpt lat="47.9771" lon="5.14643">
        <ele>413.47</ele>
        <time>2025-03-12T09:59:36.955Z</time>
      </trkpt>
      <trkpt lat="47.9771" lon="5.14643">
        <ele>413.39</ele>
        <time>2025-03-12T09:59:42.532Z</time>
      </trkpt>
      <trkpt lat="47.97719" lon="5.14599">
        <ele>413.21</ele>
        <time>2025-03-12T09:59:48.114Z</time>
      </trkpt>
      <trkpt lat="47.97728" lon="5.14555">
        <ele>412.93</ele>
        <time>2025-03-12T09:59:53.701Z</time>
      </trkpt>
      <trkpt lat="47.97737" lon="5.14511">
        <ele>412.61</ele>
        <time>2025-03-12T09:59:59.293Z</time>
      </trkpt>
      <trkpt lat="47.97746" lon="5.14467">
        <ele>412.23</ele>
        <time>2025-03-12T10:00:04.890Z</time>
      </trkpt>
      <trkpt lat="47.97755" lon="5.14424">
        <ele>411.82</ele>
        <time>2025-03-12T10:00:10.492Z</time>
      </trkpt>
      <trkpt lat="47.9776" lon="5.14398">
        <ele>411.36</ele>
        <time>2025-03-12T10:00:16.097Z</time>
      </trkpt>
      <trkpt lat="47.97764" lon="5.14373">
        <ele>410.87</ele>
        <time>2025-03-12T10:00:21.704Z</time>
      </trkpt>
      <trkpt lat="47.97764" lon="5.14331">
        <ele>410.33</ele>
        <time>2025-03-12T10:00:27.316Z</time>
      </trkpt>
      <trkpt lat="47.97764" lon="5.14289">
        <ele>409.68</ele>
        <time>2025-03-12T10:00:32.932Z</time>
      </trkpt>
      <trkpt lat="47.97762" lon="5.14247">
        <ele>409.01</ele>
        <time>2025-03-12T10:00:38.553Z</time>
      </trkpt>
      <trkpt lat="47.97761" lon="5.14206">
        <ele>408.33</ele>
        <time>2025-03-12T10:00:44.178Z</time>
      </trkpt>
      <trkpt lat="47.9776" lon="5.14164">
        <ele>407.68</ele>
        <time>2025-03-12T10:00:49.808Z</time>
      </trkpt>
      <trkpt lat="47.97758" lon="5.14123">
        <ele>406.88</ele>
        <time>2025-03-12T10:00:55.442Z</time>
      </trkpt>
      <trkpt lat="47.97757" lon="5.14081">
        <ele>406.03</ele>
        <time>2025-03-12T10:01:01.081Z</time>
      </trkpt>
      <trkpt lat="47.97755" lon="5.1404">
        <ele>405.2</ele>
        <time>2025-03-12T10:01:06.724Z</time>
      </trkpt>
      <trkpt lat="47.9776" lon="5.13994">
        <ele>404.27</ele>
        <time>2025-03-12T10:01:12.372Z</time>
      </trkpt>
      <trkpt lat="47.97766" lon="5.13948">
        <ele>403.33</ele>
        <time>2025-03-12T10:01:18.025Z</time>
      </trkpt>
      <trkpt lat="47.97771" lon="5.13902">
        <ele>402.3</ele>
        <time>2025-03-12T10:01:23.683Z</time>
      </trkpt>
      <trkpt lat="47.97776" lon="5.13856">
        <ele>401.2</ele>
        <time>2025-03-12T10:01:29.346Z</time>
      </trkpt>
      <trkpt lat="47.97781" lon="5.1381">
        <ele>400.12</ele>
        <time>2025-03-12T10:01:35.014Z</time>
      </trkpt>
      <trkpt lat="47.97786" lon="5.13778">
        <ele>399</ele>
        <time>2025-03-12T10:01:40.686Z</time>
      </trkpt>
      <trkpt lat="47.97792" lon="5.13746">
        <ele>397.9</ele>
        <time>2025-03-12T10:01:46.361Z</time>
      </trkpt>
      <trkpt lat="47.97802" lon="5.1371">
        <ele>396.73</ele>
        <time>2025-03-12T10:01:52.041Z</time>
      </trkpt>
      <trkpt lat="47.97817" lon="5.13672">
        <ele>395.52</ele>
        <time>2025-03-12T10:01:57.725Z</time>
      </trkpt>
      <trkpt lat="47.97832" lon="5.13634">
        <ele>394.27</ele>
        <time>2025-03-12T10:02:03.414Z</time>
      </trkpt>
      <trkpt lat="47.9784" lon="5.13611">
        <ele>393.04</ele>
        <time>2025-03-12T10:02:09.106Z</time>
      </trkpt>
      <trkpt lat="47.97848" lon="5.13587">
        <ele>391.8</ele>
        <time>2025-03-12T10:02:14.801Z</time>
      </trkpt>
      <trkpt lat="47.97854" lon="5.13557">
        <ele>390.58</ele>
        <time>2025-03-12T10:02:20.499Z</time>
      </trkpt>
      <trkpt lat="47.97854" lon="5.13516">
        <ele>389.44</ele>
        <time>2025-03-12T10:02:26.201Z</time>
      </trkpt>
      <trkpt lat="47.97855" lon="5.13471">
        <ele>388.33</ele>
        <time>2025-03-12T10:02:31.908Z</time>
      </trkpt>
      <trkpt lat="47.97856" lon="5.13426">
        <ele>387.23</ele>
        <time>2025-03-12T10:02:37.620Z</time>
      </trkpt>
      <trkpt lat="47.97856" lon="5.13426">
        <ele>386.16</ele>
        <time>2025-03-12T10:02:43.332Z</time>
      </trkpt>
      <trkpt lat="47.97859" lon="5.13383">
        <ele>385.06</ele>
        <time>2025-03-12T10:02:49.049Z</time>
      </trkpt>
      <trkpt lat="47.97861" lon="5.13374">
        <ele>384.03</ele>
        <time>2025-03-12T10:02:54.767Z</time>
      </trkpt>
      <trkpt lat="47.97866" lon="5.13345">
        <ele>383.03</ele>
        <time>2025-03-12T10:03:00.488Z</time>
      </trkpt>
      <trkpt lat="47.97877" lon="5.13301">
        <ele>382.09</ele>
        <time>2025-03-12T10:03:06.214Z</time>
      </trkpt>
      <trkpt lat="47.97887" lon="5.13257">
        <ele>381.06</ele>
        <time>2025-03-12T10:03:11.945Z</time>
      </trkpt>
      <trkpt lat="47.97889" lon="5.13249">
        <ele>380.14</ele>
        <time>2025-03-12T10:03:17.677Z</time>
      </trkpt>
      <trkpt lat="47.979" lon="5.13205">
        <ele>379.19</ele>
        <time>2025-03-12T10:03:23.414Z</time>
      </trkpt>
      <trkpt lat="47.97905" lon="5.13184">
        <ele>378.36</ele>
        <time>2025-03-12T10:03:29.153Z</time>
      </trkpt>
      <trkpt lat="47.97916" lon="5.1314">
        <ele>377.55</ele>
        <time>2025-03-12T10:03:34.897Z</time>
      </trkpt>
      <trkpt lat="47.97926" lon="5.13096">
        <ele>376.77</ele>
        <time>2025-03-12T10:03:40.646Z</time>
      </trkpt>
      <trkpt lat="47.97928" lon="5.13088">
        <ele>376.16</ele>
        <time>2025-03-12T10:03:46.396Z</time>
      </trkpt>
      <trkpt lat="47.97937" lon="5.13043">
        <ele>375.57</ele>
        <time>2025-03-12T10:03:52.151Z</time>
      </trkpt>
      <trkpt lat="47.97939" lon="5.13031">
        <ele>375.09</ele>
        <time>2025-03-12T10:03:57.908Z</time>
      </trkpt>
      <trkpt lat="47.97945" lon="5.12985">
        <ele>374.63</ele>
        <time>2025-03-12T10:04:03.670Z</time>
      </trkpt>
      <trkpt lat="47.9795" lon="5.12952">
        <ele>374.27</ele>
        <time>2025-03-12T10:04:09.435Z</time>
      </trkpt>
      <trkpt lat="47.97956" lon="5.12906">
        <ele>373.92</ele>
        <time>2025-03-12T10:04:15.205Z</time>
      </trkpt>
      <trkpt lat="47.97959" lon="5.12884">
        <ele>373.67</ele>
        <time>2025-03-12T10:04:20.978Z</time>
      </trkpt>
      <trkpt lat="47.97965" lon="5.12838">
        <ele>373.45</ele>
        <time>2025-03-12T10:04:26.756Z</time>
      </trkpt>
      <trkpt lat="47.97967" lon="5.1282">
        <ele>373.39</ele>
        <time>2025-03-12T10:04:32.536Z</time>
      </trkpt>
      <trkpt lat="47.97968" lon="5.12787">
        <ele>373.42</ele>
        <time>2025-03-12T10:04:38.319Z</time>
      </trkpt>
      <trkpt lat="47.97966" lon="5.12769">
        <ele>373.52</ele>
        <time>2025-03-12T10:04:44.104Z</time>
      </trkpt>
      <trkpt lat="47.97956" lon="5.12724">
        <ele>373.77</ele>
        <time>2025-03-12T10:04:49.894Z</time>
      </trkpt>
      <trkpt lat="47.97956" lon="5.12723">
        <ele>373.97</ele>
        <time>2025-03-12T10:04:55.685Z</time>
      </trkpt>
      <trkpt lat="47.97949" lon="5.12677">
        <ele>374.28</ele>
        <time>2025-03-12T10:05:01.481Z</time>
      </trkpt>
      <trkpt lat="47.97947" lon="5.12663">
        <ele>374.58</ele>
        <time>2025-03-12T10:05:07.278Z</time>
      </trkpt>
      <trkpt lat="47.97941" lon="5.12617">
        <ele>375.01</ele>
        <time>2025-03-12T10:05:13.080Z</time>
      </trkpt>
      <trkpt lat="47.97935" lon="5.12571">
        <ele>375.39</ele>
        <time>2025-03-12T10:05:18.887Z</time>
      </trkpt>
      <trkpt lat="47.97933" lon="5.12558">
        <ele>375.76</ele>
        <time>2025-03-12T10:05:24.696Z</time>
      </trkpt>
      <trkpt lat="47.97924" lon="5.12513">
        <ele>376.16</ele>
        <time>2025-03-12T10:05:30.510Z</time>
      </trkpt>
      <trkpt lat="47.97922" lon="5.12502">
        <ele>376.56</ele>
        <time>2025-03-12T10:05:36.325Z</time>
      </trkpt>
      <trkpt lat="47.97915" lon="5.12456">
        <ele>376.97</ele>
        <time>2025-03-12T10:05:42.145Z</time>
      </trkpt>
      <trkpt lat="47.97914" lon="5.12449">
        <ele>377.39</ele>
        <time>2025-03-12T10:05:47.966Z</time>
      </trkpt>
      <trkpt lat="47.97913" lon="5.12406">
        <ele>377.85</ele>
        <time>2025-03-12T10:05:53.791Z</time>
      </trkpt>
      <trkpt lat="47.97922" lon="5.12382">
        <ele>378.34</ele>
        <time>2025-03-12T10:05:59.619Z</time>
      </trkpt>
      <trkpt lat="47.97925" lon="5.12375">
        <ele>378.76</ele>
        <time>2025-03-12T10:06:05.448Z</time>
      </trkpt>
      <trkpt lat="47.97916" lon="5.12365">
        <ele>379.15</ele>
        <time>2025-03-12T10:06:11.279Z</time>
      </trkpt>
      <trkpt lat="47.97899" lon="5.12325">
        <ele>379.53</ele>
        <time>2025-03-12T10:06:17.115Z</time>
      </trkpt>
      <trkpt lat="47.97899" lon="5.12324">
        <ele>379.87</ele>
        <time>2025-03-12T10:06:22.951Z</time>
      </trkpt>
      <trkpt lat="47.97895" lon="5.12312">
        <ele>380.17</ele>
        <time>2025-03-12T10:06:28.789Z</time>
      </trkpt>
      <trkpt lat="47.97894" lon="5.12299">
        <ele>380.44</ele>
        <time>2025-03-12T10:06:34.628Z</time>
      </trkpt>
      <trkpt lat="47.97889" lon="5.12261">
        <ele>380.67</ele>
        <time>2025-03-12T10:06:40.471Z</time>
      </trkpt>
      <trkpt lat="47.97881" lon="5.12237">
        <ele>380.9</ele>
        <time>2025-03-12T10:06:46.317Z</time>
      </trkpt>
      <trkpt lat="47.97868" lon="5.12214">
        <ele>381.1</ele>
        <time>2025-03-12T10:06:52.166Z</time>
      </trkpt>
      <trkpt lat="47.97854" lon="5.12184">
        <ele>381.32</ele>
        <time>2025-03-12T10:06:58.019Z</time>
      </trkpt>
      <trkpt lat="47.97853" lon="5.12174">
        <ele>381.5</ele>
        <time>2025-03-12T10:07:03.873Z</time>
      </trkpt>
      <trkpt lat="47.97856" lon="5.12162">
        <ele>381.66</ele>
        <time>2025-03-12T10:07:09.729Z</time>
      </trkpt>
      <trkpt lat="47.9787" lon="5.12138">
        <ele>381.83</ele>
        <time>2025-03-12T10:07:15.588Z</time>
      </trkpt>
      <trkpt lat="47.97895" lon="5.12109">
        <ele>381.99</ele>
        <time>2025-03-12T10:07:21.452Z</time>
      </trkpt>
      <trkpt lat="47.97903" lon="5.121">
        <ele>382.11</ele>
        <time>2025-03-12T10:07:27.318Z</time>
      </trkpt>
      <trkpt lat="47.97916" lon="5.12143">
        <ele>382.15</ele>
        <time>2025-03-12T10:07:33.189Z</time>
      </trkpt>
      <trkpt lat="47.97925" lon="5.12174">
        <ele>382.25</ele>
        <time>2025-03-12T10:07:39.064Z</time>
      </trkpt>
      <trkpt lat="47.97941" lon="5.12214">
        <ele>382.34</ele>
        <time>2025-03-12T10:07:44.944Z</time>
      </trkpt>
      <trkpt lat="47.97944" lon="5.1222">
        <ele>382.39</ele>
        <time>2025-03-12T10:07:50.824Z</time>
      </trkpt>
      <trkpt lat="47.9795" lon="5.12233">
        <ele>382.44</ele>
        <time>2025-03-12T10:07:56.706Z</time>
      </trkpt>
      <trkpt lat="47.97955" lon="5.1224">
        <ele>382.49</ele>
        <time>2025-03-12T10:08:02.589Z</time>
      </trkpt>
      <trkpt lat="47.97962" lon="5.12245">
        <ele>382.52</ele>
        <time>2025-03-12T10:08:08.473Z</time>
      </trkpt>
      <trkpt lat="47.97971" lon="5.1225">
        <ele>382.56</ele>
        <time>2025-03-12T10:08:14.359Z</time>
      </trkpt>
      <trkpt lat="47.97985" lon="5.12248">
        <ele>382.58</ele>
        <time>2025-03-12T10:08:20.247Z</time>
      </trkpt>
      <trkpt lat="47.97996" lon="5.12243">
        <ele>382.6</ele>
        <time>2025-03-12T10:08:26.137Z</time>
      </trkpt>
      <trkpt lat="47.98008" lon="5.1223">
        <ele>382.63</ele>
        <time>2025-03-12T10:08:32.029Z</time>
      </trkpt>
      <trkpt lat="47.98031" lon="5.12198">
        <ele>382.65</ele>
        <time>2025-03-12T10:08:37.926Z</time>
      </trkpt>
      <trkpt lat="47.98032" lon="5.12197">
        <ele>382.75</ele>
        <time>2025-03-12T10:08:43.824Z</time>
      </trkpt>
      <trkpt lat="47.98057" lon="5.12169">
        <ele>382.87</ele>
        <time>2025-03-12T10:08:49.727Z</time>
      </trkpt>
      <trkpt lat="47.98082" lon="5.1214">
        <ele>383.03</ele>
        <time>2025-03-12T10:08:55.635Z</time>
      </trkpt>
      <trkpt lat="47.98088" lon="5.12134">
        <ele>383.2</ele>
        <time>2025-03-12T10:09:01.544Z</time>
      </trkpt>
      <trkpt lat="47.98115" lon="5.1211">
        <ele>383.4</ele>
        <time>2025-03-12T10:09:07.458Z</time>
      </trkpt>
      <trkpt lat="47.98139" lon="5.1209">
        <ele>383.64</ele>
        <time>2025-03-12T10:09:13.376Z</time>
      </trkpt>
      <trkpt lat="47.98167" lon="5.12068">
        <ele>383.87</ele>
        <time>2025-03-12T10:09:19.299Z</time>
      </trkpt>
      <trkpt lat="47.98188" lon="5.12051">
        <ele>384.07</ele>
        <time>2025-03-12T10:09:25.226Z</time>
      </trkpt>
      <trkpt lat="47.98217" lon="5.12031">
        <ele>384.32</ele>
        <time>2025-03-12T10:09:31.158Z</time>
      </trkpt>
      <trkpt lat="47.9824" lon="5.12015">
        <ele>384.62</ele>
        <time>2025-03-12T10:09:37.094Z</time>
      </trkpt>
      <trkpt lat="47.9827" lon="5.11999">
        <ele>384.83</ele>
        <time>2025-03-12T10:09:43.035Z</time>
      </trkpt>
      <trkpt lat="47.98291" lon="5.11988">
        <ele>385.01</ele>
        <time>2025-03-12T10:09:48.980Z</time>
      </trkpt>
      <trkpt lat="47.98321" lon="5.11973">
        <ele>385.2</ele>
        <time>2025-03-12T10:09:54.930Z</time>
      </trkpt>
      <trkpt lat="47.98351" lon="5.11958">
        <ele>385.48</ele>
        <time>2025-03-12T10:10:00.885Z</time>
      </trkpt>
      <trkpt lat="47.9838" lon="5.11942">
        <ele>385.74</ele>
        <time>2025-03-12T10:10:06.845Z</time>
      </trkpt>
      <trkpt lat="47.98381" lon="5.11942">
        <ele>385.9</ele>
        <time>2025-03-12T10:10:12.805Z</time>
      </trkpt>
      <trkpt lat="47.9841" lon="5.11923">
        <ele>386.07</ele>
        <time>2025-03-12T10:10:18.770Z</time>
      </trkpt>
      <trkpt lat="47.98426" lon="5.11913">
        <ele>386.2</ele>
        <time>2025-03-12T10:10:24.738Z</time>
      </trkpt>
      <trkpt lat="47.98455" lon="5.11894">
        <ele>386.27</ele>
        <time>2025-03-12T10:10:30.711Z</time>
      </trkpt>
      <trkpt lat="47.98483" lon="5.11874">
        <ele>386.29</ele>
        <time>2025-03-12T10:10:36.689Z</time>
      </trkpt>
      <trkpt lat="47.9851" lon="5.11856">
        <ele>386.3</ele>
        <time>2025-03-12T10:10:42.672Z</time>
      </trkpt>
      <trkpt lat="47.98538" lon="5.11834">
        <ele>386.35</ele>
        <time>2025-03-12T10:10:48.660Z</time>
      </trkpt>
      <trkpt lat="47.98557" lon="5.11819">
        <ele>386.28</ele>
        <time>2025-03-12T10:10:54.651Z</time>
      </trkpt>
      <trkpt lat="47.98584" lon="5.11795">
        <ele>386.17</ele>
        <time>2025-03-12T10:11:00.647Z</time>
      </trkpt>
      <trkpt lat="47.98604" lon="5.11778">
        <ele>385.96</ele>
        <time>2025-03-12T10:11:06.647Z</time>
      </trkpt>
      <trkpt lat="47.9863" lon="5.11752">
        <ele>385.74</ele>
        <time>2025-03-12T10:11:12.652Z</time>
      </trkpt>
      <trkpt lat="47.98656" lon="5.11725">
        <ele>385.45</ele>
        <time>2025-03-12T10:11:18.662Z</time>
      </trkpt>
      <trkpt lat="47.98682" lon="5.11699">
        <ele>385.11</ele>
        <time>2025-03-12T10:11:24.677Z</time>
      </trkpt>
      <trkpt lat="47.98689" lon="5.11692">
        <ele>384.77</ele>
        <time>2025-03-12T10:11:30.694Z</time>
      </trkpt>
      <trkpt lat="47.98715" lon="5.11666">
        <ele>384.37</ele>
        <time>2025-03-12T10:11:36.716Z</time>
      </trkpt>
      <trkpt lat="47.98738" lon="5.11643">
        <ele>383.92</ele>
        <time>2025-03-12T10:11:42.742Z</time>
      </trkpt>
      <trkpt lat="47.98765" lon="5.11619">
        <ele>383.44</ele>
        <time>2025-03-12T10:11:48.773Z</time>
      </trkpt>
      <trkpt lat="47.9877" lon="5.11615">
        <ele>382.98</ele>
        <time>2025-03-12T10:11:54.805Z</time>
      </trkpt>
      <trkpt lat="47.98798" lon="5.11593">
        <ele>382.42</ele>
        <time>2025-03-12T10:12:00.842Z</time>
      </trkpt>
      <trkpt lat="47.98819" lon="5.11576">
        <ele>381.81</ele>
        <time>2025-03-12T10:12:06.883Z</time>
      </trkpt>
      <trkpt lat="47.98845" lon="5.11549">
        <ele>381.28</ele>
        <time>2025-03-12T10:12:12.929Z</time>
      </trkpt>
      <trkpt lat="47.98857" lon="5.11537">
        <ele>380.76</ele>
        <time>2025-03-12T10:12:18.977Z</time>
      </trkpt>
      <trkpt lat="47.98882" lon="5.11509">
        <ele>380.23</ele>
        <time>2025-03-12T10:12:25.030Z</time>
      </trkpt>
      <trkpt lat="47.98908" lon="5.11481">
        <ele>379.64</ele>
        <time>2025-03-12T10:12:31.088Z</time>
      </trkpt>
      <trkpt lat="47.98921" lon="5.11467">
        <ele>379.07</ele>
        <time>2025-03-12T10:12:37.149Z</time>
      </trkpt>
      <trkpt lat="47.98946" lon="5.11439">
        <ele>378.54</ele>
        <time>2025-03-12T10:12:43.215Z</time>
      </trkpt>
      <trkpt lat="47.98972" lon="5.11411">
        <ele>377.96</ele>
        <time>2025-03-12T10:12:49.286Z</time>
      </trkpt>
      <trkpt lat="47.98973" lon="5.1141">
        <ele>377.39</ele>
        <time>2025-03-12T10:12:55.357Z</time>
      </trkpt>
      <trkpt lat="47.98999" lon="5.11383">
        <ele>376.84</ele>
        <time>2025-03-12T10:13:01.433Z</time>
      </trkpt>
      <trkpt lat="47.99018" lon="5.11364">
        <ele>376.26</ele>
        <time>2025-03-12T10:13:07.513Z</time>
      </trkpt>
      <trkpt lat="47.99044" lon="5.11337">
        <ele>375.65</ele>
        <time>2025-03-12T10:13:13.598Z</time>
      </trkpt>
      <trkpt lat="47.99046" lon="5.11334">
        <ele>375.08</ele>
        <time>2025-03-12T10:13:19.684Z</time>
      </trkpt>
      <trkpt lat="47.99069" lon="5.11302">
        <ele>374.42</ele>
        <time>2025-03-12T10:13:25.775Z</time>
      </trkpt>
      <trkpt lat="47.9907" lon="5.11301">
        <ele>373.88</ele>
        <time>2025-03-12T10:13:31.866Z</time>
      </trkpt>
      <trkpt lat="47.9909" lon="5.11265">
        <ele>373.3</ele>
        <time>2025-03-12T10:13:37.962Z</time>
      </trkpt>
      <trkpt lat="47.9911" lon="5.11228">
        <ele>372.78</ele>
        <time>2025-03-12T10:13:44.063Z</time>
      </trkpt>
      <trkpt lat="47.9913" lon="5.11192">
        <ele>372.25</ele>
        <time>2025-03-12T10:13:50.169Z</time>
      </trkpt>
      <trkpt lat="47.9915" lon="5.11156">
        <ele>371.74</ele>
        <time>2025-03-12T10:13:56.280Z</time>
      </trkpt>
      <trkpt lat="47.99162" lon="5.11133">
        <ele>371.31</ele>
        <time>2025-03-12T10:14:02.394Z</time>
      </trkpt>
      <trkpt lat="47.9918" lon="5.11094">
        <ele>370.93</ele>
        <time>2025-03-12T10:14:08.513Z</time>
      </trkpt>
      <trkpt lat="47.99197" lon="5.11055">
        <ele>370.58</ele>
        <time>2025-03-12T10:14:14.637Z</time>
      </trkpt>
      <trkpt lat="47.99204" lon="5.1104">
        <ele>370.32</ele>
        <time>2025-03-12T10:14:20.763Z</time>
      </trkpt>
      <trkpt lat="47.99223" lon="5.11003">
        <ele>370.08</ele>
        <time>2025-03-12T10:14:26.894Z</time>
      </trkpt>
      <trkpt lat="47.99232" lon="5.10986">
        <ele>369.94</ele>
        <time>2025-03-12T10:14:33.028Z</time>
      </trkpt>
      <trkpt lat="47.99254" lon="5.10952">
        <ele>369.77</ele>
        <time>2025-03-12T10:14:39.167Z</time>
      </trkpt>
      <trkpt lat="47.99275" lon="5.10918">
        <ele>369.72</ele>
        <time>2025-03-12T10:14:45.311Z</time>
      </trkpt>
      <trkpt lat="47.99297" lon="5.10883">
        <ele>369.73</ele>
        <time>2025-03-12T10:14:51.460Z</time>
      </trkpt>
      <trkpt lat="47.99298" lon="5.10881">
        <ele>369.83</ele>
        <time>2025-03-12T10:14:57.609Z</time>
      </trkpt>
      <trkpt lat="47.99318" lon="5.10844">
        <ele>369.97</ele>
        <time>2025-03-12T10:15:03.763Z</time>
      </trkpt>
      <trkpt lat="47.99337" lon="5.10808">
        <ele>370.23</ele>
        <time>2025-03-12T10:15:09.922Z</time>
      </trkpt>
      <trkpt lat="47.99357" lon="5.10771">
        <ele>370.6</ele>
        <time>2025-03-12T10:15:16.086Z</time>
      </trkpt>
      <trkpt lat="47.99362" lon="5.10761">
        <ele>370.94</ele>
        <time>2025-03-12T10:15:22.251Z</time>
      </trkpt>
      <trkpt lat="47.99384" lon="5.10727">
        <ele>371.35</ele>
        <time>2025-03-12T10:15:28.421Z</time>
      </trkpt>
      <trkpt lat="47.99398" lon="5.10704">
        <ele>371.81</ele>
        <time>2025-03-12T10:15:34.595Z</time>
      </trkpt>
      <trkpt lat="47.99422" lon="5.10673">
        <ele>372.41</ele>
        <time>2025-03-12T10:15:40.774Z</time>
      </trkpt>
      <trkpt lat="47.99438" lon="5.10651">
        <ele>372.99</ele>
        <time>2025-03-12T10:15:46.956Z</time>
      </trkpt>
      <trkpt lat="47.99462" lon="5.1062">
        <ele>373.69</ele>
        <time>2025-03-12T10:15:53.143Z</time>
      </trkpt>
      <trkpt lat="47.99479" lon="5.10598">
        <ele>374.3</ele>
        <time>2025-03-12T10:15:59.334Z</time>
      </trkpt>
      <trkpt lat="47.99492" lon="5.10579">
        <ele>374.81</ele>
        <time>2025-03-12T10:16:05.528Z</time>
      </trkpt>
      <trkpt lat="47.99503" lon="5.10558">
        <ele>375.28</ele>
        <time>2025-03-12T10:16:11.725Z</time>
      </trkpt>
      <trkpt lat="47.99514" lon="5.10536">
        <ele>375.75</ele>
        <time>2025-03-12T10:16:17.925Z</time>
      </trkpt>
      <trkpt lat="47.99524" lon="5.10518">
        <ele>376.13</ele>
        <time>2025-03-12T10:16:24.127Z</time>
      </trkpt>
      <trkpt lat="47.99533" lon="5.10491">
        <ele>376.49</ele>
        <time>2025-03-12T10:16:30.333Z</time>
      </trkpt>
      <trkpt lat="47.99547" lon="5.10457">
        <ele>376.79</ele>
        <time>2025-03-12T10:16:36.543Z</time>
      </trkpt>
      <trkpt lat="47.99561" lon="5.10415">
        <ele>377.01</ele>
        <time>2025-03-12T10:16:42.758Z</time>
      </trkpt>
      <trkpt lat="47.99573" lon="5.10377">
        <ele>377.22</ele>
        <time>2025-03-12T10:16:48.977Z</time>
      </trkpt>
      <trkpt lat="47.9959" lon="5.10337">
        <ele>377.49</ele>
        <time>2025-03-12T10:16:55.201Z</time>
      </trkpt>
      <trkpt lat="47.99607" lon="5.10298">
        <ele>377.75</ele>
        <time>2025-03-12T10:17:01.431Z</time>
      </trkpt>
      <trkpt lat="47.99611" lon="5.10288">
        <ele>377.95</ele>
        <time>2025-03-12T10:17:07.662Z</time>
      </trkpt>
      <trkpt lat="47.99629" lon="5.10249">
        <ele>378.15</ele>
        <time>2025-03-12T10:17:13.898Z</time>
      </trkpt>
      <trkpt lat="47.99642" lon="5.10221">
        <ele>378.27</ele>
        <time>2025-03-12T10:17:20.138Z</time>
      </trkpt>
      <trkpt lat="47.99657" lon="5.10191">
        <ele>378.35</ele>
        <time>2025-03-12T10:17:26.382Z</time>
      </trkpt>
      <trkpt lat="47.99677" lon="5.10155">
        <ele>378.38</ele>
        <time>2025-03-12T10:17:32.631Z</time>
      </trkpt>
      <trkpt lat="47.99698" lon="5.10119">
        <ele>378.33</ele>
        <time>2025-03-12T10:17:38.885Z</time>
      </trkpt>
      <trkpt lat="47.99702" lon="5.10112">
        <ele>378.25</ele>
        <time>2025-03-12T10:17:45.140Z</time>
      </trkpt>
      <trkpt lat="47.99722" lon="5.10076">
        <ele>378.2</ele>
        <time>2025-03-12T10:17:51.400Z</time>
      </trkpt>
      <trkpt lat="47.99742" lon="5.10039">
        <ele>377.93</ele>
        <time>2025-03-12T10:17:57.665Z</time>
      </trkpt>
      <trkpt lat="47.99751" lon="5.10023">
        <ele>377.51</ele>
        <time>2025-03-12T10:18:03.932Z</time>
      </trkpt>
      <trkpt lat="47.9977" lon="5.09986">
        <ele>377.01</ele>
        <time>2025-03-12T10:18:10.204Z</time>
      </trkpt>
      <trkpt lat="47.99788" lon="5.0995">
        <ele>376.42</ele>
        <time>2025-03-12T10:18:16.481Z</time>
      </trkpt>
      <trkpt lat="47.99806" lon="5.09912">
        <ele>375.8</ele>
        <time>2025-03-12T10:18:22.763Z</time>
      </trkpt>
      <trkpt lat="47.99824" lon="5.09873">
        <ele>375.01</ele>
        <time>2025-03-12T10:18:29.050Z</time>
      </trkpt>
      <trkpt lat="47.99825" lon="5.09871">
        <ele>374.19</ele>
        <time>2025-03-12T10:18:35.337Z</time>
      </trkpt>
      <trkpt lat="47.99844" lon="5.09833">
        <ele>373.22</ele>
        <time>2025-03-12T10:18:41.629Z</time>
      </trkpt>
      <trkpt lat="47.99857" lon="5.09806">
        <ele>372.15</ele>
        <time>2025-03-12T10:18:47.925Z</time>
      </trkpt>
      <trkpt lat="47.99877" lon="5.0977">
        <ele>371</ele>
        <time>2025-03-12T10:18:54.226Z</time>
      </trkpt>
      <trkpt lat="47.99897" lon="5.09734">
        <ele>369.75</ele>
        <time>2025-03-12T10:19:00.532Z</time>
      </trkpt>
      <trkpt lat="47.99917" lon="5.09698">
        <ele>368.48</ele>
        <time>2025-03-12T10:19:06.843Z</time>
      </trkpt>
      <trkpt lat="47.99926" lon="5.09682">
        <ele>367.16</ele>
        <time>2025-03-12T10:19:13.156Z</time>
      </trkpt>
      <trkpt lat="47.99947" lon="5.09647">
        <ele>365.68</ele>
        <time>2025-03-12T10:19:19.474Z</time>
      </trkpt>
      <trkpt lat="47.99968" lon="5.09613">
        <ele>364.18</ele>
        <time>2025-03-12T10:19:25.797Z</time>
      </trkpt>
      <trkpt lat="47.9999" lon="5.09578">
        <ele>362.62</ele>
        <time>2025-03-12T10:19:32.125Z</time>
      </trkpt>
      <trkpt lat="48" lon="5.09561">
        <ele>360.97</ele>
        <time>2025-03-12T10:19:38.456Z</time>
      </trkpt>
      <trkpt lat="48.0002" lon="5.09525">
        <ele>359.01</ele>
        <time>2025-03-12T10:19:44.792Z</time>
      </trkpt>
      <trkpt lat="48.00027" lon="5.09513">
        <ele>357.32</ele>
        <time>2025-03-12T10:19:51.130Z</time>
      </trkpt>
      <trkpt lat="48.00044" lon="5.09473">
        <ele>355.58</ele>
        <time>2025-03-12T10:19:57.473Z</time>
      </trkpt>
      <trkpt lat="48.0005" lon="5.09459">
        <ele>353.85</ele>
        <time>2025-03-12T10:20:03.817Z</time>
      </trkpt>
      <trkpt lat="48.00065" lon="5.09417">
        <ele>351.97</ele>
        <time>2025-03-12T10:20:10.166Z</time>
      </trkpt>
      <trkpt lat="48.00075" lon="5.09388">
        <ele>350.13</ele>
        <time>2025-03-12T10:20:16.519Z</time>
      </trkpt>
      <trkpt lat="48.00088" lon="5.09346">
        <ele>348.29</ele>
        <time>2025-03-12T10:20:22.877Z</time>
      </trkpt>
      <trkpt lat="48.00102" lon="5.09303">
        <ele>346.63</ele>
        <time>2025-03-12T10:20:29.240Z</time>
      </trkpt>
      <trkpt lat="48.00115" lon="5.09261">
        <ele>345.01</ele>
        <time>2025-03-12T10:20:35.608Z</time>
      </trkpt>
      <trkpt lat="48.00129" lon="5.09218">
        <ele>343.41</ele>
        <time>2025-03-12T10:20:41.981Z</time>
      </trkpt>
      <trkpt lat="48.00129" lon="5.09218">
        <ele>341.96</ele>
        <time>2025-03-12T10:20:48.354Z</time>
      </trkpt>
      <trkpt lat="48.00144" lon="5.09177">
        <ele>340.52</ele>
        <time>2025-03-12T10:20:54.732Z</time>
      </trkpt>
      <trkpt lat="48.00144" lon="5.09176">
        <ele>339.24</ele>
        <time>2025-03-12T10:21:01.110Z</time>
      </trkpt>
      <trkpt lat="48.00163" lon="5.09138">
        <ele>338.04</ele>
        <time>2025-03-12T10:21:07.493Z</time>
      </trkpt>
      <trkpt lat="48.00169" lon="5.09126">
        <ele>336.95</ele>
        <time>2025-03-12T10:21:13.878Z</time>
      </trkpt>
      <trkpt lat="48.0018" lon="5.09104">
        <ele>335.94</ele>
        <time>2025-03-12T10:21:20.266Z</time>
      </trkpt>
      <trkpt lat="48.00195" lon="5.09081">
        <ele>335.02</ele>
        <time>2025-03-12T10:21:26.657Z</time>
      </trkpt>
      <trkpt lat="48.00214" lon="5.0906">
        <ele>334.2</ele>
        <time>2025-03-12T10:21:33.052Z</time>
      </trkpt>
      <trkpt lat="48.00238" lon="5.09039">
        <ele>333.49</ele>
        <time>2025-03-12T10:21:39.452Z</time>
      </trkpt>
      <trkpt lat="48.00265" lon="5.09015">
        <ele>332.86</ele>
        <time>2025-03-12T10:21:45.857Z</time>
      </trkpt>
      <trkpt lat="48.00281" lon="5.08991">
        <ele>332.42</ele>
        <time>2025-03-12T10:21:52.265Z</time>
      </trkpt>
      <trkpt lat="48.0029" lon="5.08965">
        <ele>332.2</ele>
        <time>2025-03-12T10:21:58.676Z</time>
      </trkpt>
      <trkpt lat="48.00291" lon="5.0894">
        <ele>332.16</ele>
        <time>2025-03-12T10:22:05.090Z</time>
      </trkpt>
      <trkpt lat="48.00289" lon="5.08923">
        <ele>332.26</ele>
        <time>2025-03-12T10:22:11.506Z</time>
      </trkpt>
      <trkpt lat="48.00281" lon="5.08879">
        <ele>332.51</ele>
        <time>2025-03-12T10:22:17.927Z</time>
      </trkpt>
      <trkpt lat="48.0028" lon="5.08861">
        <ele>332.84</ele>
        <time>2025-03-12T10:22:24.350Z</time>
      </trkpt>
      <trkpt lat="48.00283" lon="5.08835">
        <ele>333.31</ele>
        <time>2025-03-12T10:22:30.776Z</time>
      </trkpt>
      <trkpt lat="48.00292" lon="5.08797">
        <ele>333.88</ele>
        <time>2025-03-12T10:22:37.206Z</time>
      </trkpt>
      <trkpt lat="48.00307" lon="5.08756">
        <ele>334.74</ele>
        <time>2025-03-12T10:22:43.641Z</time>
      </trkpt>
      <trkpt lat="48.00314" lon="5.08739">
        <ele>335.68</ele>
        <time>2025-03-12T10:22:50.078Z</time>
      </trkpt>
      <trkpt lat="48.00327" lon="5.08709">
        <ele>336.81</ele>
        <time>2025-03-12T10:22:56.519Z</time>
      </trkpt>
      <trkpt lat="48.00345" lon="5.08672">
        <ele>338.15</ele>
        <time>2025-03-12T10:23:02.965Z</time>
      </trkpt>
      <trkpt lat="48.00357" lon="5.08655">
        <ele>339.34</ele>
        <time>2025-03-12T10:23:09.414Z</time>
      </trkpt>
      <trkpt lat="48.00371" lon="5.08638">
        <ele>340.51</ele>
        <time>2025-03-12T10:23:15.865Z</time>
      </trkpt>
      <trkpt lat="48.00378" lon="5.08629">
        <ele>341.63</ele>
        <time>2025-03-12T10:23:22.318Z</time>
      </trkpt>
      <trkpt lat="48.00395" lon="5.08597">
        <ele>342.88</ele>
        <time>2025-03-12T10:23:28.775Z</time>
      </trkpt>
      <trkpt lat="48.00412" lon="5.08558">
        <ele>344.01</ele>
        <time>2025-03-12T10:23:35.237Z</time>
      </trkpt>
      <trkpt lat="48.00425" lon="5.0853">
        <ele>345.01</ele>
        <time>2025-03-12T10:23:41.703Z</time>
      </trkpt>
      <trkpt lat="48.00442" lon="5.08491">
        <ele>345.92</ele>
        <time>2025-03-12T10:23:48.174Z</time>
      </trkpt>
      <trkpt lat="48.0046" lon="5.08452">
        <ele>346.79</ele>
        <time>2025-03-12T10:23:54.650Z</time>
      </trkpt>
      <trkpt lat="48.00472" lon="5.08424">
        <ele>347.68</ele>
        <time>2025-03-12T10:24:01.130Z</time>
      </trkpt>
      <trkpt lat="48.00487" lon="5.08395">
        <ele>348.42</ele>
        <time>2025-03-12T10:24:07.614Z</time>
      </trkpt>
      <trkpt lat="48.00508" lon="5.0836">
        <ele>349.14</ele>
        <time>2025-03-12T10:24:14.103Z</time>
      </trkpt>
      <trkpt lat="48.00519" lon="5.0834">
        <ele>349.84</ele>
        <time>2025-03-12T10:24:20.594Z</time>
      </trkpt>
      <trkpt lat="48.00542" lon="5.08308">
        <ele>350.55</ele>
        <time>2025-03-12T10:24:27.090Z</time>
      </trkpt>
      <trkpt lat="48.00565" lon="5.08276">
        <ele>351.16</ele>
        <time>2025-03-12T10:24:33.592Z</time>
      </trkpt>
      <trkpt lat="48.00588" lon="5.08245">
        <ele>351.66</ele>
        <time>2025-03-12T10:24:40.099Z</time>
      </trkpt>
      <trkpt lat="48.00599" lon="5.0823">
        <ele>352.07</ele>
        <time>2025-03-12T10:24:46.608Z</time>
      </trkpt>
      <trkpt lat="48.00623" lon="5.082">
        <ele>352.46</ele>
        <time>2025-03-12T10:24:53.122Z</time>
      </trkpt>
      <trkpt lat="48.00643" lon="5.08175">
        <ele>352.8</ele>
        <time>2025-03-12T10:24:59.640Z</time>
      </trkpt>
      <trkpt lat="48.00668" lon="5.08146">
        <ele>352.95</ele>
        <time>2025-03-12T10:25:06.163Z</time>
      </trkpt>
      <trkpt lat="48.00692" lon="5.08117">
        <ele>353.03</ele>
        <time>2025-03-12T10:25:12.691Z</time>
      </trkpt>
      <trkpt lat="48.00709" lon="5.08097">
        <ele>353.03</ele>
        <time>2025-03-12T10:25:19.223Z</time>
      </trkpt>
      <trkpt lat="48.00733" lon="5.08067">
        <ele>352.98</ele>
        <time>2025-03-12T10:25:25.760Z</time>
      </trkpt>
      <trkpt lat="48.00757" lon="5.08036">
        <ele>352.93</ele>
        <time>2025-03-12T10:25:32.302Z</time>
      </trkpt>
      <trkpt lat="48.00762" lon="5.0803">
        <ele>352.84</ele>
        <time>2025-03-12T10:25:38.845Z</time>
      </trkpt>
      <trkpt lat="48.00786" lon="5.08">
        <ele>352.74</ele>
        <time>2025-03-12T10:25:45.393Z</time>
      </trkpt>
      <trkpt lat="48.008" lon="5.07983">
        <ele>352.56</ele>
        <time>2025-03-12T10:25:51.944Z</time>
      </trkpt>
      <trkpt lat="48.00822" lon="5.0795">
        <ele>352.42</ele>
        <time>2025-03-12T10:25:58.500Z</time>
      </trkpt>
      <trkpt lat="48.00845" lon="5.07917">
        <ele>352.15</ele>
        <time>2025-03-12T10:26:05.061Z</time>
      </trkpt>
      <trkpt lat="48.00866" lon="5.07885">
        <ele>351.82</ele>
        <time>2025-03-12T10:26:11.626Z</time>
      </trkpt>
      <trkpt lat="48.00887" lon="5.07849">
        <ele>351.4</ele>
        <time>2025-03-12T10:26:18.197Z</time>
      </trkpt>
      <trkpt lat="48.00907" lon="5.07814">
        <ele>350.94</ele>
        <time>2025-03-12T10:26:24.773Z</time>
      </trkpt>
      <trkpt lat="48.00914" lon="5.07802">
        <ele>350.45</ele>
        <time>2025-03-12T10:26:31.350Z</time>
      </trkpt>
      <trkpt lat="48.00933" lon="5.07764">
        <ele>349.93</ele>
        <time>2025-03-12T10:26:37.932Z</time>
      </trkpt>
      <trkpt lat="48.00938" lon="5.07754">
        <ele>349.43</ele>
        <time>2025-03-12T10:26:44.516Z</time>
      </trkpt>
      <trkpt lat="48.00958" lon="5.07718">
        <ele>348.93</ele>
        <time>2025-03-12T10:26:51.105Z</time>
      </trkpt>
      <trkpt lat="48.00978" lon="5.07682">
        <ele>348.41</ele>
        <time>2025-03-12T10:26:57.699Z</time>
      </trkpt>
      <trkpt lat="48.00998" lon="5.07646">
        <ele>347.9</ele>
        <time>2025-03-12T10:27:04.298Z</time>
      </trkpt>
      <trkpt lat="48.01014" lon="5.07617">
        <ele>347.39</ele>
        <time>2025-03-12T10:27:10.901Z</time>
      </trkpt>
      <trkpt lat="48.01034" lon="5.07581">
        <ele>346.86</ele>
        <time>2025-03-12T10:27:17.509Z</time>
      </trkpt>
      <trkpt lat="48.01054" lon="5.07545">
        <ele>346.31</ele>
        <time>2025-03-12T10:27:24.122Z</time>
      </trkpt>
      <trkpt lat="48.01074" lon="5.0751">
        <ele>345.81</ele>
        <time>2025-03-12T10:27:30.740Z</time>
      </trkpt>
      <trkpt lat="48.01093" lon="5.07472">
        <ele>345.38</ele>
        <time>2025-03-12T10:27:37.363Z</time>
      </trkpt>
      <trkpt lat="48.01104" lon="5.0745">
        <ele>345.04</ele>
        <time>2025-03-12T10:27:43.989Z</time>
      </trkpt>
      <trkpt lat="48.01116" lon="5.07407">
        <ele>344.75</ele>
        <time>2025-03-12T10:27:50.620Z</time>
      </trkpt>
      <trkpt lat="48.01128" lon="5.07363">
        <ele>344.43</ele>
        <time>2025-03-12T10:27:57.256Z</time>
      </trkpt>
      <trkpt lat="48.01136" lon="5.07334">
        <ele>344.18</ele>
        <time>2025-03-12T10:28:03.895Z</time>
      </trkpt>
      <trkpt lat="48.0115" lon="5.07292">
        <ele>344.03</ele>
        <time>2025-03-12T10:28:10.539Z</time>
      </trkpt>
      <trkpt lat="48.01157" lon="5.07272">
        <ele>344.03</ele>
        <time>2025-03-12T10:28:17.186Z</time>
      </trkpt>
      <trkpt lat="48.01167" lon="5.07247">
        <ele>344.09</ele>
        <time>2025-03-12T10:28:23.836Z</time>
      </trkpt>
      <trkpt lat="48.01185" lon="5.07209">
        <ele>344.2</ele>
        <time>2025-03-12T10:28:30.491Z</time>
      </trkpt>
      <trkpt lat="48.01204" lon="5.07171">
        <ele>344.36</ele>
        <time>2025-03-12T10:28:37.151Z</time>
      </trkpt>
      <trkpt lat="48.01206" lon="5.07167">
        <ele>344.52</ele>
        <time>2025-03-12T10:28:43.811Z</time>
      </trkpt>
      <trkpt lat="48.01222" lon="5.07127">
        <ele>344.75</ele>
        <time>2025-03-12T10:28:50.477Z</time>
      </trkpt>
      <trkpt lat="48.01232" lon="5.07102">
        <ele>345.01</ele>
        <time>2025-03-12T10:28:57.146Z</time>
      </trkpt>
      <trkpt lat="48.01243" lon="5.07076">
        <ele>345.29</ele>
        <time>2025-03-12T10:29:03.818Z</time>
      </trkpt>
      <trkpt lat="48.01258" lon="5.07045">
        <ele>345.65</ele>
        <time>2025-03-12T10:29:10.494Z</time>
      </trkpt>
      <trkpt lat="48.01278" lon="5.07018">
        <ele>346.01</ele>
        <time>2025-03-12T10:29:17.174Z</time>
      </trkpt>
      <trkpt lat="48.0129" lon="5.07006">
        <ele>346.31</ele>
        <time>2025-03-12T10:29:23.857Z</time>
      </trkpt>
      <trkpt lat="48.01318" lon="5.06985">
        <ele>346.64</ele>
        <time>2025-03-12T10:29:30.545Z</time>
      </trkpt>
      <trkpt lat="48.01319" lon="5.06985">
        <ele>346.84</ele>
        <time>2025-03-12T10:29:37.233Z</time>
      </trkpt>
      <trkpt lat="48.01336" lon="5.06975">
        <ele>347.06</ele>
        <time>2025-03-12T10:29:43.924Z</time>
      </trkpt>
      <trkpt lat="48.01366" lon="5.0696">
        <ele>347.2</ele>
        <time>2025-03-12T10:29:50.620Z</time>
      </trkpt>
      <trkpt lat="48.01373" lon="5.06956">
        <ele>347.31</ele>
        <time>2025-03-12T10:29:57.317Z</time>
      </trkpt>
      <trkpt lat="48.01402" lon="5.06937">
        <ele>347.33</ele>
        <time>2025-03-12T10:30:04.019Z</time>
      </trkpt>
      <trkpt lat="48.01402" lon="5.06937">
        <ele>347.38</ele>
        <time>2025-03-12T10:30:10.721Z</time>
      </trkpt>
      <trkpt lat="48.0143" lon="5.06916">
        <ele>347.34</ele>
        <time>2025-03-12T10:30:17.428Z</time>
      </trkpt>
      <trkpt lat="48.01458" lon="5.06895">
        <ele>347.32</ele>
        <time>2025-03-12T10:30:24.140Z</time>
      </trkpt>
      <trkpt lat="48.01486" lon="5.06874">
        <ele>347.26</ele>
        <time>2025-03-12T10:30:30.857Z</time>
      </trkpt>
      <trkpt lat="48.01498" lon="5.06865">
        <ele>347.19</ele>
        <time>2025-03-12T10:30:37.576Z</time>
      </trkpt>
      <trkpt lat="48.01526" lon="5.06844">
        <ele>347.09</ele>
        <time>2025-03-12T10:30:44.300Z</time>
      </trkpt>
      <trkpt lat="48.01554" lon="5.06824">
        <ele>347.02</ele>
        <time>2025-03-12T10:30:51.029Z</time>
      </trkpt>
      <trkpt lat="48.01562" lon="5.06818">
        <ele>346.91</ele>
        <time>2025-03-12T10:30:57.760Z</time>
      </trkpt>
      <trkpt lat="48.0159" lon="5.06796">
        <ele>346.72</ele>
        <time>2025-03-12T10:31:04.496Z</time>
      </trkpt>
      <trkpt lat="48.01607" lon="5.06782">
        <ele>346.54</ele>
        <time>2025-03-12T10:31:11.235Z</time>
      </trkpt>
      <trkpt lat="48.01634" lon="5.06758">
        <ele>346.32</ele>
        <time>2025-03-12T10:31:17.979Z</time>
      </trkpt>
      <trkpt lat="48.01641" lon="5.06751">
        <ele>346.15</ele>
        <time>2025-03-12T10:31:24.724Z</time>
      </trkpt>
      <trkpt lat="48.01666" lon="5.06723">
        <ele>345.97</ele>
        <time>2025-03-12T10:31:31.474Z</time>
      </trkpt>
      <trkpt lat="48.01678" lon="5.06711">
        <ele>345.78</ele>
        <time>2025-03-12T10:31:38.227Z</time>
      </trkpt>
      <trkpt lat="48.01703" lon="5.06682">
        <ele>345.68</ele>
        <time>2025-03-12T10:31:44.985Z</time>
      </trkpt>
      <trkpt lat="48.01722" lon="5.0666">
        <ele>345.56</ele>
        <time>2025-03-12T10:31:51.747Z</time>
      </trkpt>
      <trkpt lat="48.01742" lon="5.06641">
        <ele>345.42</ele>
        <time>2025-03-12T10:31:58.512Z</time>
      </trkpt>
      <trkpt lat="48.01769" lon="5.06616">
        <ele>345.19</ele>
        <time>2025-03-12T10:32:05.282Z</time>
      </trkpt>
      <trkpt lat="48.01793" lon="5.06593">
        <ele>345.14</ele>
        <time>2025-03-12T10:32:12.057Z</time>
      </trkpt>
      <trkpt lat="48.01816" lon="5.06564">
        <ele>345.15</ele>
        <time>2025-03-12T10:32:18.837Z</time>
      </trkpt>
      <trkpt lat="48.01837" lon="5.06529">
        <ele>345.19</ele>
        <time>2025-03-12T10:32:25.622Z</time>
      </trkpt>
      <trkpt lat="48.0184" lon="5.06523">
        <ele>345.25</ele>
        <time>2025-03-12T10:32:32.408Z</time>
      </trkpt>
      <trkpt lat="48.0186" lon="5.06486">
        <ele>345.41</ele>
        <time>2025-03-12T10:32:39.199Z</time>
      </trkpt>
      <trkpt lat="48.0187" lon="5.06467">
        <ele>345.45</ele>
        <time>2025-03-12T10:32:45.992Z</time>
      </trkpt>
      <trkpt lat="48.01891" lon="5.06432">
        <ele>345.46</ele>
        <time>2025-03-12T10:32:52.790Z</time>
      </trkpt>
      <trkpt lat="48.01897" lon="5.06423">
        <ele>345.28</ele>
        <time>2025-03-12T10:32:59.590Z</time>
      </trkpt>
      <trkpt lat="48.01911" lon="5.06403">
        <ele>345.05</ele>
        <time>2025-03-12T10:33:06.393Z</time>
      </trkpt>
      <trkpt lat="48.01934" lon="5.06371">
        <ele>344.74</ele>
        <time>2025-03-12T10:33:13.201Z</time>
      </trkpt>
      <trkpt lat="48.01957" lon="5.06339">
        <ele>344.5</ele>
        <time>2025-03-12T10:33:20.014Z</time>
      </trkpt>
      <trkpt lat="48.01965" lon="5.06329">
        <ele>344.4</ele>
        <time>2025-03-12T10:33:26.829Z</time>
      </trkpt>
      <trkpt lat="48.0198" lon="5.06319">
        <ele>344.29</ele>
        <time>2025-03-12T10:33:33.646Z</time>
      </trkpt>
      <trkpt lat="48.01983" lon="5.06304">
        <ele>344.3</ele>
        <time>2025-03-12T10:33:40.465Z</time>
      </trkpt>
      <trkpt lat="48.01989" lon="5.06289">
        <ele>344.35</ele>
        <time>2025-03-12T10:33:47.286Z</time>
      </trkpt>
      <trkpt lat="48.02008" lon="5.06251">
        <ele>344.43</ele>
        <time>2025-03-12T10:33:54.112Z</time>
      </trkpt>
      <trkpt lat="48.02026" lon="5.06213">
        <ele>344.64</ele>
        <time>2025-03-12T10:34:00.943Z</time>
      </trkpt>
      <trkpt lat="48.02034" lon="5.06198">
        <ele>344.75</ele>
        <time>2025-03-12T10:34:07.776Z</time>
      </trkpt>
      <trkpt lat="48.02044" lon="5.06175">
        <ele>344.87</ele>
        <time>2025-03-12T10:34:14.612Z</time>
      </trkpt>
      <trkpt lat="48.0205" lon="5.06164">
        <ele>344.99</ele>
        <time>2025-03-12T10:34:21.449Z</time>
      </trkpt>
      <trkpt lat="48.02072" lon="5.0613">
        <ele>345.12</ele>
        <time>2025-03-12T10:34:28.291Z</time>
      </trkpt>
      <trkpt lat="48.02079" lon="5.06118">
        <ele>345.13</ele>
        <time>2025-03-12T10:34:35.135Z</time>
      </trkpt>
      <trkpt lat="48.02091" lon="5.06101">
        <ele>345.02</ele>
        <time>2025-03-12T10:34:41.982Z</time>
      </trkpt>
      <trkpt lat="48.02113" lon="5.06067">
        <ele>344.88</ele>
        <time>2025-03-12T10:34:48.834Z</time>
      </trkpt>
      <trkpt lat="48.02132" lon="5.06038">
        <ele>344.67</ele>
        <time>2025-03-12T10:34:55.690Z</time>
      </trkpt>
      <trkpt lat="48.02154" lon="5.06005">
        <ele>344.47</ele>
        <time>2025-03-12T10:35:02.551Z</time>
      </trkpt>
      <trkpt lat="48.02176" lon="5.05971">
        <ele>344.32</ele>
        <time>2025-03-12T10:35:09.417Z</time>
      </trkpt>
      <trkpt lat="48.0218" lon="5.05966">
        <ele>344.19</ele>
        <time>2025-03-12T10:35:16.284Z</time>
      </trkpt>
      <trkpt lat="48.02202" lon="5.05936">
        <ele>344.05</ele>
        <time>2025-03-12T10:35:23.156Z</time>
      </trkpt>
      <trkpt lat="48.0221" lon="5.05944">
        <ele>344.03</ele>
        <time>2025-03-12T10:35:30.029Z</time>
      </trkpt>
      <trkpt lat="48.02227" lon="5.05951">
        <ele>344.02</ele>
        <time>2025-03-12T10:35:36.905Z</time>
      </trkpt>
      <trkpt lat="48.02228" lon="5.05952">
        <ele>343.98</ele>
        <time>2025-03-12T10:35:43.782Z</time>
      </trkpt>
    </trkseg>
  </trk>
</gpx>